[[{"header":{"parameterUnit":"m.s-1","parameterCategory":1,"la1":30.6,"la2":29.2853,"lo1":-89.7004,"lo2":-87.6739,"dy":0.0162,"dx":0.0183,"nx":112,"ny":82,"refTime":"2023-03-09T18:00:00:Z","depth":0,"parameterNumber":2,"parameterNumberName":"U-component_of_WINDS"},"data":[0.0,0.0,0.0,0.0,0.0,0.0,0.0,0.0,0.0,0.0,0.0,0.0,0.0,0.0,0.0,0.0,0.0,0.0,0.0,0.0,0.0,0.0,0.0,0.0,0.0,0.0,0.0,0.0,0.0,0.0,0.0,0.0,0.0,0.0,0.0,0.0,0.0,0.0,0.0,0.0,0.0,0.0,0.0,0.0,0.0,0.0,0.0,0.0,0.0,0.0,0.0,0.0,0.0,0.0,0.0,0.0,0.0,0.0,0.0,0.0,0.0,0.0,0.0,0.0,0.0,0.0,0.0,0.0,0.0,0.0,0.0,0.0,0.0,0.0,0.0,0.0,0.0,0.0,0.0,0.0,0.0,0.0,0.0,0.0,0.0,0.0,0.0,0.0,0.0,0.0,-4.4291,-4.638,-4.8583,-4.9952,-5.0107,-4.909,-4.7456,-4.5043,0.0,0.0,0.0,0.0,0.0,0.0,0.0,0.0,0.0,0.0,0.0,0.0,0.0,0.0,0.0,0.0,0.0,0.0,0.0,0.0,0.0,0.0,0.0,0.0,0.0,0.0,0.0,0.0,0.0,0.0,0.0,0.0,0.0,0.0,0.0,0.0,0.0,0.0,0.0,0.0,0.0,0.0,0.0,0.0,0.0,0.0,0.0,0.0,0.0,0.0,0.0,0.0,0.0,0.0,0.0,0.0,0.0,0.0,0.0,0.0,0.0,0.0,0.0,0.0,0.0,0.0,0.0,0.0,0.0,0.0,0.0,0.0,0.0,0.0,0.0,0.0,0.0,0.0,0.0,0.0,0.0,0.0,0.0,0.0,0.0,0.0,0.0,0.0,0.0,0.0,0.0,0.0,0.0,0.0,0.0,0.0,0.0,0.0,0.0,0.0,0.0,0.0,0.0,0.0,-4.587,-4.9699,-5.048,-5.1045,-5.185,-4.9766,-4.7656,-4.5834,0.0,0.0,0.0,0.0,0.0,0.0,0.0,0.0,0.0,0.0,0.0,0.0,0.0,0.0,0.0,0.0,0.0,0.0,0.0,0.0,0.0,0.0,0.0,0.0,0.0,0.0,0.0,0.0,0.0,0.0,0.0,0.0,0.0,0.0,0.0,0.0,0.0,0.0,0.0,0.0,0.0,0.0,0.0,0.0,0.0,0.0,0.0,0.0,0.0,0.0,0.0,0.0,0.0,0.0,0.0,0.0,0.0,0.0,0.0,0.0,0.0,0.0,0.0,0.0,0.0,0.0,0.0,0.0,0.0,0.0,0.0,0.0,0.0,0.0,0.0,0.0,0.0,0.0,0.0,0.0,0.0,0.0,0.0,0.0,0.0,0.0,0.0,0.0,0.0,0.0,0.0,0.0,0.0,0.0,0.0,0.0,0.0,0.0,0.0,0.0,0.0,0.0,0.0,-4.5838,-4.7734,-5.0589,-5.0898,-5.1262,-5.2175,-4.9892,-4.7699,-4.6029,-4.3955,0.0,0.0,0.0,0.0,0.0,0.0,0.0,0.0,0.0,0.0,0.0,0.0,0.0,0.0,0.0,0.0,0.0,0.0,0.0,0.0,0.0,0.0,0.0,0.0,0.0,0.0,0.0,0.0,0.0,0.0,0.0,0.0,0.0,0.0,0.0,0.0,0.0,0.0,0.0,0.0,0.0,0.0,0.0,0.0,0.0,0.0,0.0,0.0,0.0,0.0,0.0,0.0,0.0,0.0,0.0,0.0,0.0,0.0,0.0,0.0,0.0,0.0,0.0,0.0,0.0,0.0,0.0,0.0,0.0,0.0,0.0,0.0,0.0,0.0,0.0,0.0,0.0,0.0,0.0,0.0,0.0,0.0,0.0,0.0,0.0,0.0,0.0,0.0,0.0,0.0,0.0,0.0,0.0,0.0,0.0,0.0,0.0,0.0,0.0,0.0,0.0,0.0,-4.7463,-4.9204,-5.1285,-5.113,-5.1331,-5.2414,-4.9977,-4.7671,-4.5989,-4.426,0.0,0.0,0.0,0.0,0.0,0.0,0.0,0.0,0.0,0.0,0.0,0.0,0.0,0.0,0.0,0.0,0.0,0.0,0.0,0.0,0.0,0.0,0.0,0.0,0.0,0.0,0.0,0.0,0.0,0.0,0.0,0.0,0.0,0.0,0.0,0.0,0.0,0.0,0.0,0.0,0.0,0.0,0.0,0.0,0.0,0.0,0.0,0.0,0.0,0.0,0.0,0.0,0.0,0.0,0.0,0.0,0.0,0.0,0.0,0.0,0.0,0.0,0.0,0.0,0.0,0.0,0.0,0.0,0.0,0.0,0.0,0.0,0.0,0.0,0.0,0.0,0.0,0.0,0.0,0.0,0.0,0.0,0.0,0.0,0.0,0.0,0.0,0.0,0.0,0.0,0.0,0.0,0.0,0.0,0.0,0.0,0.0,0.0,0.0,0.0,0.0,0.0,-4.7811,-4.9668,-5.2956,-5.1873,-5.1594,-5.3265,-5.0326,-4.7657,-4.5923,-4.4208,0.0,0.0,0.0,0.0,0.0,0.0,0.0,0.0,0.0,0.0,0.0,0.0,0.0,0.0,0.0,0.0,0.0,0.0,0.0,0.0,0.0,0.0,0.0,0.0,0.0,0.0,0.0,0.0,0.0,0.0,0.0,0.0,0.0,0.0,0.0,0.0,0.0,0.0,0.0,0.0,0.0,0.0,0.0,0.0,0.0,0.0,0.0,0.0,0.0,0.0,0.0,0.0,0.0,0.0,0.0,0.0,0.0,0.0,0.0,0.0,0.0,0.0,0.0,0.0,0.0,0.0,0.0,0.0,0.0,0.0,0.0,0.0,0.0,0.0,0.0,0.0,0.0,0.0,0.0,0.0,0.0,0.0,0.0,0.0,0.0,0.0,0.0,0.0,0.0,0.0,0.0,0.0,0.0,0.0,0.0,0.0,0.0,0.0,0.0,0.0,0.0,0.0,-4.8198,-4.9707,0.0,-5.195,-5.1602,-5.3343,-5.0364,-4.7657,-4.5923,0.0,0.0,0.0,0.0,0.0,0.0,0.0,0.0,0.0,0.0,0.0,0.0,0.0,0.0,0.0,0.0,0.0,0.0,0.0,0.0,0.0,0.0,0.0,0.0,0.0,0.0,0.0,0.0,0.0,0.0,0.0,0.0,0.0,0.0,0.0,0.0,0.0,0.0,0.0,0.0,0.0,0.0,0.0,0.0,0.0,0.0,0.0,0.0,0.0,0.0,0.0,0.0,0.0,0.0,0.0,0.0,0.0,0.0,0.0,0.0,0.0,0.0,0.0,0.0,0.0,0.0,0.0,0.0,0.0,0.0,0.0,0.0,0.0,0.0,0.0,0.0,0.0,0.0,0.0,0.0,0.0,0.0,0.0,0.0,0.0,0.0,0.0,0.0,0.0,0.0,0.0,0.0,0.0,0.0,0.0,0.0,0.0,0.0,0.0,0.0,0.0,0.0,-4.7966,-4.8392,-4.9591,0.0,-5.1796,-5.1486,-5.2956,-5.021,-4.7657,-4.5923,0.0,0.0,0.0,0.0,0.0,0.0,0.0,0.0,0.0,0.0,0.0,0.0,0.0,0.0,0.0,0.0,0.0,0.0,0.0,0.0,0.0,0.0,0.0,0.0,0.0,0.0,0.0,0.0,0.0,0.0,0.0,0.0,0.0,0.0,0.0,0.0,0.0,0.0,0.0,0.0,0.0,0.0,0.0,0.0,0.0,0.0,0.0,0.0,0.0,0.0,0.0,0.0,0.0,0.0,0.0,0.0,0.0,0.0,0.0,0.0,0.0,0.0,0.0,0.0,0.0,0.0,0.0,0.0,0.0,0.0,0.0,0.0,0.0,0.0,0.0,0.0,0.0,0.0,0.0,0.0,0.0,0.0,0.0,0.0,0.0,0.0,0.0,0.0,0.0,0.0,0.0,0.0,0.0,0.0,0.0,0.0,0.0,0.0,0.0,0.0,0.0,0.0,-4.7973,-4.8392,-4.9397,-5.192,-5.1409,-5.1254,-5.2152,-4.9861,-4.7657,0.0,0.0,0.0,0.0,0.0,0.0,0.0,0.0,0.0,0.0,0.0,0.0,0.0,0.0,0.0,0.0,0.0,0.0,0.0,0.0,0.0,0.0,0.0,0.0,0.0,0.0,0.0,0.0,0.0,0.0,0.0,0.0,0.0,0.0,0.0,0.0,0.0,0.0,0.0,0.0,0.0,0.0,0.0,0.0,0.0,0.0,0.0,0.0,0.0,0.0,0.0,0.0,0.0,0.0,0.0,0.0,0.0,0.0,0.0,0.0,0.0,0.0,0.0,0.0,0.0,0.0,0.0,0.0,0.0,0.0,0.0,0.0,0.0,0.0,0.0,0.0,0.0,0.0,0.0,0.0,0.0,0.0,0.0,0.0,0.0,0.0,0.0,0.0,0.0,0.0,0.0,0.0,0.0,0.0,0.0,0.0,0.0,0.0,0.0,0.0,0.0,0.0,0.0,-4.7973,-4.8392,-4.9397,-5.192,-5.1409,-5.1254,-5.2152,-4.9861,-4.7657,-4.5923,0.0,0.0,0.0,0.0,0.0,0.0,0.0,0.0,0.0,0.0,0.0,0.0,0.0,0.0,0.0,0.0,0.0,0.0,0.0,0.0,0.0,0.0,0.0,0.0,0.0,0.0,0.0,0.0,0.0,0.0,0.0,0.0,0.0,0.0,0.0,0.0,0.0,0.0,0.0,0.0,0.0,0.0,0.0,0.0,0.0,0.0,0.0,0.0,0.0,0.0,0.0,0.0,0.0,0.0,0.0,0.0,0.0,0.0,0.0,0.0,0.0,0.0,0.0,0.0,0.0,0.0,0.0,0.0,0.0,0.0,0.0,0.0,0.0,0.0,0.0,0.0,0.0,0.0,0.0,0.0,0.0,0.0,0.0,0.0,0.0,0.0,0.0,0.0,0.0,0.0,0.0,0.0,0.0,0.0,0.0,0.0,0.0,0.0,0.0,0.0,0.0,0.0,-4.7995,-4.8399,-4.9243,-5.1447,-5.1215,-5.1091,-5.1641,-4.9668,-4.7811,-4.6426,0.0,0.0,0.0,0.0,0.0,0.0,0.0,0.0,0.0,0.0,0.0,0.0,0.0,0.0,0.0,0.0,0.0,0.0,0.0,0.0,0.0,0.0,0.0,0.0,0.0,0.0,0.0,0.0,0.0,0.0,0.0,0.0,0.0,0.0,0.0,0.0,0.0,0.0,0.0,0.0,0.0,0.0,0.0,0.0,0.0,0.0,0.0,0.0,0.0,0.0,0.0,0.0,0.0,0.0,0.0,0.0,0.0,0.0,0.0,0.0,0.0,0.0,0.0,0.0,0.0,0.0,0.0,0.0,0.0,0.0,0.0,0.0,0.0,0.0,0.0,0.0,0.0,0.0,0.0,0.0,0.0,0.0,0.0,0.0,0.0,0.0,0.0,0.0,0.0,0.0,0.0,0.0,0.0,0.0,0.0,0.0,0.0,0.0,0.0,0.0,0.0,0.0,-4.81,-4.8452,-4.9126,-5.0743,-5.0898,-5.0898,-5.0898,-4.9359,-4.8043,-4.7154,0.0,0.0,0.0,0.0,0.0,0.0,0.0,0.0,0.0,0.0,0.0,0.0,0.0,0.0,0.0,0.0,0.0,0.0,0.0,0.0,0.0,0.0,0.0,0.0,0.0,0.0,0.0,0.0,0.0,0.0,0.0,0.0,0.0,0.0,0.0,0.0,0.0,0.0,0.0,0.0,0.0,0.0,0.0,0.0,0.0,0.0,0.0,0.0,0.0,0.0,0.0,0.0,0.0,0.0,0.0,0.0,0.0,0.0,0.0,0.0,-5.2843,0.0,0.0,0.0,0.0,0.0,0.0,0.0,0.0,0.0,0.0,0.0,0.0,0.0,0.0,0.0,0.0,0.0,0.0,0.0,0.0,0.0,0.0,0.0,0.0,0.0,0.0,0.0,0.0,0.0,0.0,0.0,0.0,0.0,0.0,0.0,0.0,0.0,0.0,0.0,0.0,0.0,-4.8178,-4.8994,-4.9784,-5.0782,-5.0898,-5.0898,-5.0898,-4.9359,-4.8043,-4.7154,-4.4717,0.0,0.0,0.0,0.0,0.0,0.0,0.0,0.0,0.0,0.0,0.0,0.0,0.0,0.0,0.0,0.0,0.0,0.0,0.0,0.0,0.0,0.0,0.0,0.0,0.0,0.0,0.0,0.0,0.0,0.0,0.0,0.0,0.0,0.0,0.0,0.0,0.0,0.0,0.0,0.0,0.0,0.0,0.0,0.0,0.0,0.0,0.0,0.0,0.0,0.0,0.0,0.0,0.0,0.0,0.0,0.0,0.0,0.0,0.0,0.0,-5.4065,0.0,0.0,0.0,0.0,0.0,0.0,0.0,0.0,0.0,0.0,0.0,0.0,0.0,0.0,0.0,0.0,0.0,0.0,0.0,0.0,0.0,0.0,0.0,0.0,0.0,0.0,0.0,0.0,0.0,0.0,0.0,0.0,0.0,0.0,0.0,0.0,0.0,0.0,0.0,0.0,-4.8255,-4.9163,-5.0155,-5.137,-5.113,-5.1053,-5.1486,-4.9977,-4.8662,-4.7773,-4.5684,0.0,0.0,0.0,0.0,0.0,0.0,0.0,0.0,0.0,0.0,0.0,0.0,0.0,0.0,0.0,0.0,0.0,0.0,0.0,0.0,0.0,0.0,0.0,0.0,0.0,0.0,0.0,0.0,0.0,0.0,0.0,0.0,0.0,0.0,0.0,0.0,0.0,0.0,0.0,0.0,0.0,0.0,0.0,0.0,0.0,0.0,0.0,0.0,0.0,0.0,0.0,0.0,0.0,-6.1249,-6.1249,-6.1249,-6.1249,-6.1249,-6.1096,-5.8345,-5.674,-5.6014,-5.5288,0.0,0.0,0.0,0.0,0.0,0.0,0.0,0.0,0.0,0.0,0.0,0.0,0.0,0.0,0.0,0.0,0.0,0.0,0.0,0.0,0.0,0.0,0.0,0.0,-5.3498,-5.2732,0.0,0.0,0.0,0.0,0.0,0.0,0.0,0.0,0.0,0.0,0.0,0.0,-4.854,-4.954,-5.0688,-5.2082,-5.1563,-5.1409,-5.2152,-5.0674,-4.932,-4.8469,-4.6774,-4.5142,0.0,0.0,0.0,0.0,0.0,0.0,0.0,0.0,0.0,0.0,0.0,0.0,0.0,0.0,0.0,0.0,0.0,0.0,0.0,0.0,0.0,0.0,0.0,0.0,0.0,0.0,0.0,0.0,0.0,0.0,0.0,0.0,-5.1594,-5.2396,0.0,0.0,0.0,0.0,0.0,0.0,0.0,0.0,0.0,0.0,0.0,0.0,0.0,-6.0714,-6.2395,-6.2395,-6.3197,-6.4726,-6.4726,-6.4726,-6.4726,-6.4726,-6.4726,-6.4726,-6.4267,0.0,-5.8599,-5.8484,0.0,0.0,0.0,0.0,0.0,0.0,0.0,0.0,0.0,0.0,0.0,0.0,0.0,0.0,0.0,0.0,0.0,0.0,0.0,0.0,0.0,0.0,-5.3086,-5.3404,-5.3498,-5.3382,0.0,-5.1672,-5.0185,-4.8565,-4.8283,0.0,0.0,0.0,0.0,0.0,0.0,0.0,-4.9504,-5.0988,-5.2051,-5.2276,-5.2129,-5.2074,-5.219,-5.0674,-4.932,-4.8469,-4.6813,-4.5459,-4.4478,-4.286,0.0,0.0,0.0,0.0,0.0,0.0,0.0,0.0,0.0,0.0,0.0,0.0,0.0,0.0,0.0,0.0,0.0,0.0,0.0,0.0,0.0,0.0,0.0,0.0,0.0,0.0,0.0,0.0,0.0,-5.1785,-5.2575,-5.3416,-5.3951,-5.4448,0.0,0.0,0.0,0.0,0.0,0.0,0.0,0.0,0.0,-6.1249,-6.251,-6.4,-6.5681,-6.5719,-6.656,-6.8203,-6.8203,-6.8203,-6.8203,-6.8203,-6.8203,-6.8165,-6.7744,-6.6216,-6.3885,-6.2013,-6.0523,-5.9262,0.0,0.0,0.0,0.0,-5.5899,-5.6167,-5.5785,-5.5938,0.0,-5.5212,0.0,0.0,0.0,0.0,0.0,0.0,0.0,0.0,0.0,0.0,-5.5624,-5.6227,-5.636,-5.6089,-5.5122,-5.4318,-5.3011,0.0,-4.9814,-4.9442,-4.8094,0.0,0.0,0.0,0.0,-4.955,-5.0409,-5.1611,-5.2715,-5.3608,-5.3275,-5.2988,-5.2925,-5.1796,-5.0326,-4.8508,-4.7695,-4.6496,-4.4671,-4.3401,-4.2512,0.0,0.0,0.0,0.0,0.0,0.0,0.0,0.0,0.0,0.0,0.0,0.0,0.0,0.0,0.0,0.0,0.0,0.0,0.0,0.0,0.0,0.0,0.0,0.0,0.0,0.0,0.0,0.0,-5.3072,-5.3951,-5.525,-5.5938,-5.6664,0.0,0.0,0.0,0.0,0.0,0.0,-6.1631,-6.3274,-6.4191,-6.4191,-6.5796,-6.74,-6.8852,-6.9082,-6.9922,-7.1374,-7.1374,-7.1374,-7.1374,-7.1183,-7.1068,-7.103,-7.0419,-6.9693,-6.8585,-6.5261,-6.3236,-6.2128,-6.0637,-5.995,-5.9644,-5.8842,-5.8651,-5.8803,-5.8612,-5.8651,-5.8727,-5.7848,-5.7428,-5.6969,-5.5517,0.0,0.0,0.0,0.0,-5.5466,-5.6298,-5.7014,-5.7709,-5.8412,-5.8595,-5.8255,-5.694,-5.667,-5.5664,0.0,-5.1556,-5.1022,-4.932,0.0,0.0,0.0,0.0,-5.0461,-5.1315,-5.2382,-5.3494,-5.4708,-5.4266,-5.3778,-5.3506,-5.2693,-5.1215,-4.8894,-4.8508,-4.7463,-4.5336,-4.4214,-4.3208,-4.2357,0.0,0.0,0.0,0.0,0.0,0.0,0.0,0.0,0.0,0.0,0.0,0.0,0.0,0.0,0.0,0.0,0.0,0.0,0.0,0.0,0.0,0.0,0.0,0.0,0.0,0.0,0.0,0.0,0.0,-5.8574,-5.888,0.0,0.0,0.0,0.0,-6.2586,-6.2701,-6.3427,-6.507,-6.6751,-6.763,-6.763,-6.9273,-7.061,-7.1489,-7.2329,-7.317,-7.401,-7.401,-7.401,-7.3972,-7.3208,-7.2864,-7.2864,-7.2826,-7.2291,-7.1259,-6.7897,-6.5566,-6.3976,-6.3083,-6.2204,-6.1363,-6.0561,-6.0752,-6.1287,-6.0523,-6.0752,-6.1287,-6.0446,-5.9644,-5.8842,-5.7963,-5.7695,0.0,0.0,-5.7862,-5.7949,-5.8132,-5.8256,-5.8384,-5.8472,-5.8567,-5.8574,-5.8497,-5.8449,-5.7443,0.0,-5.3382,-5.2801,-5.1053,0.0,-5.0579,-4.9773,-5.0455,-5.1347,-5.2234,-5.3747,-5.482,-5.4893,-5.4785,-5.4397,-5.3583,-5.2693,-5.1486,-4.9745,-4.8856,-4.7966,-4.6999,-4.5413,-4.413,-4.3247,-4.2396,0.0,0.0,0.0,0.0,0.0,0.0,0.0,0.0,0.0,0.0,0.0,0.0,0.0,0.0,0.0,0.0,0.0,0.0,0.0,0.0,0.0,0.0,0.0,0.0,0.0,0.0,0.0,0.0,-6.1249,-6.1554,0.0,-6.3465,-6.4114,-6.4917,-6.6025,-6.6636,-6.7439,-6.8547,-7.0266,-7.1183,-7.1183,-7.2788,-7.4087,-7.4889,-7.5233,-7.5806,-7.6647,-7.6647,-7.6647,-7.6647,-7.6341,-7.5921,-7.5348,-7.4813,-7.4087,-7.317,-7.145,-6.9425,-6.7286,-6.591,-6.5146,-6.4764,-6.3923,-6.3809,-6.4,-6.3732,-6.3809,-6.3923,-6.3121,-6.186,-6.0676,-6.037,-5.9911,-5.9532,-5.9664,-6.0125,-6.0597,-6.0712,-6.1224,-6.1702,-6.1754,-6.1389,-6.0886,-6.0344,-5.9803,-5.8913,-5.7134,-5.5896,-5.4589,-5.2918,-5.2663,-5.2577,-5.2316,-5.2576,-5.31,-5.3974,-5.4602,-5.5158,-5.5683,-5.5699,-5.5087,-5.3622,-5.3227,-5.2066,-4.9823,-4.8894,-4.8005,-4.7154,-4.549,-4.4439,-4.413,-4.2744,-4.1854,0.0,0.0,0.0,0.0,0.0,0.0,0.0,0.0,0.0,0.0,0.0,0.0,0.0,0.0,0.0,0.0,0.0,0.0,0.0,0.0,0.0,0.0,0.0,0.0,0.0,0.0,-6.1745,-6.4305,-6.484,-6.5681,-6.7362,-6.805,-6.8852,-6.9922,-7.0572,-7.1259,-7.21,-7.3476,-7.424,-7.424,-7.5615,-7.6609,-7.7144,-7.7411,-7.787,-7.8443,-7.8443,-7.8443,-7.8443,-7.8137,-7.7678,-7.7105,-7.6265,-7.5577,-7.4966,-7.3858,-7.2406,-7.0724,-6.9043,-6.8203,-6.7859,-6.7018,-6.6674,-6.6636,-6.633,-6.6254,-6.6063,-6.4955,-6.3809,-6.2777,-6.2204,-6.1669,-6.1277,-6.1401,-6.1837,-6.2349,-6.2423,-6.2991,-6.3483,-6.3548,-6.3176,-6.2559,-6.1727,-6.1118,-6.0422,-5.9261,-5.7869,-5.6369,-5.4699,-5.446,-5.4304,-5.3765,-5.3954,-5.4362,-5.4925,-5.5242,-5.5644,-5.617,-5.6187,-5.5498,-5.3685,-5.3506,-5.2531,-5.0248,-4.9049,-4.8121,-4.754,-4.5916,-4.4871,-4.4594,-4.3169,-4.2434,-4.2434,0.0,0.0,0.0,0.0,0.0,0.0,0.0,0.0,0.0,0.0,0.0,0.0,0.0,0.0,0.0,0.0,0.0,0.0,0.0,0.0,0.0,0.0,0.0,-6.1707,-6.3197,-6.5276,-6.7744,-6.8814,-6.9999,-7.168,-7.1871,-7.2559,-7.424,-7.4393,-7.4775,-7.5615,-7.6418,-7.6876,-7.6876,-7.7717,-7.8137,-7.8137,-7.8939,-7.9378,-7.934,-7.934,-7.934,-7.9302,-7.8443,-7.8061,-7.7984,-7.7144,-7.6761,-7.657,-7.4966,-7.4278,-7.4087,-7.2406,-7.1221,-7.0381,-6.9616,-6.9311,-6.9158,-6.8317,-6.7973,-6.7668,-6.6063,-6.549,-6.5184,-6.3541,-6.3006,-6.3021,-6.3068,-6.3138,-6.3205,-6.3246,-6.3397,-6.3504,-6.356,-6.3626,-6.3408,-6.2646,-6.2472,-6.1969,-6.0306,-5.93,-5.8139,-5.6399,-5.6203,-5.5714,-5.4008,-5.4498,0.0,-5.5087,-5.5786,-5.6278,-5.6206,-5.6202,-5.5505,-5.3762,-5.353,-5.2763,-5.1014,-4.932,-4.8392,-4.8392,-4.6728,-4.5413,-4.4632,-4.3788,-4.3324,-4.3285,0.0,0.0,0.0,0.0,0.0,0.0,0.0,0.0,0.0,0.0,0.0,0.0,0.0,0.0,0.0,0.0,0.0,0.0,0.0,0.0,0.0,0.0,-6.4344,-6.4344,-6.5796,-6.805,-7.1221,-7.1794,-7.2826,-7.5119,-7.5883,-7.6723,-7.7831,-7.8443,-7.8863,-7.9092,-7.9933,-8.0391,-8.0391,-8.1194,-8.1347,-8.0773,-8.1003,-8.0812,-8.0162,-8.0162,-8.0162,-8.0162,-7.9933,-7.9474,-7.8939,-7.8672,-7.787,-7.6647,-7.6188,-7.5653,-7.4966,-7.3284,-7.2482,-7.2253,-7.2024,-7.1565,-7.0954,-7.0724,-6.9846,-6.8776,-6.8317,-6.7744,-6.7018,-6.5987,-6.5681,-6.5543,-6.4982,-6.4862,-6.4931,-6.5037,-6.5166,-6.5288,-6.5296,-6.4938,-6.45,-6.4319,-6.3787,-6.3013,-6.193,-6.1505,-6.0624,-5.8299,-5.7899,-5.7823,-5.7419,-5.7053,0.0,-5.6874,-5.6524,-5.6278,-5.6206,-5.6202,-5.5505,-5.3762,-5.353,-5.2763,-5.1014,-4.932,-4.8392,-4.8392,-4.6728,-4.5413,-4.4632,-4.4362,-4.3943,0.0,0.0,0.0,0.0,0.0,0.0,0.0,0.0,0.0,0.0,0.0,0.0,0.0,0.0,0.0,0.0,0.0,0.0,0.0,0.0,0.0,0.0,-6.5337,-6.7477,-6.889,-6.9922,-7.168,-7.4736,-7.5424,-7.6456,-7.8634,-7.9283,-7.9933,-8.0773,-8.127,-8.1538,-8.1538,-8.2034,-8.2302,-8.2302,-8.276,-8.276,-8.2302,-8.1958,-8.1538,-8.1041,-8.0659,-8.0506,-8.0506,-8.0506,-8.0238,-7.978,-7.9454,-7.8519,-7.722,-7.6838,-7.6227,0.0,0.0,0.0,0.0,0.0,-7.275,-7.168,-7.168,-7.0801,-6.9655,-6.9311,-6.8852,-6.8279,-6.7477,-6.698,-6.6598,-6.6124,-6.5829,-6.5608,-6.5701,-6.5859,-6.5984,-6.599,-6.5688,-6.528,-6.5054,-6.4609,-6.399,-6.3091,-6.2665,0.0,-6.0458,-5.9624,-5.9039,-5.8738,-5.835,-5.8069,-5.8097,-5.7373,-5.6822,-5.6749,-5.6435,-5.5622,-5.4227,-5.3723,0.0,0.0,0.0,-4.8624,-4.7889,-4.6542,0.0,0.0,0.0,-4.4833,-4.433,0.0,0.0,0.0,-4.3092,-4.255,0.0,0.0,0.0,0.0,0.0,0.0,0.0,0.0,0.0,0.0,0.0,0.0,0.0,0.0,0.0,0.0,-6.805,-7.0916,-7.4163,-7.4813,-7.5768,-7.8022,-7.9054,-8.0238,-8.192,-8.2073,-8.2416,-8.3219,-8.3257,-8.3257,-8.3257,0.0,0.0,0.0,0.0,-8.3219,-8.3142,-8.2455,-8.1996,-8.1805,-8.1003,-8.0582,-8.0506,-8.0506,-8.0506,-8.0468,-7.9742,-7.8939,-7.8099,-7.722,-7.6303,-7.5518,-7.5518,-7.5518,-7.5386,-7.4622,-7.3284,-7.1849,-7.1849,0.0,0.0,-6.9578,-6.9349,-6.9158,-6.8317,-6.7553,-6.6942,-6.6751,-6.6245,-6.5709,-6.5632,-6.5755,-6.5935,-6.5978,-6.6001,-6.5843,-6.5275,-6.5141,-6.487,-6.4029,-6.3207,-6.2627,-6.2433,-6.1077,-5.9788,-5.9022,-5.894,-5.8947,-5.8954,-5.8252,-5.7683,-5.7525,0.0,0.0,-5.4886,-5.3986,-5.3111,-5.2268,-5.0635,-4.8933,-4.7154,-4.6348,-4.5884,-4.5807,-4.5807,-4.5807,-4.5807,-4.5807,-4.5807,-4.5768,-4.4175,-4.344,0.0,0.0,0.0,0.0,0.0,0.0,0.0,0.0,0.0,0.0,0.0,0.0,0.0,0.0,0.0,-6.805,-7.1145,-7.4201,-7.6876,-7.8443,-7.9474,-7.9971,-8.0773,-8.1958,-8.3639,-8.383,-8.4136,-8.4976,-8.5015,-8.5015,-8.5015,-8.5015,-8.5015,-8.5015,-8.5015,-8.4709,-8.4059,-8.3907,-8.3142,-8.1805,0.0,0.0,-8.0506,-8.0506,-8.0506,-8.0506,-8.0353,-7.978,-7.8978,-7.8099,-7.6876,-7.5518,-7.5518,-7.5518,-7.548,-7.531,-7.4201,-7.275,-7.275,-7.1718,-7.0381,-7.0228,-7.019,-7.0037,-6.9196,-6.8852,0.0,-6.7095,-6.6681,-6.649,-6.5786,-6.5755,-6.5935,-6.5978,-6.6001,-6.5997,-6.5972,-6.5953,-6.5721,-6.4909,-6.4599,-6.4058,-6.2627,-6.1553,-6.0836,-6.0717,-6.0187,-5.9809,-5.984,-5.91,-5.8298,-5.7564,-5.7295,-5.6513,-5.4924,-5.3986,-5.3111,-5.2268,-5.0635,-4.8933,-4.7154,-4.6922,-4.6542,-4.5807,-4.5807,-4.5807,-4.5807,-4.5807,-4.5807,-4.5768,-4.4794,-4.4362,0.0,0.0,0.0,0.0,0.0,0.0,0.0,0.0,0.0,0.0,0.0,-6.1669,0.0,0.0,-6.8279,-7.1221,-7.3476,-7.5883,-7.8825,-8.0353,-8.1461,-8.2302,-8.2798,-8.3524,-8.4785,-8.49,-8.5053,-8.5473,-8.5511,-8.5511,-8.5511,-8.5511,-8.5511,-8.5511,-8.5511,-8.532,-8.49,-8.448,-8.3639,-8.2378,-8.1996,-8.1347,-8.0506,-8.0506,-8.0506,-8.0506,-8.0506,-7.978,-7.8557,-7.7258,-7.6265,-7.5518,-7.5518,-7.5518,-7.5518,-7.5518,-7.4431,-7.2979,-7.2979,-7.1871,-7.0419,-7.0419,-7.0419,-7.0342,-6.9922,-6.9502,-6.8929,-6.7668,-6.7102,-6.672,-6.5838,-6.5755,-6.5935,-6.5978,-6.6001,-6.6036,-6.6165,-6.6185,-6.6069,-6.5682,-6.5257,-6.4715,-6.3864,-6.2627,-6.163,-6.1223,-6.0842,-6.0614,-6.0701,-5.9948,-5.9063,-5.8195,-5.7684,-5.6869,-5.5504,-5.4249,-5.3111,-5.2268,-5.0635,-4.932,-4.843,-4.7966,-4.754,-4.7115,-4.7115,-4.6883,-4.6464,-4.6464,-4.6232,-4.5807,-4.5374,-4.5181,0.0,0.0,0.0,0.0,0.0,0.0,0.0,0.0,-6.0102,-6.0943,-6.2471,-6.4382,-6.6751,-6.8699,-7.0916,-7.3972,-7.5462,-7.7296,-8.0315,-8.1499,-8.2646,-8.4327,-8.4518,-8.4785,-8.5435,-8.5511,-8.5511,-8.5511,-8.5511,-8.5511,-8.5511,-8.5511,-8.5511,-8.5511,-8.5511,-8.5511,-8.5511,-8.4862,-8.4021,-8.299,-8.234,-8.1499,-8.0506,-8.0506,-8.0506,-8.0506,-8.0315,-7.9398,-7.787,-7.6341,-7.5615,-7.5518,-7.5518,-7.5518,-7.5518,-7.5518,-7.4431,-7.2979,-7.2979,-7.1871,-7.0419,-7.0419,-7.0419,-7.0419,-7.0419,-6.996,-6.9234,-6.8394,-6.7661,-6.6936,-6.6054,-6.5857,-6.591,-6.5978,-6.6001,-6.6036,-6.6165,-6.6185,-6.6185,-6.6185,-6.5682,-6.518,-6.5025,-6.3826,-6.2549,-6.1505,-6.1271,-6.1238,-6.1281,-6.0669,-5.9894,-5.9041,-5.8148,-5.7138,-5.5857,-5.4542,-5.3304,-5.2268,-5.0945,-5.0055,-4.9707,-4.9049,-4.8585,-4.8392,-4.8392,-4.8043,-4.7347,-4.7347,-4.6999,-4.631,-4.6116,-4.5962,-5.5403,-5.5938,-5.6473,-5.6587,-5.7734,-5.9071,0.0,0.0,-6.2739,-6.3594,-6.5108,-6.6827,-6.8585,-7.0916,-7.317,-7.5042,-7.7353,-7.9513,-8.1385,-8.234,-8.3486,-8.5167,-8.5358,-8.5397,-8.5511,-8.5511,-8.5511,-8.5511,-8.5511,-8.5511,-8.5511,-8.5511,-8.5511,-8.5511,-8.5511,-8.5511,-8.5511,-8.5397,-8.4556,-8.299,-8.2913,-8.2034,-8.0506,-8.0506,-8.0506,-8.0468,-7.9742,-7.8901,-7.7946,-7.6953,-7.615,-7.5518,-7.5518,-7.5518,-7.5518,-7.5518,-7.4431,-7.2979,-7.2979,-7.1871,-7.0419,-7.0419,-7.0419,-7.0419,-7.0419,-7.0342,-7.0113,-6.9273,-6.8495,-6.7691,-6.6974,-6.6277,-6.5859,-6.5967,-6.6001,-6.6036,-6.6165,-6.6185,-6.6185,-6.6185,-6.6147,-6.5837,-6.5102,-6.4831,-6.4135,-6.2511,-6.1658,-6.1191,-6.1191,-6.1195,-6.0816,-5.9882,-5.9022,-5.7572,-5.5122,-5.4774,-5.3962,-5.2306,-5.2036,-5.1254,-4.9745,-4.9629,-4.9204,-4.843,-4.8392,-4.8353,-4.8237,-4.8237,-4.8198,-4.8082,-4.7308,-4.6542,-5.5976,-5.632,0.0,0.0,-5.9338,-6.0332,-6.218,-6.3503,-6.4611,-6.549,-6.7362,-6.9234,-7.0419,-7.275,-7.5004,0.0,-7.8252,-7.9895,-8.1576,-8.2073,-8.2722,-8.3907,-8.4059,-8.4441,-8.5397,-8.5511,-8.5511,-8.5511,-8.5511,-8.5511,-8.5511,-8.5511,-8.5511,-8.5511,-8.5511,-8.5511,-8.5511,-8.5511,-8.4671,-8.299,-8.299,-8.2111,-8.0506,-8.0506,-8.0506,-8.043,-7.9092,-7.8328,-7.7908,-7.6532,-7.5806,-7.5518,-7.5518,-7.5518,-7.5518,-7.5518,-7.4431,-7.2979,-7.2979,-7.1871,-7.0419,-7.0419,-7.0419,-7.0419,-7.0419,-7.0419,-7.0228,-6.9425,-6.8992,-6.8441,-6.7184,-6.6657,-6.6396,-6.5986,-6.5955,-6.6036,-6.6112,-6.6165,-6.6185,-6.6185,-6.6185,-6.6108,-6.576,-6.5296,-6.4754,-6.4019,-6.2762,-6.1735,-6.1259,-6.1182,-6.067,-5.9297,-5.8398,-5.7228,-5.5625,-5.5084,-5.4271,-5.3033,-5.25,-5.1641,-5.0434,-5.0395,-5.0241,-4.9861,-4.9861,-4.9629,-4.9165,-4.9165,-4.8894,-4.8392,-4.8043,-4.7386,-5.6434,0.0,0.0,-6.0217,-6.1249,-6.2319,-6.442,-6.5681,-6.6636,-6.7247,-6.9005,-7.0763,-7.1833,-7.3743,-7.5768,-7.7678,-7.871,-7.9895,-8.1576,-8.1805,-8.2111,-8.2875,-8.299,-8.3486,-8.4709,-8.5015,-8.5282,-8.5473,-8.5511,-8.5511,-8.5511,-8.5511,-8.5511,-8.5511,-8.5511,-8.5511,-8.5511,-8.5511,-8.4671,-8.299,-8.299,-8.2111,-8.0506,-8.0506,-8.0391,-8.0086,-7.8634,-7.787,-7.7526,-7.6074,-7.5518,-7.5518,-7.5518,-7.5518,-7.5518,-7.5518,-7.4431,-7.2979,-7.2979,-7.1871,-7.0419,-7.0419,-7.0419,-7.0419,-7.0419,-7.0402,-7.0271,-6.9693,-6.9381,-6.8954,-6.7776,-6.7228,-6.6817,-6.6295,-6.6073,-6.6024,-6.6091,-6.6144,-6.6185,-6.6185,-6.6185,-6.6185,-6.6185,-6.5721,-6.5257,-6.5025,-6.371,-6.2443,-6.1628,-6.1291,-6.0538,-5.9106,-5.8178,-5.7327,-5.6429,-5.5586,-5.4774,-5.3923,-5.3033,-5.2182,-5.1293,-5.1014,-5.0898,-5.0898,-5.0898,-5.0589,-5.0016,-5.0016,-4.9707,-4.9088,-4.8856,-4.843,0.0,0.0,-6.0485,-6.1363,-6.3427,-6.549,-6.6407,-6.7897,-6.9082,-6.912,-6.9807,-7.0916,-7.2635,-7.3667,-7.508,-7.7602,-7.871,-7.9895,-8.1576,-8.1805,-8.2111,-8.2875,-8.299,-8.3028,0.0,-8.383,-8.4671,-8.5435,-8.5511,-8.5511,-8.5511,-8.5511,-8.5511,-8.5511,-8.5511,-8.5511,-8.5511,-8.5511,-8.4671,-8.299,-8.299,-8.2111,-8.0506,-8.0506,-8.0047,-7.9302,-7.8404,-7.7526,-7.6685,-7.5844,-7.5518,-7.5518,-7.5518,-7.5518,-7.5518,-7.5518,-7.4431,-7.2979,-7.2979,-7.1871,-7.0419,-7.0419,-7.0419,-7.0419,-7.0419,-7.0353,-7.0302,-7.0348,-6.9704,-6.9039,-6.9199,-6.808,-6.6915,-6.7051,-6.6523,-6.6024,-6.6091,-6.6144,-6.6185,-6.6185,-6.6185,-6.6185,-6.6185,-6.6185,-6.5915,-6.5102,-6.4261,-6.3371,-6.2472,-6.1621,-6.077,-5.9957,-5.9068,-5.8217,-5.7318,-5.6467,-5.5625,-5.4813,-5.3923,-5.3072,-5.219,-5.137,-5.0898,-5.0898,-5.0898,-5.0898,-5.0859,-5.0859,-5.0859,-5.0821,-5.0016,-4.9668,0.0,0.0,-6.1669,-6.3618,-6.5184,-6.6636,-6.805,-6.8814,-6.9349,-6.9884,-7.0228,-7.0763,-7.1909,-7.2826,-7.4049,-7.5997,-7.7526,-7.8825,-7.9971,-8.0582,-8.1041,-8.1308,-8.1347,0.0,0.0,0.0,0.0,-8.4632,-8.4709,-8.4938,-8.5473,-8.5511,-8.5511,-8.5511,-8.5511,-8.5511,-8.5511,-8.5511,-8.4671,-8.299,-8.1881,-8.1041,-8.0468,-7.9933,-7.9569,-7.9225,-7.7755,-7.6953,-7.6647,-7.5806,-7.5518,-7.5518,-7.5518,-7.5518,-7.5518,-7.5518,-7.4431,-7.2979,-7.2979,-7.1871,-7.0419,-7.0419,-7.0419,-7.0402,-7.0336,-7.0302,-7.0307,-7.0289,-7.0078,-6.973,-6.9208,-6.8801,-6.8233,-6.7222,-6.6859,-6.66,-6.6129,-6.6091,-6.6144,-6.6175,-6.6185,-6.6185,-6.6185,-6.6185,-6.5915,-6.5102,-6.3787,-6.2511,-6.166,-6.1273,-6.0809,-5.9996,-5.9106,-5.8255,-5.7357,-5.6506,-5.5664,-5.4851,-5.4503,-5.3691,-5.2268,-5.1912,-5.1486,-5.0898,-5.0898,-5.0898,-5.0898,-5.0898,-5.0898,-5.0898,-5.0627,-5.0202,0.0,-6.186,-6.3503,-6.5719,-6.6942,-6.7935,-6.9311,-6.9425,-6.9349,-6.9846,-6.9731,-6.9769,-7.0648,-7.1489,-7.2635,-7.4316,-7.5997,-7.7526,-7.8672,-7.9551,-8.0162,-8.0468,-8.0506,-8.0735,0.0,0.0,0.0,-8.4174,-8.4289,-8.4632,-8.5473,-8.5511,-8.5511,-8.5511,-8.5511,-8.5511,-8.5511,-8.5511,-8.4671,-8.299,-8.1308,-8.0506,-8.0468,-7.9665,-7.9149,-7.8748,-7.7335,-7.6532,-7.6227,-7.5692,-7.5518,-7.5518,-7.5518,-7.5518,-7.548,-7.5157,-7.4163,-7.2979,-7.2979,-7.1871,-7.0419,-7.0419,-7.0419,-7.0402,-7.0302,-7.0307,-7.0255,-7.0203,-7.0203,-7.0085,-6.9582,-6.9371,-6.9039,-6.8033,-6.7445,-6.6962,-6.6557,-6.629,-6.6112,-6.6175,-6.6185,-6.6185,-6.6185,-6.6185,-6.5915,-6.5102,-6.3787,-6.2549,-6.1698,-6.1311,-6.0886,-6.0383,-5.93,-5.8372,-5.783,-5.667,-5.578,-5.5277,-5.4967,-5.431,-5.3188,-5.2539,-5.195,-5.137,-5.1053,-5.0898,-5.0898,-5.0898,-5.0898,-5.0898,-5.0898,-5.0627,-6.1554,-6.3656,-6.5987,-6.7553,-6.8661,-6.9502,-7.019,-6.9731,-6.912,-6.9082,-6.8356,-6.7973,0.0,0.0,-7.0708,-7.252,-7.424,-7.5959,-7.7622,-7.8654,-7.9551,0.0,0.0,0.0,0.0,0.0,0.0,-8.4059,0.0,-8.4594,-8.5473,-8.5511,-8.5511,-8.5511,-8.5511,-8.5511,-8.5511,-8.5397,-8.4556,-8.2913,-8.127,-8.0468,-8.0391,-7.9589,-7.8748,-7.7908,-7.7029,-7.6188,-7.5518,-7.5518,-7.5518,-7.5518,-7.5518,-7.5462,-7.531,-7.4507,-7.3667,-7.2941,-7.2941,-7.1833,-7.0419,-7.0419,-7.0402,-7.0386,-7.0302,-7.0255,-7.0185,-7.0167,-7.0114,-7.0039,-7.0217,-6.9764,-6.9266,-6.9359,-6.8238,-6.718,-6.7278,-6.6664,-6.6112,-6.6175,-6.6185,-6.6185,-6.6185,-6.6185,-6.5953,-6.518,-6.43,-6.341,-6.2511,-6.1621,-6.1118,-6.1118,-5.9618,-5.8613,-5.8613,-5.7018,-5.6012,-5.6012,-5.5277,-5.4851,-5.4813,-5.3188,-5.2306,-5.219,-5.1409,-5.0937,-5.0898,-5.0898,-5.0898,-5.0898,-5.0898,-5.0898,-6.4038,-6.6292,-6.8317,-6.8738,-6.996,-7.0801,-6.9731,-6.8852,-6.805,-6.7477,-6.6178,-6.5375,0.0,0.0,0.0,-6.9633,-7.1908,0.0,-7.5684,-7.7684,0.0,-7.9284,0.0,-8.0314,-8.043,-8.0965,0.0,0.0,-8.3333,-8.3983,-8.5435,-8.5511,-8.5511,-8.5511,-8.5511,-8.5511,-8.5511,-8.425,-8.3104,-8.2073,-8.1003,-8.02,-7.9589,-7.871,-7.787,-7.6991,-7.615,-7.5692,-7.5518,-7.5518,-7.5518,-7.5518,-7.5518,-7.508,-7.4507,-7.4278,-7.3284,-7.2024,-7.2024,-7.1336,-7.0419,-7.0419,-7.0369,-7.0302,-7.0255,-7.0149,-7.0021,-6.9985,-7.0004,-7.0021,-7.0058,-7.0047,-6.9895,-6.9381,-6.8578,-6.7763,-6.7257,-6.6572,-6.6047,-6.6112,-6.6155,-6.6185,-6.6185,-6.6185,-6.6147,-6.5915,-6.4629,-6.3418,-6.2567,-6.1715,-6.1164,-6.1164,-5.9663,-5.8648,-5.8613,-5.7018,-5.6012,-5.6012,-5.5818,-5.5432,-5.4813,-5.4387,-5.3536,-5.2229,-5.1989,-5.1563,-5.0898,-5.0898,-5.0898,-5.0898,-5.0898,-5.0898,-6.6598,-6.8661,-7.0304,-7.0255,-7.0675,-7.0637,-6.8946,-6.7305,-6.5932,-6.513,-6.3604,0.0,-6.3032,0.0,0.0,0.0,0.0,0.0,-7.3819,-7.6237,-7.8064,0.0,-7.9662,0.0,-8.0808,-8.1228,-8.203,0.0,-8.3524,-8.4136,-8.5435,-8.5511,-8.5511,-8.5511,-8.5511,-8.532,-8.4976,-8.3639,-8.2607,-8.1805,-8.0926,-8.0086,-7.9263,-7.8404,-7.7526,-7.6647,0.0,-7.5518,-7.5518,-7.5518,-7.5518,-7.548,-7.508,-7.4622,-7.4125,-7.3361,-7.2503,-7.1591,-7.1209,-7.0756,-7.0302,-7.0336,-7.0319,-7.0289,-7.0167,-7.0039,-6.9984,-6.9929,-6.9929,-6.9948,-6.9984,-7.0111,-7.0175,-6.9813,-6.8939,-6.8091,-6.7743,-6.6805,-6.6036,-6.6123,-6.6165,-6.6185,-6.6185,-6.6185,-6.6195,-6.6254,-6.4774,-6.3571,-6.315,-6.2009,-6.1255,-6.1255,-5.9714,-5.869,-5.8639,-5.7044,-5.6029,-5.6012,-5.6012,-5.5818,-5.5354,-5.5006,-5.4155,-5.2801,-5.2384,-5.1757,-5.0898,-5.0898,-5.0898,-5.0898,-5.0898,-5.0898,-6.8935,-7.0615,-7.1935,-7.1658,-7.0993,-6.9925,-6.7973,-6.5558,-6.3464,-6.2398,0.0,-5.9695,-5.9695,-6.1066,-6.2535,-6.3562,0.0,-6.9596,-7.2146,-7.4638,-7.6807,-7.8481,-7.947,-8.0345,-8.1316,-8.1469,-8.2192,-8.3773,-8.4226,-8.4708,-8.5433,-8.5471,-8.5471,-8.5471,-8.5357,-8.4918,-8.4116,-8.3257,-8.2416,-8.1614,-8.0735,-7.9895,-7.9092,-7.8213,-7.7373,-7.6494,-7.5768,0.0,-7.5483,-7.5483,-7.5465,-7.5351,-7.4511,-7.4091,-7.3823,-7.2219,-7.1557,-7.1298,-7.0535,-7.0255,-7.0203,-7.0272,-7.0251,-7.0217,-7.0058,-7.0003,-6.9966,-6.9929,-6.9891,-6.991,-6.9966,-7.0096,-7.0203,-7.0336,-6.9237,-6.8215,-6.8331,-6.714,-6.6047,-6.6165,-6.6185,-6.6185,-6.6185,-6.6185,-6.6205,-6.6303,-6.484,-6.3744,-6.3867,-6.2377,-6.1306,-6.1306,-5.9832,-5.8847,-5.8729,-5.721,-5.6217,-5.602,-5.6012,-5.6012,-5.6012,-5.5316,-5.4542,-5.3691,-5.2801,-5.195,-5.1053,-5.0975,-5.0898,-5.0898,-5.0898,-5.0898,-6.995,-7.1761,-7.319,-7.1763,-7.1307,-7.0393,-6.7347,-6.472,0.0,0.0,-5.8248,-5.7068,-5.7068,-5.838,-6.0197,-6.2401,0.0,0.0,0.0,0.0,-7.579,0.0,0.0,0.0,0.0,0.0,0.0,0.0,0.0,-8.5093,-8.5224,-8.5224,-8.5224,-8.5224,-8.4681,-8.3959,-8.3158,-8.2378,-8.1576,-8.0735,-7.9895,-7.9054,-7.8213,-7.7335,-7.6494,-7.5692,-7.545,0.0,-7.5338,-7.5246,-7.5247,-7.5189,-7.4275,-7.3551,-7.2866,-7.1837,-7.102,-7.0393,-7.0279,-7.0203,-7.0185,-7.0203,-7.0149,-7.0039,-7.0021,-6.9948,-6.991,-6.991,-6.9891,-6.991,-6.991,-7.0004,-7.0058,-7.0203,-6.906,-6.8013,-6.8177,-6.7064,-6.6047,-6.6165,-6.6185,-6.6185,-6.6185,-6.6185,-6.6205,-6.6303,-6.4859,-6.3817,-6.3875,-6.2362,-6.1306,-6.1306,-6.0422,-5.9553,-5.8769,-5.7768,-5.6853,-5.614,-5.6029,-5.6012,-5.6012,-5.5857,-5.5393,-5.4581,-5.373,-5.284,-5.195,-5.1254,-5.0898,-5.0898,-5.0898,-5.0898,-7.1269,-7.3001,-7.4163,-7.2395,-7.0988,-6.9145,-6.5711,0.0,0.0,0.0,-5.5493,-5.4316,-5.4316,-5.5654,0.0,-5.9495,0.0,0.0,0.0,0.0,0.0,0.0,0.0,0.0,0.0,0.0,0.0,0.0,0.0,-8.5089,-8.5198,-8.5219,-8.5219,-8.5219,-8.4462,-8.3666,-8.279,-8.1992,-8.1193,-8.0315,-7.9476,-7.8637,-7.7798,-7.6959,-7.612,-7.5358,-7.5303,0.0,-7.5227,-7.5228,-7.5209,-7.5095,-7.3763,-7.304,-7.2545,-7.1251,-7.0492,-7.0114,-7.0114,-7.0077,-7.0041,-7.0041,-7.0003,-7.0003,-6.9948,-6.9929,-6.9891,-6.9891,-6.9891,-6.9891,-6.9891,-6.9929,-7.0021,-7.0167,-6.9093,-6.7974,-6.7672,-6.6756,-6.6036,-6.6123,-6.6165,-6.6185,-6.6185,-6.6185,-6.6215,-6.6331,-6.5273,-6.4347,-6.3985,-6.2827,-6.1857,-6.1391,-6.0614,-5.9901,-5.9475,-5.8219,-5.7257,-5.6822,-5.6333,-5.6037,-5.6012,-5.6012,-5.5625,-5.4813,-5.3923,-5.3072,-5.219,-5.1331,-5.0898,-5.0898,-5.0898,-5.0898,-7.1957,-7.346,-7.4163,-7.2396,-7.0194,-6.7594,-6.4148,-6.0264,0.0,0.0,-5.3328,-5.2139,-5.2139,-5.3518,-5.5185,0.0,-5.9961,-6.3221,0.0,0.0,0.0,0.0,0.0,0.0,0.0,0.0,0.0,0.0,0.0,0.0,-8.5132,-8.5132,-8.5056,-8.4866,-8.4111,-8.3274,-8.2399,-8.1545,-8.0728,-7.9891,-7.9053,-7.8216,-7.7379,-7.6541,-7.5818,-7.5209,-7.5171,0.0,0.0,-7.5152,-7.5133,-7.498,-7.3269,-7.2642,-7.2451,-7.074,-7.0077,-6.9966,-6.9966,-6.9929,-6.9891,-6.9891,-6.9948,-6.9966,-6.9929,-6.9891,-6.9891,-6.9891,-6.9891,-6.9891,-6.9891,-6.9948,-6.9965,-6.9939,-6.9158,-6.8206,-6.7268,-6.6677,-6.6256,-6.6129,-6.6144,-6.6185,-6.6185,-6.6195,-6.6274,-6.6367,-6.5648,-6.4907,-6.4326,-6.3362,-6.2429,-6.1762,-6.0914,-6.0279,-6.0141,-5.8845,-5.7885,-5.742,-5.6745,-5.6248,-5.6012,-5.6012,-5.5702,-5.5084,-5.4039,-5.3149,-5.25,-5.1409,-5.0898,-5.0898,-5.0898,-5.0898,-7.101,-7.1939,-7.2243,-7.0555,-6.8811,-6.665,-6.3296,0.0,0.0,-5.4314,-5.2494,-5.1305,-5.1305,-5.2684,-5.4352,-5.6019,0.0,-6.2122,0.0,0.0,0.0,0.0,0.0,0.0,0.0,0.0,0.0,0.0,0.0,0.0,-8.4924,-8.4924,-8.4545,-8.3771,-8.3025,-8.2255,-8.1457,-8.0687,-7.9891,-7.9015,-7.8178,-7.734,-7.6465,-7.5666,-7.5285,-7.519,-7.5075,0.0,0.0,-7.4955,-7.4915,-7.4763,-7.3077,-7.2432,-7.2205,-7.0536,-6.9929,-6.991,-6.991,-6.991,-6.9891,-6.9891,-6.991,-6.991,-6.9891,-6.9891,-6.9891,-6.9891,-6.9891,-6.9891,-6.9891,-6.991,-6.9777,-6.916,-6.9158,-6.8896,-6.7316,-6.7115,-6.695,-6.6245,-6.6144,-6.6185,-6.6185,-6.6264,-6.6322,-6.6376,-6.5721,-6.518,-6.5102,-6.3711,-6.2663,-6.2585,-6.1808,-6.0946,-6.0176,-5.9947,-5.9172,-5.7498,-5.7303,-5.6914,-5.6051,-5.6012,-5.5973,-5.5896,-5.431,-5.3459,-5.3382,-5.1718,-5.0898,-5.0898,-5.0898,-5.0898,-6.9873,-7.0612,-7.0725,-7.0081,-6.7883,-6.5154,-6.2273,0.0,-5.5337,-5.3328,-5.1585,-5.041,-5.041,-5.1395,-5.276,-5.4427,0.0,0.0,-6.2993,0.0,0.0,0.0,0.0,0.0,0.0,0.0,0.0,0.0,0.0,0.0,-8.4143,-8.4105,-8.3953,-8.3612,-8.233,-8.148,-8.1176,-7.9891,-7.9039,-7.8698,-7.7369,-7.6534,-7.6192,-7.5395,-7.5015,-7.5015,-7.4975,0.0,0.0,-7.4915,-7.4591,-7.4023,-7.2848,-7.2052,-7.1483,-7.0308,-6.9891,-6.9891,-6.9891,-6.9891,-6.9891,-6.9891,-6.9891,-6.9891,-6.9891,-6.9891,-6.9891,-6.9891,-6.9891,-6.9891,-6.9891,-6.9985,-7.0019,-6.9749,-6.954,-6.9212,-6.8604,-6.8232,-6.7826,-6.7,-6.6896,-6.6804,-6.6301,-6.6274,-6.6322,-6.6376,-6.6148,-6.5763,-6.5258,-6.4597,-6.3828,-6.2818,-6.1924,-6.1257,-6.0914,-6.0395,-5.9784,-5.9018,-5.7994,-5.721,-5.6786,-5.6274,-5.6012,-5.6012,-5.4851,-5.4,-5.3498,-5.226,-5.1409,-5.0898,-5.0898,-5.0898,-6.8072,-6.8603,-6.8413,-6.8413,-6.6063,-6.3107,0.0,0.0,-5.4086,-5.2381,-5.0903,-4.9893,-4.9893,-5.0599,-5.1661,-5.3101,0.0,-5.8028,-6.0909,0.0,0.0,0.0,0.0,0.0,0.0,0.0,0.0,0.0,0.0,0.0,0.0,-8.299,-8.2854,-8.2854,-8.1717,-8.0845,-8.0352,-7.9177,-7.8344,-7.7851,-7.6676,-7.5994,-7.5728,-7.516,-7.4895,-7.4895,-7.4895,0.0,0.0,-7.4629,-7.4174,-7.3472,-7.2431,-7.1654,-7.0991,-7.0195,-6.9891,-6.9891,-6.9891,-6.9891,-6.9891,-6.9891,-6.9891,-6.9891,-6.9891,-6.9891,-6.9891,-6.9891,-6.9891,-6.9891,-6.9891,-7.0041,-7.0185,-7.0185,-6.9999,-6.9711,-6.9442,-6.9167,-6.8752,-6.7853,-6.757,-6.7307,-6.6688,-6.6429,-6.6322,-6.6376,-6.642,-6.6181,-6.5646,-6.5374,-6.4753,-6.358,-6.2408,-6.1677,-6.1412,-6.0823,-6.0328,-6.0034,-5.8614,-5.7644,-5.7327,-5.6467,-5.6012,-5.6029,-5.5208,-5.4512,-5.387,-5.2732,-5.1873,-5.1293,-5.1014,-5.0898,-6.5495,-6.5571,-6.4964,-6.4964,-6.3031,-6.0492,0.0,0.0,-5.3252,-5.1571,-5.0523,-4.9893,-4.9893,-5.0599,-5.1457,-5.2291,-5.4541,0.0,-5.8499,0.0,0.0,0.0,0.0,0.0,0.0,0.0,0.0,0.0,0.0,0.0,0.0,-8.1631,-8.111,-8.111,-8.111,-8.0315,-7.8647,-7.8609,-7.7775,-7.6145,-7.6107,-7.569,-7.4932,-7.4895,-7.4895,0.0,0.0,0.0,0.0,-7.3965,-7.3586,-7.3454,-7.1749,-7.1104,-7.0991,-7.0195,-6.9891,-6.9891,-6.9891,-6.9891,-6.9891,-6.9891,-6.9891,-6.9891,-6.9891,-6.9891,-6.9891,-6.9891,-6.9891,-6.9891,-6.9891,-7.0041,-7.0185,-7.0185,-7.0473,-7.0439,-6.9596,-6.9681,-6.964,-6.8752,-6.7995,-6.7501,-6.7501,-6.6816,-6.6322,-6.6376,-6.642,-6.6422,-6.6462,-6.5732,-6.5211,-6.5172,-6.362,-6.2269,-6.1451,-6.1344,-6.0918,-6.0065,-5.9171,-5.8269,-5.7327,-5.6467,-5.6029,-5.6117,-5.5225,-5.4799,-5.4762,-5.3057,-5.219,-5.219,-5.1293,-5.0898,-6.2008,-6.2084,-6.1591,-6.2159,-6.0871,-5.8938,-5.7005,0.0,-5.3215,-5.1547,-5.0523,-4.9893,-4.9893,-5.0107,-5.0751,-5.2177,-5.3637,0.0,0.0,0.0,0.0,0.0,0.0,0.0,0.0,0.0,0.0,0.0,0.0,0.0,0.0,-8.0824,-8.0325,-8.0277,-7.9708,-7.8874,-7.7775,-7.7207,-7.6638,-7.6107,-7.5539,-7.516,-7.4895,-7.4895,-7.4895,0.0,0.0,0.0,0.0,-7.3113,-7.2431,-7.1824,-7.1294,-7.0763,-7.0233,-6.9967,-6.9891,-6.9891,-6.9891,-6.9891,-6.9891,-6.9891,-6.9891,-6.9891,-6.9891,-6.9891,-6.9891,-6.9891,-6.9891,-6.9891,-6.9891,-7.0041,-7.0185,-7.0185,-7.0473,-7.0631,-7.0363,-7.0527,-7.0488,-6.964,-6.9358,-6.8854,-6.7694,-6.7309,-6.7009,-6.6408,-6.6367,-6.6411,-6.642,-6.6187,-6.5799,-6.52,-6.4657,-6.3726,-6.2261,-6.1632,-6.1142,-6.0829,-5.9999,-5.9121,-5.8217,-5.7392,-5.6682,-5.6117,-5.5862,-5.5451,-5.4885,-5.4266,-5.3375,-5.219,-5.1331,-5.0898,0.0,-5.9127,-5.8688,-5.9539,-5.853,0.0,0.0,-5.3794,-5.2451,-5.102,-5.0337,-4.992,-4.992,-4.992,-5.0502,-5.2199,-5.3494,0.0,0.0,0.0,0.0,0.0,0.0,0.0,0.0,0.0,0.0,0.0,0.0,0.0,0.0,-7.9882,-7.925,-7.8559,-7.8289,-7.7737,-7.6941,-7.6373,-7.5956,-7.5653,-7.516,-7.4895,-7.4895,-7.4553,-7.4402,0.0,0.0,0.0,0.0,-7.2241,-7.1597,-7.1066,-7.0763,-7.0346,-6.9891,-6.9891,-6.9891,-6.9891,-6.9891,-6.9891,-6.9891,-6.9891,-6.9891,-6.9891,-6.9891,-6.9891,-6.9891,-6.9891,-6.9891,-6.9891,-6.9891,-7.0041,-7.0185,-7.0185,-7.0473,-7.0723,-7.0723,-7.0912,-7.0939,-7.045,-7.017,-6.9667,-6.8622,-6.7957,-6.7406,-6.6884,-6.6563,-6.6358,-6.6415,-6.6385,-6.6183,-6.5613,-6.5264,-6.4635,-6.3532,-6.2388,-6.1574,-6.1229,-6.0399,-5.9645,-5.9116,-5.7972,-5.7108,-5.6606,-5.6304,-5.5901,-5.5387,-5.5002,-5.4111,-5.2717,-5.1819,-5.1424,0.0,-5.6436,-5.6125,0.0,0.0,0.0,0.0,-5.194,0.0,-5.0202,-4.9999,-4.9999,-4.9999,-5.0075,-5.0671,-5.2334,-5.4022,0.0,0.0,0.0,0.0,0.0,0.0,0.0,0.0,0.0,0.0,0.0,0.0,0.0,0.0,-7.8767,-7.7924,-7.6346,-7.6852,-7.679,-7.6032,-7.6032,-7.5615,-7.4819,-7.4819,-7.4781,-7.4705,-7.3871,-7.353,0.0,0.0,0.0,0.0,-7.137,-7.0991,-7.0915,-7.0195,-6.9891,-6.9891,-6.9891,-6.9891,-6.9891,-6.9891,-6.9891,-6.9891,-6.9891,-6.9891,-6.9891,-6.9891,-6.9891,-6.9891,-6.9891,-6.9891,-6.9891,-6.9891,-7.0041,-7.0185,-7.0185,-7.0457,-7.0654,-7.0708,-7.0912,-7.1093,-7.1093,-7.0556,-7.0054,-7.0015,-6.8661,-6.7598,-6.761,-6.6845,-6.6322,-6.6367,-6.6376,-6.6358,-6.6303,-6.5567,-6.5045,-6.4996,-6.3448,-6.2159,-6.1337,-6.0488,-5.9957,-5.988,-5.8333,-5.7448,-5.7412,-5.6529,-5.6126,-5.6199,-5.5317,-5.4466,-5.3693,-5.2802,-5.2314,-5.2229,0.0,-5.3414,-5.3618,-5.3432,-5.2903,0.0,-5.1522,-5.1141,-5.0253,-5.0101,-5.0101,-5.0101,-5.0596,-5.1408,-5.2424,-5.4101,-5.6123,0.0,0.0,0.0,0.0,0.0,0.0,0.0,0.0,0.0,0.0,0.0,0.0,0.0,-7.7475,-7.6846,-7.6308,-7.5225,-7.4824,-7.5198,-7.5198,-7.4743,-7.3909,-7.3909,-7.3568,-7.2962,-7.2772,-7.2658,0.0,0.0,0.0,-7.1332,-7.0498,-7.0157,-7.0157,-6.9967,-6.9891,-6.9891,-6.9891,-6.9891,-6.9891,-6.9891,-6.9891,-6.9891,-6.9891,-6.9891,-6.9891,-6.9891,-6.9891,-6.9891,-6.9891,-6.9891,-6.9891,-6.9891,-6.9985,-7.0058,-7.0167,-7.0358,-7.0515,-7.0693,-7.0871,-7.1043,-7.1093,-7.1058,-7.0789,-7.0092,-6.9164,-6.8274,-6.7637,-6.6786,-6.6244,-6.6225,-6.6264,-6.6254,-6.6244,-6.6051,-6.5664,-6.5035,-6.341,-6.2336,-6.2133,-6.1311,-6.0538,-5.9919,-5.9529,-5.8682,-5.7412,-5.6657,-5.6251,-5.6199,-5.5338,-5.4774,-5.4583,-5.3691,-5.2916,-5.0486,-5.1261,-5.1974,-5.2001,-5.2055,-5.1891,-5.1078,-5.09,-5.0735,-5.0253,-5.0139,-5.0291,-5.0672,-5.1129,-5.198,-5.3607,-5.5032,0.0,0.0,0.0,0.0,0.0,0.0,0.0,0.0,0.0,0.0,0.0,0.0,0.0,0.0,-7.6937,-7.6235,-7.5323,-7.4353,-7.3991,-7.4288,-7.3947,-7.353,-7.3037,-7.3037,-7.281,-7.2413,-7.1996,-7.1806,0.0,0.0,0.0,-7.0498,-7.0081,-6.9891,-6.9891,-6.9891,-6.9891,-6.9891,-6.9891,-6.9891,-6.9891,-6.9891,-6.9891,-6.9891,-6.9891,-6.9891,-6.9891,-6.9891,-6.9891,-6.9891,-6.9891,-6.9891,-6.9891,-6.9891,-6.9929,-7.0021,-7.0167,-7.0286,-7.0467,-7.0678,-7.0857,-7.1018,-7.1081,-7.1213,-7.1137,-7.0672,-6.9899,-6.9087,-6.8236,-6.7346,-6.665,-6.6263,-6.6185,-6.6185,-6.6185,-6.6185,-6.6031,-6.5605,-6.4367,-6.3245,-6.2472,-6.1582,-6.0886,-6.046,-6.0101,-5.9099,-5.7412,-5.7053,-5.6653,-5.6226,-5.576,-5.5546,-5.5472,-5.4587,-5.3952,-4.9893,-5.0516,-5.1114,-5.1166,-5.1243,-5.114,-5.0462,-5.0283,-5.0271,-5.0224,-5.0326,-5.0619,0.0,-5.184,0.0,0.0,0.0,0.0,0.0,0.0,0.0,0.0,0.0,0.0,0.0,0.0,0.0,0.0,0.0,0.0,0.0,-7.6411,-7.5598,-7.3982,-7.3684,-7.346,-7.3266,-7.2698,-7.2337,-7.2223,-7.2223,-7.2147,-7.1996,-7.1256,-7.0915,-7.0877,0.0,0.0,-6.9891,-6.9891,-6.9891,-6.9891,-6.9891,-6.9891,-6.9891,-6.9891,-6.9891,-6.9891,-6.9891,-6.9891,-6.9891,-6.9891,-6.9891,-6.9891,-6.9891,-6.9891,-6.9891,-6.9891,-6.9891,-6.9891,-6.9891,-6.9967,-7.0003,-7.0167,-7.0307,-7.0435,-7.0639,-7.0829,-7.0992,-7.1081,-7.1201,-7.128,-7.1291,-7.0556,-6.9744,-6.8932,-6.8081,-6.7191,-6.6301,-6.6185,-6.6185,-6.6185,-6.6185,-6.6185,-6.6185,-6.545,-6.4367,-6.2897,-6.1853,-6.1234,-6.1118,-6.0315,-5.916,-5.7645,-5.7528,-5.7105,-5.6291,-5.6291,-5.6278,-5.6206,-5.5475,-5.5034,-4.9893,-5.0087,-5.0291,-5.0304,-5.0404,-5.0462,-5.0321,-5.0283,-5.0321,-5.0309,-5.087,0.0,0.0,-5.3365,-5.4957,0.0,0.0,0.0,0.0,0.0,0.0,0.0,0.0,0.0,0.0,0.0,0.0,0.0,0.0,0.0,0.0,-7.479,-7.4248,-7.3115,-7.2362,-7.1875,-7.1729,-7.2225,-7.2111,-7.1294,-7.1294,-7.0915,-7.027,-7.0157,-7.0081,-7.0081,0.0,-6.9891,-6.9891,-6.9891,-6.9891,-6.9891,-6.9891,-6.9891,-6.9891,-6.9891,-6.9891,-6.9891,-6.9891,-6.9891,-6.9891,-6.9891,-6.9891,-6.9891,-6.9891,-6.9891,-6.9891,-6.9891,-6.9891,-6.9891,-6.9891,-6.991,-6.9967,-7.0149,-7.0203,-7.0324,-7.0647,-7.0758,-7.0885,-7.1068,-7.1166,-7.1236,-7.128,-7.0556,-6.9744,-6.8932,-6.8081,-6.7191,-6.6301,-6.6185,-6.6185,-6.6185,-6.6185,-6.6185,-6.6185,-6.545,-6.487,-6.4599,-6.3091,-6.1892,-6.1118,-6.0342,-5.9456,-5.8537,-5.7838,-5.7105,-5.6291,-5.6291,-5.6291,-5.6285,-5.6168,-5.5702,-4.9893,-4.9986,-5.0076,-5.0076,-5.0188,-5.0436,-5.0894,-5.1009,-5.1123,-5.1544,-5.1964,0.0,0.0,0.0,-5.6065,0.0,0.0,0.0,0.0,0.0,0.0,0.0,0.0,0.0,0.0,0.0,0.0,0.0,0.0,0.0,0.0,0.0,-7.336,-7.24,-7.192,-7.1417,-7.0858,-7.1152,-7.1026,-7.0517,-7.0517,-7.029,-6.9891,-6.9891,-6.9891,-6.9891,0.0,-6.9891,-6.9891,-6.9891,-6.9891,-6.9891,-6.9891,-6.9891,-6.9891,-6.9891,-6.9891,-6.9891,-6.9891,-6.9891,-6.9891,-6.9891,-6.9891,-6.9891,-6.9891,-6.9891,-6.9891,-6.9891,-6.9891,-6.9891,-6.9891,-6.9891,-6.9948,-7.0149,-7.0185,-7.0289,-7.0647,-7.0743,-7.0857,-7.1068,-7.1154,-7.1224,-7.128,-7.0982,-7.0286,-6.9009,-6.8468,-6.7733,-6.6379,-6.6185,-6.6185,-6.6185,-6.6185,-6.6185,-6.6185,-6.5876,-6.5064,-6.3671,-6.2859,-6.2008,-6.1157,-6.075,-6.0175,-5.9428,-5.8591,-5.7783,-5.6997,-5.6524,-5.6291,-5.6291,-5.6291,-5.6097,-4.9868,-4.9999,-5.0165,-5.0368,-5.0505,-5.0779,-5.1467,-5.1773,-5.2117,-5.2944,-5.3288,0.0,0.0,-5.628,0.0,0.0,0.0,0.0,0.0,0.0,0.0,0.0,0.0,0.0,0.0,0.0,0.0,0.0,0.0,0.0,0.0,0.0,-7.2485,-7.139,-7.1275,-7.0799,-6.9862,-6.9797,-6.9739,-6.9735,-6.9717,-6.9586,-6.9323,-6.9342,-6.9323,-6.9323,-6.9323,-6.9323,-6.9323,-6.9512,-6.9588,-6.9626,-6.9816,-6.9891,-6.9891,-6.9891,-6.9891,-6.9891,-6.9891,-6.9891,-6.9891,-6.9891,-6.9891,-6.9891,-6.9891,-6.9891,-6.9891,-6.9891,-6.9891,-6.9891,-6.9891,-6.9891,-6.9948,-7.0149,-7.0185,-7.0289,-7.0647,-7.0729,-7.0829,-7.1056,-7.1142,-7.1213,-7.128,-7.1137,-7.0479,-6.9009,-6.8622,-6.7926,-6.6417,-6.6185,-6.6185,-6.6185,-6.6185,-6.6185,-6.6185,-6.6185,-6.5218,-6.2859,-6.2511,-6.2008,-6.1157,-6.1118,-6.0738,-6.001,-5.9351,-5.8544,-5.7619,-5.6919,-5.6486,-5.6291,-5.6291,-5.6291,-4.977,-5.0063,-5.033,-5.1192,-5.1457,-5.1544,-5.157,-5.2193,-5.2982,-5.3922,-5.4738,0.0,0.0,-5.8678,0.0,0.0,0.0,0.0,0.0,0.0,0.0,0.0,0.0,0.0,0.0,0.0,0.0,0.0,0.0,0.0,0.0,0.0,0.0,-6.9735,-6.9625,-6.9115,-6.8197,-6.8181,-6.8438,-6.8988,-6.8917,-6.8446,-6.7668,-6.7616,-6.7579,-6.7579,-6.7579,-6.7579,-6.7655,-6.8375,-6.8679,-6.8754,-6.9588,-6.9891,-6.9891,-6.9891,-6.9891,-6.9891,-6.9891,-6.9891,-6.9891,-6.9891,-6.9891,-6.9891,-6.9891,-6.9891,-6.9891,-6.9891,-6.9891,-6.9891,-6.9891,-6.9891,-6.9948,-7.0149,-7.0185,-7.0289,-7.0647,-7.0684,-7.0772,-7.1056,-7.1106,-7.1154,-7.1269,-7.0634,-6.9783,-6.8932,-6.8119,-6.7268,-6.6301,-6.6185,-6.6185,-6.6185,-6.6185,-6.6185,-6.6185,-6.6185,-6.545,-6.3719,-6.2859,-6.2008,-6.1157,-6.1118,-6.0738,-6.001,-5.9932,-5.9165,-5.7619,-5.7541,-5.7075,-5.6291,-5.6291,-5.6291,-4.9745,-5.0038,-5.033,-5.1281,-5.1915,-5.2626,-5.3783,-5.4254,-5.4891,-5.6331,-5.6879,-5.7555,0.0,0.0,0.0,0.0,0.0,0.0,0.0,0.0,0.0,0.0,0.0,0.0,0.0,0.0,0.0,0.0,0.0,0.0,0.0,0.0,-7.005,-6.8858,-6.8737,-6.8541,-6.8191,-6.8148,-6.7944,-6.7614,-6.8002,-6.7977,-6.7566,-6.7478,-6.7443,-6.7481,-6.7426,-6.739,-6.7428,-6.7731,-6.7845,-6.7883,-6.8224,-6.8337,-6.8337,-6.8337,-6.8337,-6.8337,-6.8337,-6.8337,-6.8413,-6.8944,-6.9096,-6.9171,-6.974,-6.9891,-6.9891,-6.9891,-6.9891,-6.9891,-6.9891,-6.9891,-6.9948,-7.0149,-7.0185,-7.0289,-7.0647,-7.0723,-7.0772,-7.1056,-7.1106,-7.1142,-7.1269,-7.0556,-6.9744,-6.8932,-6.8081,-6.7191,-6.6301,-6.6185,-6.6185,-6.6185,-6.6185,-6.6185,-6.6185,-6.6185,-6.5489,-6.3797,-6.34,-6.2549,-6.1157,-6.1118,-6.0991,-6.0743,-6.0234,-5.946,-5.8355,-5.7839,-5.7153,-5.6291,-5.6291,-5.6291,-4.9771,-5.0063,-5.0443,-5.1623,-5.2563,-5.3783,-5.5847,-5.6306,-5.6766,-5.8539,-5.9343,-6.0097,-6.1286,0.0,0.0,0.0,0.0,0.0,0.0,0.0,0.0,0.0,0.0,0.0,0.0,0.0,0.0,0.0,0.0,0.0,0.0,0.0,-6.8898,-6.8013,-6.796,-6.7651,-6.7086,-6.7044,-6.6552,-6.5609,-6.633,-6.6739,-6.6852,-6.6823,-6.6771,-6.6698,-6.6666,-6.663,-6.6632,-6.6897,-6.7162,-6.739,-6.739,-6.739,-6.739,-6.739,-6.739,-6.739,-6.739,-6.739,-6.7504,-6.8034,-6.8375,-6.8716,-6.9323,-6.9664,-6.9891,-6.9891,-6.9891,-6.9891,-6.9891,-6.9891,-6.9948,-7.0149,-7.0185,-7.0289,-7.0647,-7.0723,-7.0772,-7.1056,-7.1106,-7.1065,-7.0921,-7.017,-6.9357,-6.8506,-6.7655,-6.6882,-6.6263,-6.6185,-6.6185,-6.6185,-6.6185,-6.6185,-6.6185,-6.6185,-6.5489,-6.3797,-6.3719,-6.2897,-6.1157,-6.1118,-6.1137,-6.1182,-6.0691,-5.9995,-5.9226,-5.8376,-5.7535,-5.668,-5.6447,-5.6291,-4.9873,-5.0177,-5.0631,-5.2372,-5.3503,-5.4915,-5.7517,-5.8055,-5.8553,-6.0366,-6.2117,-6.3308,-6.3308,-6.4012,0.0,0.0,0.0,0.0,0.0,0.0,0.0,0.0,0.0,0.0,0.0,0.0,0.0,0.0,0.0,0.0,0.0,-6.8385,-6.7975,-6.709,-6.7051,-6.6218,-6.4526,-6.4474,-6.3986,-6.3006,-6.3886,-6.4641,-6.529,-6.5248,-6.5128,-6.4989,-6.4989,-6.4976,-6.4964,-6.576,-6.6594,-6.739,-6.739,-6.739,-6.739,-6.739,-6.739,-6.739,-6.739,-6.739,-6.739,-6.739,-6.7921,-6.8565,-6.8603,-6.9209,-6.9891,-6.9891,-6.9891,-6.9891,-6.9891,-6.9891,-6.9948,-7.0149,-7.0185,-7.0289,-7.0647,-7.0723,-7.0772,-7.1056,-7.1106,-7.0872,-7.012,-6.9319,-6.8506,-6.7617,-6.6766,-6.6185,-6.6185,-6.6185,-6.6185,-6.6185,-6.6185,-6.6185,-6.6185,-6.6185,-6.5489,-6.3835,-6.3719,-6.2897,-6.1157,-6.1118,-6.1137,-6.1182,-6.1272,-6.0895,-6.0111,-5.9223,-5.8389,-5.758,-5.6719,-5.6291,-4.9873,-5.0596,-5.1407,-5.2585,-5.4011,-5.5667,-5.768,-5.9074,-6.0392,-6.2156,-6.346,-6.4277,-6.4277,0.0,0.0,0.0,0.0,0.0,0.0,0.0,0.0,0.0,0.0,0.0,0.0,0.0,0.0,0.0,0.0,0.0,0.0,-6.6628,-6.5974,-6.4474,-6.4436,-6.4192,-6.3668,-6.3668,-6.3476,-6.3117,-6.3332,-6.3848,-6.4543,-6.5023,-6.5242,-6.521,-6.5161,-6.5078,-6.4976,-6.5171,-6.5419,-6.5646,-6.5646,-6.5646,-6.5646,-6.5646,-6.5646,-6.5646,-6.5646,-6.5646,-6.5722,-6.6291,-6.667,-6.7049,-6.8224,-6.8792,-6.9096,-6.974,-6.9891,-6.9891,-6.9891,-6.9948,-6.9984,-7.0149,-7.0238,-7.0358,-7.0662,-7.0723,-7.0772,-7.1056,-7.1106,-7.0872,-7.012,-6.9319,-6.8506,-6.7617,-6.6766,-6.6185,-6.6185,-6.6185,-6.6185,-6.6185,-6.6185,-6.6185,-6.6185,-6.6185,-6.576,-6.4687,-6.4029,-6.2897,-6.1157,-6.1118,-6.1137,-6.1182,-6.1272,-6.0895,-6.0111,-5.9845,-5.8972,-5.758,-5.7347,-5.6881,-4.9999,-5.0824,-5.1737,-5.2659,-5.4468,-5.6776,-5.9583,0.0,0.0,0.0,-6.4817,-6.5238,-6.5223,0.0,0.0,0.0,0.0,0.0,0.0,0.0,0.0,0.0,0.0,0.0,0.0,0.0,0.0,0.0,0.0,0.0,0.0,-6.4859,-6.4397,-6.3308,-6.3308,-6.3166,-6.282,-6.282,-6.2629,-6.2221,-6.2529,-6.2859,-6.3246,-6.4008,-6.452,-6.4794,-6.5095,-6.5144,-6.5078,-6.4976,-6.4941,-6.4941,-6.4906,-6.4888,-6.4888,-6.4888,-6.4888,-6.4888,-6.4888,-6.4888,-6.5002,-6.5457,-6.5836,-6.6291,-6.7314,-6.7845,-6.83,-6.9133,-6.9361,-6.9361,-6.9361,-6.9473,-6.9657,-7.0091,-7.0255,-7.0276,-7.0202,-7.0171,-7.0182,-7.0118,-7.0103,-6.9868,-6.9143,-6.8584,-6.8003,-6.7114,-6.6533,-6.6185,-6.6185,-6.6185,-6.6185,-6.6185,-6.6185,-6.6185,-6.6185,-6.6185,-6.5876,-6.5064,-6.4184,-6.31,-6.1726,-6.1339,-6.1155,-6.1182,-6.125,-6.1066,-6.0577,-6.0272,-5.9399,-5.8078,-5.7735,-5.7114,-5.0175,-5.0923,-5.19,-5.2709,-5.4925,0.0,-6.2219,-6.3243,-6.3806,-6.5637,0.0,-6.5993,-6.6001,0.0,0.0,0.0,0.0,0.0,0.0,0.0,0.0,0.0,0.0,0.0,0.0,0.0,0.0,0.0,0.0,0.0,0.0,-6.3205,-6.3166,-6.3089,-6.3012,-6.2589,-6.187,-6.187,-6.1411,-6.0582,-6.1453,-6.1812,-6.1748,-6.2543,-6.3268,-6.3955,-6.4692,-6.5025,-6.5063,-6.4964,-6.4968,-6.4989,-6.4941,-6.4888,-6.4888,-6.4888,-6.4888,-6.4888,-6.4888,-6.4888,-6.4888,-6.4888,-6.5381,-6.5988,-6.6101,-6.667,-6.7466,-6.8262,-6.8489,-6.8489,-6.8489,-6.8635,-6.9005,-6.9766,-7.0026,-6.9949,-6.9421,-6.9289,-6.9145,-6.8692,-6.8598,-6.8363,-6.7634,-6.7501,-6.7191,-6.634,-6.6185,-6.6185,-6.6185,-6.6185,-6.6185,-6.6185,-6.6185,-6.6185,-6.6185,-6.6185,-6.5876,-6.5141,-6.4222,-6.3352,-6.2624,-6.1694,-6.1191,-6.1199,-6.1283,-6.1283,-6.1322,-6.0589,-5.9788,-5.8894,-5.8078,-5.7269,-5.0175,-5.1343,0.0,-5.2909,-5.5516,-5.8746,-6.1704,-6.2906,-6.3866,-6.5649,-6.604,0.0,0.0,0.0,0.0,0.0,0.0,0.0,0.0,0.0,0.0,0.0,0.0,0.0,0.0,0.0,0.0,0.0,0.0,0.0,-6.239,-6.2352,-6.2021,-6.1358,-6.0666,-6.0242,-6.005,-6.005,-5.9962,0.0,-6.0594,-6.0954,-6.0968,-6.2358,-6.305,-6.313,-6.3246,-6.3657,-6.4267,-6.4171,-6.4519,-6.5128,-6.5044,-6.4993,-6.4993,-6.4906,-6.4888,-6.4888,-6.4888,-6.4888,-6.4888,-6.4888,-6.504,-6.5267,-6.5912,-6.6215,-6.6556,-6.7428,-6.7655,-6.7655,-6.7655,-6.78,-6.8015,-6.8168,-6.8341,-6.8425,-6.844,-6.8484,-6.8493,-6.8576,-6.8598,-6.8363,-6.7634,-6.7501,-6.7191,-6.634,-6.6185,-6.6185,-6.6185,-6.6185,-6.6185,-6.6185,-6.6185,-6.6185,-6.6185,-6.6185,-6.6147,-6.5953,-6.4532,-6.3623,-6.3437,-6.2004,-6.1217,-6.1291,-6.1275,-6.1337,-6.1366,-6.1218,-6.0681,-5.9788,-5.8933,-5.8117,0.0,0.0,0.0,-5.4465,0.0,-5.8858,-6.102,-6.2182,-6.3202,-6.4574,0.0,0.0,0.0,0.0,0.0,0.0,0.0,0.0,0.0,0.0,0.0,0.0,0.0,0.0,0.0,0.0,0.0,0.0,0.0,0.0,-6.0327,-6.0305,-6.008,-5.9634,-5.9177,-5.8934,-5.8934,-5.8934,-5.8934,-5.8934,-5.9361,-5.9761,-6.0147,-6.1657,-6.2366,-6.2323,-6.271,-6.31,-6.3467,-6.339,-6.3892,-6.46,-6.4519,-6.4752,-6.5095,-6.4993,-6.4958,-6.4941,-6.4906,-6.4888,-6.4888,-6.4888,-6.4888,-6.5002,-6.5419,-6.5533,-6.5722,-6.6556,-6.6783,-6.6783,-6.6783,-6.6926,-6.6988,-6.6569,-6.7213,-6.7829,-6.7597,-6.7602,-6.7533,-6.7381,-6.7352,-6.7243,-6.6938,-6.6882,-6.6727,-6.6263,-6.6185,-6.6185,-6.6185,-6.6185,-6.6185,-6.6185,-6.6185,-6.6185,-6.6185,-6.6185,-6.6185,-6.6185,-6.4638,-6.37,-6.3708,-6.2099,-6.125,-6.1322,-6.1337,-6.1359,-6.1412,-6.1412,-6.0953,-6.006,-5.9205,-5.835,0.0,-5.1517,-5.3451,-5.5971,-5.7355,0.0,-6.0283,-6.1351,-6.2253,-6.3194,0.0,0.0,0.0,0.0,0.0,0.0,0.0,0.0,0.0,0.0,0.0,0.0,0.0,0.0,0.0,0.0,0.0,0.0,0.0,0.0,-5.8422,-5.8371,-5.8351,-5.834,-5.8171,-5.8099,-5.8099,-5.8088,-5.8088,-5.8088,-5.8242,-5.8669,-5.9468,-6.0725,-6.1374,-6.1538,-6.2209,-6.2562,-6.2648,-6.2627,-6.3055,-6.3818,-6.3724,-6.4225,-6.4987,-6.485,-6.4892,-6.4972,-6.4941,-6.4906,-6.4888,-6.4888,-6.4888,-6.4888,-6.4888,-6.4888,-6.504,-6.5722,-6.5912,-6.5912,-6.5912,-6.6053,-6.6036,-6.5368,-6.6373,-6.7347,-6.6806,-6.6681,-6.6535,-6.6071,-6.6024,-6.6069,-6.6165,-6.6185,-6.6185,-6.6185,-6.6185,-6.6185,-6.6185,-6.6185,-6.6185,-6.6185,-6.6185,-6.6185,-6.6185,-6.6185,-6.6185,-6.6185,-6.4754,-6.3855,-6.3708,-6.2271,-6.1422,-6.1306,-6.1352,-6.1412,-6.1412,-6.1412,-6.1031,-6.0293,-5.9283,-5.8428,0.0,0.0,-5.3403,0.0,-5.6467,-5.7649,0.0,0.0,-6.1404,0.0,0.0,0.0,0.0,0.0,0.0,0.0,0.0,0.0,0.0,0.0,0.0,0.0,0.0,0.0,0.0,0.0,0.0,0.0,0.0,0.0,-5.8472,-5.8462,-5.8442,-5.8392,-5.7646,-5.7268,-5.7268,-5.7198,-5.7176,-5.7176,-5.7934,-5.8731,-5.95,-5.9648,-6.0061,-6.0671,-6.0772,-6.119,-6.1784,-6.1769,-6.2266,-6.3053,-6.2979,-6.3444,-6.4152,-6.4057,-6.4448,-6.4989,-6.4972,-6.4958,-6.4888,-6.4888,-6.4888,-6.4888,-6.4888,-6.4888,-6.4926,-6.504,-6.5078,-6.5078,-6.5078,-6.5217,-6.5329,-6.5253,-6.5505,-6.5815,-6.5771,-6.5747,-6.5805,-6.5955,-6.6091,-6.6165,-6.6185,-6.6185,-6.6185,-6.6185,-6.6185,-6.6185,-6.6185,-6.6185,-6.6185,-6.6185,-6.6185,-6.6185,-6.6185,-6.6185,-6.6185,-6.6185,-6.5334,-6.4474,-6.3747,-6.2826,-6.2,-6.1306,-6.1383,-6.1412,-6.1412,-6.1412,-6.1335,-6.1179,-5.9555,-5.8739,-5.0906,-5.171,-5.2746,0.0,-5.5615,-5.6662,-5.7947,0.0,0.0,0.0,0.0,0.0,0.0,0.0,0.0,0.0,0.0,0.0,0.0,0.0,0.0,0.0,0.0,0.0,0.0,0.0,0.0,0.0,0.0,-5.7125,-5.7098,-5.7109,-5.7081,-5.7062,-5.6666,-5.6444,-5.6444,-5.6385,-5.6365,-5.6333,-5.7187,-5.7742,-5.8088,-5.8566,-5.9456,-6.0597,-6.0559,-6.0723,-6.0961,-6.0961,-6.1444,-6.2166,-6.2122,-6.2642,-6.339,-6.3314,-6.3769,-6.4372,-6.4322,-6.4579,-6.4888,-6.4888,-6.4888,-6.4888,-6.4888,-6.4888,-6.4888,-6.4888,-6.4888,-6.4888,-6.4958,-6.5078,-6.5215,-6.5264,-6.5398,-6.5523,-6.558,-6.5674,-6.5781,-6.5967,-6.6102,-6.6185,-6.6185,-6.6185,-6.6185,-6.6185,-6.6185,-6.6185,-6.6185,-6.6185,-6.6185,-6.6185,-6.6185,-6.6185,-6.6185,-6.6185,-6.6185,-6.6185,-6.545,-6.4609,-6.3748,-6.2924,-6.209,-6.1255,-6.1322,-6.1353,-6.1353,-6.1337,-6.1344,-6.1306,-5.958,-5.8817,0.0,0.0,-5.2143,-5.3426,-5.4483,-5.5421,0.0,0.0,0.0,0.0,0.0,0.0,0.0,0.0,0.0,0.0,0.0,0.0,0.0,0.0,0.0,0.0,0.0,0.0,0.0,0.0,0.0,0.0,0.0,-5.5354,-5.5354,-5.5358,-5.5379,-5.5379,-5.5286,-5.5374,-5.5605,-5.5789,-5.5885,-5.5845,-5.641,-5.6813,-5.7033,-5.7676,-5.8758,-6.0095,-6.0252,-6.038,-6.0506,-6.0531,-6.0835,-6.1315,-6.1301,-6.1822,-6.2571,-6.2527,-6.2971,-6.3616,-6.3536,-6.3968,-6.462,-6.4585,-6.4737,-6.4888,-6.4888,-6.4888,-6.4888,-6.4888,-6.4906,-6.4941,-6.4972,-6.5111,-6.5226,-6.5305,-6.5444,-6.5552,-6.5635,-6.5768,-6.5884,-6.6001,-6.6112,-6.6185,-6.6185,-6.6185,-6.6185,-6.6185,-6.6185,-6.6185,-6.6185,-6.6185,-6.6185,-6.6185,-6.6185,-6.6185,-6.6185,-6.6185,-6.6185,-6.6185,-6.5644,-6.4831,-6.3758,-6.3129,-6.2296,-6.1203,-6.1208,-6.1281,-6.1297,-6.1299,-6.1283,-6.1244,-5.9573,-5.8817,0.0,-5.1163,0.0,-5.197,-5.2743,0.0,0.0,0.0,0.0,0.0,0.0,0.0,0.0,0.0,0.0,0.0,0.0,0.0,0.0,0.0,0.0,0.0,0.0,0.0,0.0,0.0,0.0,0.0,0.0,-5.3614,-5.3614,-5.3614,-5.3614,-5.3614,-5.3563,-5.3923,-5.4734,-5.5538,-5.5895,-5.5895,-5.5884,-5.6287,-5.7086,-5.7082,-5.755,-5.8462,-5.9173,-5.9868,-6.0572,-6.0545,-6.0518,-6.0543,-6.0474,-6.0943,-6.1669,-6.1669,-6.2184,-6.2834,-6.2703,-6.3193,-6.3833,-6.3693,-6.4244,-6.4888,-6.4888,-6.4888,-6.4888,-6.4888,-6.4958,-6.4989,-6.4989,-6.5161,-6.5305,-6.5383,-6.5479,-6.5635,-6.5744,-6.5907,-6.6013,-6.608,-6.6144,-6.6185,-6.6185,-6.6185,-6.6185,-6.6185,-6.6185,-6.6185,-6.6185,-6.6185,-6.6185,-6.6185,-6.6185,-6.6185,-6.6185,-6.6185,-6.6185,-6.6185,-6.6147,-6.5412,-6.3758,-6.3642,-6.283,-6.1157,-6.1127,-6.1173,-6.1297,-6.1299,-6.1283,-6.1244,-5.9573,-5.8817,0.0,0.0,0.0,-5.0952,-5.1847,-5.2761,0.0,0.0,0.0,0.0,0.0,0.0,0.0,0.0,0.0,0.0,0.0,0.0,0.0,0.0,0.0,0.0,0.0,0.0,0.0,0.0,0.0,0.0,0.0,-5.3498,-5.3498,-5.3498,-5.3498,-5.3498,-5.3481,-5.3627,-5.3937,-5.4734,-5.5141,-5.5141,-5.5625,-5.601,-5.6249,-5.6228,-5.6669,-5.7473,-5.772,-5.8596,-5.988,-6.0393,-6.0585,-6.0584,-6.0466,-6.063,-6.0898,-6.0856,-6.132,-6.1957,-6.1926,-6.2398,-6.3117,-6.3617,-6.3964,-6.4292,-6.4824,-6.4941,-6.4888,-6.4958,-6.4972,-6.5023,-6.5161,-6.5242,-6.5337,-6.5479,-6.5632,-6.5768,-6.5907,-6.5978,-6.6024,-6.6091,-6.6144,-6.6185,-6.6185,-6.6185,-6.6185,-6.6185,-6.6185,-6.6185,-6.6185,-6.6185,-6.6185,-6.6185,-6.6185,-6.6185,-6.6185,-6.6185,-6.6185,-6.6185,-6.5721,-6.4909,-6.3758,-6.3168,-6.2317,-6.1118,-6.1118,-6.1137,-6.1173,-6.1217,-6.125,-6.1244,-5.9575,-5.8796,-4.8524,0.0,0.0,0.0,0.0,-5.1361,0.0,0.0,0.0,0.0,0.0,0.0,0.0,0.0,0.0,0.0,0.0,0.0,0.0,0.0,0.0,0.0,0.0,0.0,0.0,0.0,0.0,0.0,0.0,0.0,-5.2647,-5.2647,-5.2647,-5.2647,-5.2917,-5.3072,-5.3072,-5.3889,-5.4452,-5.4723,-5.5257,-5.5635,-5.5885,-5.5827,-5.6095,-5.662,-5.689,-5.7934,-5.9492,-6.0044,-6.0392,-6.061,-6.0546,-6.052,-6.0545,-6.0477,-6.0752,-6.1153,-6.1109,-6.1583,-6.2337,-6.2877,-6.34,-6.3937,-6.447,-6.4799,-6.4993,-6.5061,-6.5095,-6.5144,-6.5258,-6.5352,-6.5459,-6.5632,-6.5755,-6.591,-6.5978,-6.6001,-6.6036,-6.6112,-6.6165,-6.6185,-6.6185,-6.6185,-6.6185,-6.6185,-6.6185,-6.6185,-6.6185,-6.6185,-6.6185,-6.6185,-6.6185,-6.6185,-6.6185,-6.6185,-6.6185,-6.6185,-6.545,-6.4609,-6.3758,-6.2859,-6.2008,-6.1118,-6.1118,-6.1118,-6.1118,-6.1164,-6.1083,-6.0816,-5.9436,-5.851,0.0,0.0,0.0,0.0,0.0,0.0,0.0,0.0,0.0,0.0,0.0,0.0,0.0,0.0,0.0,0.0,0.0,0.0,0.0,0.0,0.0,0.0,0.0,0.0,0.0,0.0,0.0,0.0,0.0,-5.0898,-5.0898,-5.0898,-5.0898,-5.0898,-5.1718,-5.2152,-5.2152,-5.3033,-5.3884,-5.4774,-5.4723,-5.5168,-5.6009,-5.5924,-5.5875,-5.5835,-5.6711,-5.7989,-5.9435,-5.9415,-5.9891,-6.0647,-6.061,-6.0585,-6.0572,-6.0545,-6.048,-6.0466,-6.0352,-6.0828,-6.1461,-6.1424,-6.2535,-6.3867,-6.3905,-6.4514,-6.5215,-6.5215,-6.5264,-6.529,-6.529,-6.5474,-6.5622,-6.578,-6.591,-6.5982,-6.6001,-6.6013,-6.6047,-6.6165,-6.6185,-6.6185,-6.6185,-6.6185,-6.6185,-6.6185,-6.6185,-6.6185,-6.6185,-6.6185,-6.6185,-6.6185,-6.6185,-6.6185,-6.6185,-6.6185,-6.6185,-6.6185,-6.5412,-6.4571,-6.3719,-6.2859,-6.1969,-6.1118,-6.1118,-6.1118,-6.1118,-6.1164,-6.0756,-5.9874,-5.9111,-5.7889,-4.768,0.0,0.0,0.0,0.0,0.0,0.0,0.0,0.0,0.0,0.0,0.0,0.0,0.0,0.0,0.0,0.0,0.0,0.0,0.0,0.0,0.0,0.0,0.0,0.0,0.0,0.0,0.0,-5.1053,-5.0898,-5.0898,-5.0898,-5.0898,-5.0898,-5.113,-5.1254,-5.1254,-5.2105,-5.2995,-5.3884,-5.4486,-5.5195,-5.6009,-5.5961,-5.5924,-5.5875,-5.6145,-5.6829,-5.7927,-5.9023,-5.9604,-5.99,-6.0455,-6.066,-6.066,-6.0585,-6.0559,-6.0546,-6.0491,-6.0565,-6.0856,-6.1397,-6.2254,-6.32,-6.3809,-6.4562,-6.5215,-6.528,-6.5312,-6.5305,-6.5444,-6.5604,-6.5742,-6.5769,-6.5897,-6.5993,-6.6058,-6.6069,-6.6102,-6.6175,-6.6185,-6.6185,-6.6185,-6.6185,-6.6185,-6.6185,-6.6185,-6.6185,-6.6185,-6.6185,-6.6185,-6.6185,-6.6185,-6.6185,-6.6185,-6.6185,-6.6185,-6.6185,-6.4831,-6.3952,-6.3719,-6.224,-6.135,-6.1118,-6.1118,-6.1118,-6.1118,-6.1127,-6.069,-5.9874,-5.849,-5.7254,0.0,0.0,0.0,0.0,0.0,0.0,-4.7874,-4.8114,0.0,0.0,0.0,0.0,0.0,0.0,0.0,0.0,0.0,0.0,0.0,0.0,0.0,0.0,0.0,0.0,0.0,0.0,0.0,-4.9861,-4.9861,-5.0008,-5.0395,-5.0395,-5.055,-5.0898,-5.0898,-5.0898,-5.0898,-5.1409,-5.2105,-5.2956,-5.3846,-5.468,-5.5504,-5.5852,-5.598,-5.5933,-5.5933,-5.6223,-5.6744,-5.7993,-5.8913,-5.9584,-6.0027,-6.0426,-6.0722,-6.066,-6.0623,-6.0623,-6.0546,-6.052,-6.0596,-6.104,-6.1726,-6.2538,-6.3335,-6.4184,-6.4901,-6.5222,-6.5368,-6.5429,-6.559,-6.5715,-6.5821,-6.5884,-6.597,-6.6063,-6.608,-6.6123,-6.6144,-6.6175,-6.6185,-6.6185,-6.6185,-6.6185,-6.6185,-6.6185,-6.6185,-6.6185,-6.6185,-6.6185,-6.6185,-6.6185,-6.6185,-6.6185,-6.6185,-6.6185,-6.6185,-6.6185,-6.4638,-6.3719,-6.3719,-6.2046,-6.1118,-6.1118,-6.1118,-6.1118,-6.1118,-6.1118,-6.0488,-5.9332,-5.7684,-5.6667,0.0,0.0,0.0,0.0,0.0,0.0,-4.7241,-4.7634,-4.8121,0.0,0.0,0.0,0.0,0.0,0.0,0.0,0.0,0.0,0.0,0.0,0.0,0.0,0.0,0.0,0.0,-4.8403,-4.8389,-4.8392,-4.8392,-4.874,-4.9513,-4.9552,-4.9939,-5.0743,-5.0782,-5.0821,-5.0898,-5.0898,-5.1331,-5.2229,-5.3072,-5.3962,-5.4813,-5.5625,-5.5986,-5.598,-5.598,-5.5961,-5.5953,-5.6676,-5.7919,-5.9331,-5.9469,-5.9985,-6.0677,-6.0695,-6.071,-6.0697,-6.0623,-6.0597,-6.0597,-6.0585,-6.116,-6.1952,-6.2779,-6.3632,-6.4461,-6.5229,-6.5465,-6.5552,-6.5767,-6.5808,-6.5846,-6.5958,-6.6063,-6.6102,-6.6112,-6.6155,-6.6185,-6.6185,-6.6185,-6.6185,-6.6185,-6.6185,-6.6185,-6.6185,-6.6195,-6.6195,-6.6195,-6.6205,-6.6205,-6.6205,-6.6205,-6.6205,-6.6195,-6.6195,-6.6195,-6.6185,-6.4638,-6.3719,-6.3719,-6.2046,-6.1118,-6.1118,-6.1118,-6.1118,-6.1118,-6.0925,-6.0053,-5.8549,-5.6892,-5.6133,0.0,0.0,0.0,0.0,0.0,0.0,-4.7125,-4.6706,-4.631,0.0,0.0,0.0,0.0,0.0,0.0,0.0,0.0,0.0,0.0,0.0,0.0,0.0,0.0,0.0,0.0,-4.8421,-4.8399,-4.8392,-4.8392,-4.8469,-4.8624,-4.8662,-4.9049,-4.99,-4.9939,-5.0241,-5.0898,-5.0898,-5.1331,-5.2229,-5.3072,-5.3962,-5.4813,-5.5625,-5.6003,-5.5995,-5.5995,-5.5986,-5.5977,-5.6134,-5.6782,-5.7814,-5.9153,-5.9738,-5.9926,-6.0607,-6.0843,-6.0757,-6.0697,-6.0673,-6.066,-6.0597,-6.116,-6.1965,-6.282,-6.3702,-6.4545,-6.5336,-6.566,-6.5753,-6.578,-6.5885,-6.5958,-6.5978,-6.6047,-6.6112,-6.6155,-6.6175,-6.6185,-6.6185,-6.6185,-6.6185,-6.6185,-6.6185,-6.6185,-6.6185,-6.6264,-6.6293,-6.6293,-6.6331,-6.6349,-6.6349,-6.6349,-6.634,-6.6293,-6.6293,-6.6274,-6.6185,-6.4638,-6.3719,-6.3719,-6.2046,-6.1118,-6.1118,-6.1118,-6.1118,-6.1118,-5.9764,-5.8922,-5.8544,-5.6875,-5.6117,0.0,0.0,0.0,-4.9062,0.0,0.0,0.0,-4.676,-4.6348,0.0,0.0,0.0,0.0,0.0,0.0,0.0,0.0,0.0,0.0,0.0,0.0,0.0,0.0,0.0,0.0,-4.7157,-4.7136,-4.7122,-4.7115,-4.727,-4.7734,-4.7734,-4.8159,-4.901,-4.9475,-4.99,-5.0279,-5.0705,-5.113,-5.1563,-5.2453,-5.3304,-5.4194,-5.5006,-5.5625,-5.6012,-5.6012,-5.6012,-5.6003,-5.5986,-5.623,-5.6743,-5.8422,-5.9318,-5.9749,-6.0646,-6.0933,-6.09,-6.0804,-6.0781,-6.0769,-6.071,-6.0954,-6.1453,-6.2299,-6.3411,-6.4586,-6.5457,-6.5767,-6.5807,-6.5885,-6.5933,-6.6017,-6.6036,-6.6102,-6.6155,-6.6175,-6.6185,-6.6185,-6.6185,-6.6185,-6.6185,-6.6185,-6.6185,-6.6195,-6.6225,-6.6293,-6.6312,-6.634,-6.6367,-6.6385,-6.6385,-6.6385,-6.6376,-6.6349,-6.6322,-6.61,-6.5616,-6.4426,-6.3526,-6.3052,-6.1814,-6.1118,-6.1118,-6.1118,-6.1118,-6.1118,-5.9841,-5.9029,-5.8574,-5.7276,-5.6471,0.0,0.0,0.0,0.0,0.0,-4.9139,0.0,0.0,0.0,0.0,0.0,0.0,0.0,0.0,0.0,0.0,0.0,0.0,0.0,0.0,0.0,0.0,0.0,0.0,0.0,-4.5538,-4.5641,-4.5575,-4.5729,-4.6116,-4.6806,-4.6844,-4.7231,-4.8121,-4.901,-4.9513,-4.9707,-5.0511,-5.0898,-5.0898,-5.1796,-5.2655,-5.3536,-5.4387,-5.5238,-5.6012,-5.6012,-5.6012,-5.6012,-5.6012,-5.6012,-5.6158,-5.7622,-5.8703,-5.958,-6.0468,-6.0882,-6.0987,-6.0944,-6.0922,-6.0922,-6.0877,-6.0931,-6.1177,-6.1798,-6.3169,-6.4588,-6.5371,-6.5705,-6.5859,-6.5972,-6.6017,-6.6036,-6.6091,-6.6144,-6.6185,-6.6185,-6.6185,-6.6185,-6.6185,-6.6185,-6.6185,-6.6185,-6.6195,-6.6254,-6.6303,-6.6322,-6.6349,-6.6385,-6.6403,-6.6411,-6.6411,-6.6411,-6.6403,-6.6394,-6.6358,-6.5943,-6.5073,-6.4183,-6.3333,-6.2433,-6.1543,-6.1118,-6.1118,-6.1118,-6.1118,-6.1118,-6.046,-5.9609,-5.8574,-5.7714,-5.6815,0.0,0.0,0.0,0.0,-5.0113,0.0,0.0,0.0,0.0,0.0,0.0,0.0,0.0,0.0,0.0,0.0,0.0,0.0,0.0,0.0,0.0,0.0,0.0,0.0,0.0,0.0,-4.4755,-4.4755,-4.5413,-4.5845,-4.5923,-4.5962,-4.6348,-4.7231,-4.8082,-4.8933,-4.9707,-5.0511,-5.0898,-5.0898,-5.1796,-5.2655,-5.3536,-5.4387,-5.5238,-5.6012,-5.6012,-5.6012,-5.6012,-5.6012,-5.6012,-5.6081,-5.7039,-5.793,-5.8742,-5.9601,-6.0383,-6.0987,-6.0987,-6.0987,-6.0976,-6.0976,-6.1406,-6.1967,-6.2062,-6.3269,-6.4603,-6.4731,-6.5358,-6.5984,-6.5996,-6.6052,-6.6091,-6.6102,-6.6144,-6.6185,-6.6185,-6.6185,-6.6185,-6.6185,-6.6185,-6.6185,-6.6185,-6.6264,-6.6303,-6.6303,-6.6338,-6.6389,-6.6398,-6.6431,-6.6493,-6.6493,-6.6493,-6.6477,-6.6398,-6.6389,-6.6006,-6.5073,-6.425,-6.337,-6.2433,-6.1543,-6.1118,-6.1118,-6.1118,-6.1118,-6.1118,-6.1002,-6.0151,-5.8574,-5.7714,-5.6815,0.0,0.0,0.0,0.0,0.0,0.0,-4.9351,0.0,-4.7618,0.0,0.0,0.0,0.0,0.0,0.0,0.0,0.0,0.0,0.0,0.0,0.0,0.0,0.0,0.0,0.0,0.0,0.0,0.0,-4.491,-4.5297,-4.5768,-4.5807,-4.5962,-4.6348,-4.7695,-4.8585,-4.8933,-5.0241,-5.0898,-5.0898,-5.1254,-5.1912,-5.2771,-5.3652,-5.4503,-5.5316,-5.5818,-5.6012,-5.6012,-5.6012,-5.6012,-5.6051,-5.639,-5.7077,-5.7987,-5.935,-6.0065,-6.0432,-6.0866,-6.101,-6.1,-6.1008,-6.1208,-6.1533,-6.2012,-6.3003,-6.4082,-6.4582,-6.5338,-6.6017,-6.6063,-6.6069,-6.6112,-6.6144,-6.6165,-6.6185,-6.6185,-6.6185,-6.6185,-6.6185,-6.6185,-6.6195,-6.6264,-6.6293,-6.6312,-6.6349,-6.6364,-6.6414,-6.6439,-6.6493,-6.6508,-6.6508,-6.6508,-6.6501,-6.6446,-6.5995,-6.5303,-6.4416,-6.3038,-6.2093,-6.166,-6.1311,-6.1118,-6.1118,-6.1118,-6.1118,-6.1118,-6.1118,-6.0499,-5.9339,-5.8449,-5.7598,-5.2954,0.0,0.0,0.0,0.0,0.0,0.0,0.0,0.0,0.0,0.0,0.0,0.0,0.0,0.0,0.0,0.0,0.0,0.0,0.0,0.0,0.0,0.0,0.0,0.0,0.0,0.0,-4.3827,-4.4323,-4.4871,-4.5452,-4.5691,-4.5807,-4.5807,-4.727,-4.8159,-4.8392,-4.9861,-5.0666,-5.0898,-5.0898,-5.137,-5.2229,-5.3111,-5.3962,-5.4851,-5.5664,-5.6012,-5.6012,-5.6012,-5.6012,-5.6012,-5.6012,-5.639,-5.7125,-5.8642,-5.9493,-5.9996,-6.05,-6.0829,-6.1012,-6.1,-6.1018,-6.1095,-6.1692,-6.2453,-6.334,-6.4188,-6.506,-6.5777,-6.6052,-6.6112,-6.6134,-6.6175,-6.6185,-6.6185,-6.6185,-6.6185,-6.6185,-6.6185,-6.6185,-6.6205,-6.6293,-6.6322,-6.634,-6.6394,-6.6437,-6.6431,-6.6501,-6.6508,-6.6508,-6.6508,-6.6508,-6.6392,-6.6159,-6.5545,-6.4714,-6.3612,-6.2103,-6.1182,-6.1137,-6.1137,-6.1127,-6.1118,-6.1118,-6.1118,-6.1118,-6.1118,-6.0809,-6.019,-5.9339,-5.8372,0.0,0.0,0.0,-5.2069,0.0,0.0,0.0,0.0,-4.9165,0.0,0.0,0.0,0.0,0.0,0.0,0.0,0.0,0.0,0.0,0.0,0.0,0.0,0.0,0.0,0.0,0.0,0.0,-4.2086,-4.3634,-4.4594,-4.4632,-4.5374,-4.5807,-4.5807,-4.6651,-4.754,-4.8392,-4.9281,-5.0132,-5.0898,-5.0898,-5.137,-5.2229,-5.3111,-5.3962,-5.4851,-5.5664,-5.6012,-5.6012,-5.6012,-5.6012,-5.6012,-5.6012,-5.6012,-5.6158,-5.7048,-5.8449,-5.988,-5.9919,-6.046,-6.1109,-6.1022,-6.1002,-6.0992,-6.1046,-6.1604,-6.2414,-6.3301,-6.4194,-6.5136,-6.5908,-6.6144,-6.6185,-6.6185,-6.6185,-6.6185,-6.6185,-6.6185,-6.6185,-6.6185,-6.6185,-6.6205,-6.6293,-6.6349,-6.6394,-6.6398,-6.6477,-6.6508,-6.6508,-6.6508,-6.6508,-6.6508,-6.6508,-6.6159,-6.5297,-6.5219,-6.4466,-6.2766,-6.1787,-6.1272,-6.1182,-6.1182,-6.1164,-6.1118,-6.1118,-6.1118,-6.1118,-6.1118,-6.1079,-6.1041,-6.0228,-5.8952,0.0,0.0,-5.3546,-5.2387,0.0,0.0,0.0,0.0,0.0,0.0,0.0,0.0,0.0,0.0,0.0,0.0,0.0,0.0,0.0,0.0,0.0,0.0,0.0,0.0,0.0,0.0,0.0,-4.197,-4.3092,-4.3982,-4.4555,-4.5374,-4.5807,-4.5807,-4.7192,-4.8082,-4.8392,-4.9784,-5.0627,-5.0898,-5.0898,-5.1053,-5.1409,-5.284,-5.3652,-5.4,-5.5393,-5.6012,-5.6012,-5.6012,-5.6012,-5.6012,-5.6012,-5.6012,-5.6128,-5.697,-5.8023,-5.9184,-6.0306,-6.0886,-6.1118,-6.106,-6.1051,-6.109,-6.107,-6.164,-6.2374,-6.2684,-6.3825,-6.5043,-6.5304,-6.5788,-6.6185,-6.6185,-6.6185,-6.6185,-6.6185,-6.6185,-6.6185,-6.6185,-6.6185,-6.6254,-6.634,-6.6367,-6.6394,-6.6398,-6.6439,-6.6508,-6.6508,-6.6508,-6.6508,-6.6508,-6.5965,-6.553,-6.5219,-6.4178,-6.3036,-6.1826,-6.1462,-6.1283,-6.1281,-6.1272,-6.1217,-6.1164,-6.1164,-6.1164,-6.1164,-6.1164,-6.1182,-6.1217,-6.0945,-5.9882,-5.5238,-5.4928,0.0,-5.2953,-5.2398,0.0,-5.1091,0.0,0.0,0.0,0.0,0.0,0.0,0.0,0.0,0.0,0.0,0.0,0.0,0.0,0.0,0.0,0.0,0.0,0.0,0.0,-4.1009,-4.1545,-4.2357,-4.3208,0.0,0.0,-4.549,-4.5807,-4.7192,-4.8082,-4.8392,-4.9784,-5.0627,-5.0898,-5.0898,-5.0898,-5.0975,-5.2724,-5.3498,-5.3575,-5.5277,-5.6012,-5.6012,-5.6012,-5.6012,-5.6012,-5.6012,-5.6012,-5.6089,-5.6622,-5.7598,-5.8836,-6.0538,-6.1118,-6.1118,-6.1118,-6.1118,-6.1118,-6.1118,-6.1505,-6.2008,-6.2317,-6.3207,-6.4135,-6.4454,-6.5141,-6.576,-6.576,-6.5992,-6.6185,-6.6185,-6.6185,-6.6185,-6.6185,-6.5953,-6.58,-6.5941,-6.5687,-6.5705,-6.6345,-6.6454,-6.6508,-6.6508,-6.6508,-6.6392,-6.6081,-6.553,-6.4947,-6.4372,-6.3051,-6.1988,-6.1383,-6.1337,-6.1322,-6.1283,-6.1283,-6.1259,-6.1255,-6.1255,-6.1255,-6.1255,-6.1255,-6.1272,-6.1297,-6.1314,-6.053]},{"header":{"parameterUnit":"m.s-1","parameterCategory":1,"la1":30.6,"la2":29.2853,"lo1":-89.7004,"lo2":-87.6739,"dy":0.0162,"dx":0.0183,"nx":112,"ny":82,"refTime":"2023-03-09T18:00:00:Z","depth":0,"parameterNumber":3,"parameterNumberName":"V-component_of_WINDS"},"data":[0.0,0.0,0.0,0.0,0.0,0.0,0.0,0.0,0.0,0.0,0.0,0.0,0.0,0.0,0.0,0.0,0.0,0.0,0.0,0.0,0.0,0.0,0.0,0.0,0.0,0.0,0.0,0.0,0.0,0.0,0.0,0.0,0.0,0.0,0.0,0.0,0.0,0.0,0.0,0.0,0.0,0.0,0.0,0.0,0.0,0.0,0.0,0.0,0.0,0.0,0.0,0.0,0.0,0.0,0.0,0.0,0.0,0.0,0.0,0.0,0.0,0.0,0.0,0.0,0.0,0.0,0.0,0.0,0.0,0.0,0.0,0.0,0.0,0.0,0.0,0.0,0.0,0.0,0.0,0.0,0.0,0.0,0.0,0.0,0.0,0.0,0.0,0.0,0.0,0.0,-0.6225,-0.6518,-0.6558,-0.6632,-0.6652,-0.6299,-0.5827,-0.5281,0.0,0.0,0.0,0.0,0.0,0.0,0.0,0.0,0.0,0.0,0.0,0.0,0.0,0.0,0.0,0.0,0.0,0.0,0.0,0.0,0.0,0.0,0.0,0.0,0.0,0.0,0.0,0.0,0.0,0.0,0.0,0.0,0.0,0.0,0.0,0.0,0.0,0.0,0.0,0.0,0.0,0.0,0.0,0.0,0.0,0.0,0.0,0.0,0.0,0.0,0.0,0.0,0.0,0.0,0.0,0.0,0.0,0.0,0.0,0.0,0.0,0.0,0.0,0.0,0.0,0.0,0.0,0.0,0.0,0.0,0.0,0.0,0.0,0.0,0.0,0.0,0.0,0.0,0.0,0.0,0.0,0.0,0.0,0.0,0.0,0.0,0.0,0.0,0.0,0.0,0.0,0.0,0.0,0.0,0.0,0.0,0.0,0.0,0.0,0.0,0.0,0.0,0.0,0.0,-0.6498,-0.704,-0.7095,-0.7004,-0.6884,-0.6552,-0.6115,-0.5577,0.0,0.0,0.0,0.0,0.0,0.0,0.0,0.0,0.0,0.0,0.0,0.0,0.0,0.0,0.0,0.0,0.0,0.0,0.0,0.0,0.0,0.0,0.0,0.0,0.0,0.0,0.0,0.0,0.0,0.0,0.0,0.0,0.0,0.0,0.0,0.0,0.0,0.0,0.0,0.0,0.0,0.0,0.0,0.0,0.0,0.0,0.0,0.0,0.0,0.0,0.0,0.0,0.0,0.0,0.0,0.0,0.0,0.0,0.0,0.0,0.0,0.0,0.0,0.0,0.0,0.0,0.0,0.0,0.0,0.0,0.0,0.0,0.0,0.0,0.0,0.0,0.0,0.0,0.0,0.0,0.0,0.0,0.0,0.0,0.0,0.0,0.0,0.0,0.0,0.0,0.0,0.0,0.0,0.0,0.0,0.0,0.0,0.0,0.0,0.0,0.0,0.0,0.0,-0.6442,-0.6709,-0.7166,-0.721,-0.7147,-0.7101,-0.679,-0.6386,-0.5907,-0.5494,0.0,0.0,0.0,0.0,0.0,0.0,0.0,0.0,0.0,0.0,0.0,0.0,0.0,0.0,0.0,0.0,0.0,0.0,0.0,0.0,0.0,0.0,0.0,0.0,0.0,0.0,0.0,0.0,0.0,0.0,0.0,0.0,0.0,0.0,0.0,0.0,0.0,0.0,0.0,0.0,0.0,0.0,0.0,0.0,0.0,0.0,0.0,0.0,0.0,0.0,0.0,0.0,0.0,0.0,0.0,0.0,0.0,0.0,0.0,0.0,0.0,0.0,0.0,0.0,0.0,0.0,0.0,0.0,0.0,0.0,0.0,0.0,0.0,0.0,0.0,0.0,0.0,0.0,0.0,0.0,0.0,0.0,0.0,0.0,0.0,0.0,0.0,0.0,0.0,0.0,0.0,0.0,0.0,0.0,0.0,0.0,0.0,0.0,0.0,0.0,0.0,0.0,-0.6671,-0.6915,-0.7265,-0.7243,-0.7214,-0.7366,-0.7024,-0.6594,-0.6208,-0.5876,0.0,0.0,0.0,0.0,0.0,0.0,0.0,0.0,0.0,0.0,0.0,0.0,0.0,0.0,0.0,0.0,0.0,0.0,0.0,0.0,0.0,0.0,0.0,0.0,0.0,0.0,0.0,0.0,0.0,0.0,0.0,0.0,0.0,0.0,0.0,0.0,0.0,0.0,0.0,0.0,0.0,0.0,0.0,0.0,0.0,0.0,0.0,0.0,0.0,0.0,0.0,0.0,0.0,0.0,0.0,0.0,0.0,0.0,0.0,0.0,0.0,0.0,0.0,0.0,0.0,0.0,0.0,0.0,0.0,0.0,0.0,0.0,0.0,0.0,0.0,0.0,0.0,0.0,0.0,0.0,0.0,0.0,0.0,0.0,0.0,0.0,0.0,0.0,0.0,0.0,0.0,0.0,0.0,0.0,0.0,0.0,0.0,0.0,0.0,0.0,0.0,0.0,-0.6719,-0.698,-0.7442,-0.729,-0.7308,-0.7486,-0.7073,-0.6698,-0.6403,-0.5967,0.0,0.0,0.0,0.0,0.0,0.0,0.0,0.0,0.0,0.0,0.0,0.0,0.0,0.0,0.0,0.0,0.0,0.0,0.0,0.0,0.0,0.0,0.0,0.0,0.0,0.0,0.0,0.0,0.0,0.0,0.0,0.0,0.0,0.0,0.0,0.0,0.0,0.0,0.0,0.0,0.0,0.0,0.0,0.0,0.0,0.0,0.0,0.0,0.0,0.0,0.0,0.0,0.0,0.0,0.0,0.0,0.0,0.0,0.0,0.0,0.0,0.0,0.0,0.0,0.0,0.0,0.0,0.0,0.0,0.0,0.0,0.0,0.0,0.0,0.0,0.0,0.0,0.0,0.0,0.0,0.0,0.0,0.0,0.0,0.0,0.0,0.0,0.0,0.0,0.0,0.0,0.0,0.0,0.0,0.0,0.0,0.0,0.0,0.0,0.0,0.0,0.0,-0.6774,-0.6986,0.0,-0.7301,-0.7252,-0.7497,-0.7078,-0.6698,-0.6403,0.0,0.0,0.0,0.0,0.0,0.0,0.0,0.0,0.0,0.0,0.0,0.0,0.0,0.0,0.0,0.0,0.0,0.0,0.0,0.0,0.0,0.0,0.0,0.0,0.0,0.0,0.0,0.0,0.0,0.0,0.0,0.0,0.0,0.0,0.0,0.0,0.0,0.0,0.0,0.0,0.0,0.0,0.0,0.0,0.0,0.0,0.0,0.0,0.0,0.0,0.0,0.0,0.0,0.0,0.0,0.0,0.0,0.0,0.0,0.0,0.0,0.0,0.0,0.0,0.0,0.0,0.0,0.0,0.0,0.0,0.0,0.0,0.0,0.0,0.0,0.0,0.0,0.0,0.0,0.0,0.0,0.0,0.0,0.0,0.0,0.0,0.0,0.0,0.0,0.0,0.0,0.0,0.0,0.0,0.0,0.0,0.0,0.0,0.0,0.0,0.0,0.0,-0.6741,-0.6801,-0.697,0.0,-0.7279,-0.7236,-0.7442,-0.7056,-0.6698,-0.6403,0.0,0.0,0.0,0.0,0.0,0.0,0.0,0.0,0.0,0.0,0.0,0.0,0.0,0.0,0.0,0.0,0.0,0.0,0.0,0.0,0.0,0.0,0.0,0.0,0.0,0.0,0.0,0.0,0.0,0.0,0.0,0.0,0.0,0.0,0.0,0.0,0.0,0.0,0.0,0.0,0.0,0.0,0.0,0.0,0.0,0.0,0.0,0.0,0.0,0.0,0.0,0.0,0.0,0.0,0.0,0.0,0.0,0.0,0.0,0.0,0.0,0.0,0.0,0.0,0.0,0.0,0.0,0.0,0.0,0.0,0.0,0.0,0.0,0.0,0.0,0.0,0.0,0.0,0.0,0.0,0.0,0.0,0.0,0.0,0.0,0.0,0.0,0.0,0.0,0.0,0.0,0.0,0.0,0.0,0.0,0.0,0.0,0.0,0.0,0.0,0.0,0.0,-0.6689,-0.6801,-0.6942,-0.7239,-0.7225,-0.7203,-0.7271,-0.7008,-0.6698,0.0,0.0,0.0,0.0,0.0,0.0,0.0,0.0,0.0,0.0,0.0,0.0,0.0,0.0,0.0,0.0,0.0,0.0,0.0,0.0,0.0,0.0,0.0,0.0,0.0,0.0,0.0,0.0,0.0,0.0,0.0,0.0,0.0,0.0,0.0,0.0,0.0,0.0,0.0,0.0,0.0,0.0,0.0,0.0,0.0,0.0,0.0,0.0,0.0,0.0,0.0,0.0,0.0,0.0,0.0,0.0,0.0,0.0,0.0,0.0,0.0,0.0,0.0,0.0,0.0,0.0,0.0,0.0,0.0,0.0,0.0,0.0,0.0,0.0,0.0,0.0,0.0,0.0,0.0,0.0,0.0,0.0,0.0,0.0,0.0,0.0,0.0,0.0,0.0,0.0,0.0,0.0,0.0,0.0,0.0,0.0,0.0,0.0,0.0,0.0,0.0,0.0,0.0,-0.6689,-0.6801,-0.6942,-0.7239,-0.7225,-0.7203,-0.7271,-0.7008,-0.6698,-0.6403,0.0,0.0,0.0,0.0,0.0,0.0,0.0,0.0,0.0,0.0,0.0,0.0,0.0,0.0,0.0,0.0,0.0,0.0,0.0,0.0,0.0,0.0,0.0,0.0,0.0,0.0,0.0,0.0,0.0,0.0,0.0,0.0,0.0,0.0,0.0,0.0,0.0,0.0,0.0,0.0,0.0,0.0,0.0,0.0,0.0,0.0,0.0,0.0,0.0,0.0,0.0,0.0,0.0,0.0,0.0,0.0,0.0,0.0,0.0,0.0,0.0,0.0,0.0,0.0,0.0,0.0,0.0,0.0,0.0,0.0,0.0,0.0,0.0,0.0,0.0,0.0,0.0,0.0,0.0,0.0,0.0,0.0,0.0,0.0,0.0,0.0,0.0,0.0,0.0,0.0,0.0,0.0,0.0,0.0,0.0,0.0,0.0,0.0,0.0,0.0,0.0,0.0,-0.6532,-0.6748,-0.6921,-0.723,-0.7198,-0.7237,-0.7258,-0.698,-0.6719,-0.6473,0.0,0.0,0.0,0.0,0.0,0.0,0.0,0.0,0.0,0.0,0.0,0.0,0.0,0.0,0.0,0.0,0.0,0.0,0.0,0.0,0.0,0.0,0.0,0.0,0.0,0.0,0.0,0.0,0.0,0.0,0.0,0.0,0.0,0.0,0.0,0.0,0.0,0.0,0.0,0.0,0.0,0.0,0.0,0.0,0.0,0.0,0.0,0.0,0.0,0.0,0.0,0.0,0.0,0.0,0.0,0.0,0.0,0.0,0.0,0.0,0.0,0.0,0.0,0.0,0.0,0.0,0.0,0.0,0.0,0.0,0.0,0.0,0.0,0.0,0.0,0.0,0.0,0.0,0.0,0.0,0.0,0.0,0.0,0.0,0.0,0.0,0.0,0.0,0.0,0.0,0.0,0.0,0.0,0.0,0.0,0.0,0.0,0.0,0.0,0.0,0.0,0.0,-0.6333,-0.6648,-0.6904,-0.7188,-0.721,-0.721,-0.721,-0.6937,-0.6752,-0.6627,0.0,0.0,0.0,0.0,0.0,0.0,0.0,0.0,0.0,0.0,0.0,0.0,0.0,0.0,0.0,0.0,0.0,0.0,0.0,0.0,0.0,0.0,0.0,0.0,0.0,0.0,0.0,0.0,0.0,0.0,0.0,0.0,0.0,0.0,0.0,0.0,0.0,0.0,0.0,0.0,0.0,0.0,0.0,0.0,0.0,0.0,0.0,0.0,0.0,0.0,0.0,0.0,0.0,0.0,0.0,0.0,0.0,0.0,0.0,0.0,-1.1232,0.0,0.0,0.0,0.0,0.0,0.0,0.0,0.0,0.0,0.0,0.0,0.0,0.0,0.0,0.0,0.0,0.0,0.0,0.0,0.0,0.0,0.0,0.0,0.0,0.0,0.0,0.0,0.0,0.0,0.0,0.0,0.0,0.0,0.0,0.0,0.0,0.0,0.0,0.0,0.0,0.0,-0.6343,-0.6722,-0.6997,-0.7193,-0.721,-0.721,-0.721,-0.6937,-0.6752,-0.6627,-0.6285,0.0,0.0,0.0,0.0,0.0,0.0,0.0,0.0,0.0,0.0,0.0,0.0,0.0,0.0,0.0,0.0,0.0,0.0,0.0,0.0,0.0,0.0,0.0,0.0,0.0,0.0,0.0,0.0,0.0,0.0,0.0,0.0,0.0,0.0,0.0,0.0,0.0,0.0,0.0,0.0,0.0,0.0,0.0,0.0,0.0,0.0,0.0,0.0,0.0,0.0,0.0,0.0,0.0,0.0,0.0,0.0,0.0,0.0,0.0,0.0,-1.1492,0.0,0.0,0.0,0.0,0.0,0.0,0.0,0.0,0.0,0.0,0.0,0.0,0.0,0.0,0.0,0.0,0.0,0.0,0.0,0.0,0.0,0.0,0.0,0.0,0.0,0.0,0.0,0.0,0.0,0.0,0.0,0.0,0.0,0.0,0.0,0.0,0.0,0.0,0.0,0.0,-0.6353,-0.6636,-0.6882,-0.722,-0.7243,-0.7232,-0.7236,-0.7024,-0.6839,-0.6714,-0.642,0.0,0.0,0.0,0.0,0.0,0.0,0.0,0.0,0.0,0.0,0.0,0.0,0.0,0.0,0.0,0.0,0.0,0.0,0.0,0.0,0.0,0.0,0.0,0.0,0.0,0.0,0.0,0.0,0.0,0.0,0.0,0.0,0.0,0.0,0.0,0.0,0.0,0.0,0.0,0.0,0.0,0.0,0.0,0.0,0.0,0.0,0.0,0.0,0.0,0.0,0.0,0.0,0.0,-1.3019,-1.3019,-1.3019,-1.3019,-1.3019,-1.2986,-1.2402,-1.206,-1.1906,-1.1752,0.0,0.0,0.0,0.0,0.0,0.0,0.0,0.0,0.0,0.0,0.0,0.0,0.0,0.0,0.0,0.0,0.0,0.0,0.0,0.0,0.0,0.0,0.0,0.0,-0.7519,-0.7352,0.0,0.0,0.0,0.0,0.0,0.0,0.0,0.0,0.0,0.0,0.0,0.0,-0.6283,-0.6467,-0.6729,-0.7204,-0.7247,-0.7225,-0.7271,-0.7122,-0.6931,-0.6812,-0.6522,-0.6344,0.0,0.0,0.0,0.0,0.0,0.0,0.0,0.0,0.0,0.0,0.0,0.0,0.0,0.0,0.0,0.0,0.0,0.0,0.0,0.0,0.0,0.0,0.0,0.0,0.0,0.0,0.0,0.0,0.0,0.0,0.0,0.0,-1.0908,-1.1077,0.0,0.0,0.0,0.0,0.0,0.0,0.0,0.0,0.0,0.0,0.0,0.0,0.0,-1.2905,-1.3262,-1.3262,-1.3433,-1.3758,-1.3758,-1.3758,-1.3758,-1.3758,-1.3758,-1.3758,-1.366,0.0,-1.2522,-1.2498,0.0,0.0,0.0,0.0,0.0,0.0,0.0,0.0,0.0,0.0,0.0,0.0,0.0,0.0,0.0,0.0,0.0,0.0,0.0,0.0,0.0,0.0,-0.8171,-0.7624,-0.7519,-0.7502,0.0,-0.7032,-0.6663,-0.6394,-0.6142,0.0,0.0,0.0,0.0,0.0,0.0,0.0,-0.6133,-0.6543,-0.6853,-0.694,-0.7152,-0.7261,-0.7277,-0.7122,-0.6931,-0.6812,-0.6527,-0.6338,-0.63,-0.6024,0.0,0.0,0.0,0.0,0.0,0.0,0.0,0.0,0.0,0.0,0.0,0.0,0.0,0.0,0.0,0.0,0.0,0.0,0.0,0.0,0.0,0.0,0.0,0.0,0.0,0.0,0.0,0.0,0.0,-1.0948,-1.1175,-1.1354,-1.1468,-1.1573,0.0,0.0,0.0,0.0,0.0,0.0,0.0,0.0,0.0,-1.3019,-1.3287,-1.3604,-1.3961,-1.3969,-1.4148,-1.4497,-1.4497,-1.4497,-1.4497,-1.4497,-1.4497,-1.4489,-1.4399,-1.4075,-1.3579,-1.3181,-1.2865,-1.2596,0.0,0.0,0.0,0.0,-1.1882,-1.1939,-1.1857,-1.189,0.0,-1.1736,0.0,0.0,0.0,0.0,0.0,0.0,0.0,0.0,0.0,0.0,-0.8624,-0.8027,-0.7921,-0.7883,-0.7747,-0.7574,-0.7332,0.0,-0.6779,-0.6619,-0.6385,0.0,0.0,0.0,0.0,-0.6084,-0.6134,-0.628,-0.6589,-0.6998,-0.7132,-0.7211,-0.7379,-0.7279,-0.7073,-0.6817,-0.6703,-0.6535,-0.6328,-0.61,-0.5975,0.0,0.0,0.0,0.0,0.0,0.0,0.0,0.0,0.0,0.0,0.0,0.0,0.0,0.0,0.0,0.0,0.0,0.0,0.0,0.0,0.0,0.0,0.0,0.0,0.0,0.0,0.0,0.0,-1.1281,-1.1468,-1.1744,-1.189,-1.2044,0.0,0.0,0.0,0.0,0.0,0.0,-1.31,-1.3449,-1.3644,-1.3644,-1.3985,-1.4326,-1.4635,-1.4684,-1.4862,-1.5171,-1.5171,-1.5171,-1.5171,-1.513,-1.5106,-1.5098,-1.4968,-1.4814,-1.4578,-1.3872,-1.3441,-1.3206,-1.2889,-1.2743,-1.2678,-1.2507,-1.2467,-1.2499,-1.2458,-1.2467,-1.2483,-1.2296,-1.2207,-1.2109,-1.1801,0.0,0.0,0.0,0.0,-1.0468,-0.9358,-0.9094,-0.8947,-0.8469,-0.83,-0.8187,-0.8002,-0.7964,-0.7823,0.0,-0.7303,-0.7171,-0.6931,0.0,0.0,0.0,0.0,-0.6028,-0.613,-0.6084,-0.6331,-0.702,-0.7084,-0.7199,-0.746,-0.7347,-0.7198,-0.6872,-0.6817,-0.6671,-0.6372,-0.6214,-0.6072,-0.5953,0.0,0.0,0.0,0.0,0.0,0.0,0.0,0.0,0.0,0.0,0.0,0.0,0.0,0.0,0.0,0.0,0.0,0.0,0.0,0.0,0.0,0.0,0.0,0.0,0.0,0.0,0.0,0.0,0.0,-1.245,-1.2515,0.0,0.0,0.0,0.0,-1.3303,-1.3327,-1.3482,-1.3831,-1.4188,-1.4375,-1.4375,-1.4724,-1.5009,-1.5195,-1.5374,-1.5553,-1.5731,-1.5731,-1.5731,-1.5723,-1.5561,-1.5488,-1.5488,-1.548,-1.5366,-1.5147,-1.4432,-1.3937,-1.3526,-1.3409,-1.3222,-1.3043,-1.2873,-1.2913,-1.3027,-1.2865,-1.2913,-1.3027,-1.2848,-1.2678,-1.2507,-1.232,-1.2264,0.0,0.0,-1.1247,-1.1002,-0.9989,-0.9488,-0.9182,-0.8869,-0.8492,-0.8167,-0.8156,-0.8214,-0.8073,0.0,-0.7502,-0.7421,-0.7232,0.0,-0.6659,-0.6497,-0.6083,-0.585,-0.6009,-0.6183,-0.6428,-0.6801,-0.703,-0.7282,-0.7471,-0.7347,-0.7236,-0.6991,-0.6866,-0.6741,-0.6605,-0.6382,-0.6251,-0.6078,-0.5958,0.0,0.0,0.0,0.0,0.0,0.0,0.0,0.0,0.0,0.0,0.0,0.0,0.0,0.0,0.0,0.0,0.0,0.0,0.0,0.0,0.0,0.0,0.0,0.0,0.0,0.0,0.0,0.0,-1.3019,-1.3084,0.0,-1.349,-1.3628,-1.3798,-1.4034,-1.4164,-1.4335,-1.457,-1.4935,-1.513,-1.513,-1.5472,-1.5748,-1.5918,-1.5991,-1.6113,-1.6292,-1.6292,-1.6292,-1.6292,-1.6227,-1.6137,-1.6016,-1.5902,-1.5748,-1.5553,-1.5187,-1.4757,-1.4302,-1.401,-1.3847,-1.3766,-1.3587,-1.3563,-1.3604,-1.3547,-1.3563,-1.3587,-1.3417,-1.3149,-1.2897,-1.2832,-1.2735,-1.245,-1.18,-1.1687,-1.1505,-1.0432,-0.9971,-0.9704,-0.9367,-0.8901,-0.8557,-0.8481,-0.8405,-0.828,-0.803,-0.7856,-0.7611,-0.7143,-0.6992,-0.6747,-0.6308,-0.6107,-0.5991,-0.5911,-0.592,-0.6223,-0.6775,-0.6962,-0.713,-0.7476,-0.7481,-0.7317,-0.7002,-0.6872,-0.6747,-0.6627,-0.6393,-0.6295,-0.6251,-0.6007,-0.5882,0.0,0.0,0.0,0.0,0.0,0.0,0.0,0.0,0.0,0.0,0.0,0.0,0.0,0.0,0.0,0.0,0.0,0.0,0.0,0.0,0.0,0.0,0.0,0.0,0.0,0.0,-1.3124,-1.3669,-1.3782,-1.3961,-1.4318,-1.4464,-1.4635,-1.4862,-1.5,-1.5147,-1.5325,-1.5618,-1.578,-1.578,-1.6073,-1.6284,-1.6397,-1.6454,-1.6552,-1.6674,-1.6674,-1.6674,-1.6674,-1.6609,-1.6511,-1.6389,-1.6211,-1.6064,-1.5934,-1.5699,-1.539,-1.5033,-1.4676,-1.4497,-1.4424,-1.4245,-1.4172,-1.4164,-1.4099,-1.4083,-1.4042,-1.3807,-1.3563,-1.3344,-1.3222,-1.3108,-1.2885,-1.2283,-1.209,-1.1908,-1.1077,-1.0541,-1.0197,-0.9781,-0.9371,-0.9001,-0.8744,-0.859,-0.8492,-0.8329,-0.8133,-0.7859,-0.7383,-0.7109,-0.6788,-0.6364,-0.6088,-0.5954,-0.5833,-0.5806,-0.6094,-0.6648,-0.6837,-0.6999,-0.7306,-0.746,-0.7383,-0.7062,-0.6893,-0.6763,-0.6681,-0.6453,-0.6306,-0.6317,-0.6067,-0.5964,-0.5964,0.0,0.0,0.0,0.0,0.0,0.0,0.0,0.0,0.0,0.0,0.0,0.0,0.0,0.0,0.0,0.0,0.0,0.0,0.0,0.0,0.0,0.0,0.0,-1.3116,-1.3433,-1.38,-1.4399,-1.4627,-1.4879,-1.5236,-1.5277,-1.5423,-1.578,-1.5813,-1.5894,-1.6073,-1.6243,-1.6341,-1.6341,-1.6519,-1.6609,-1.6609,-1.6779,-1.6782,-1.6774,-1.6774,-1.6774,-1.6766,-1.6674,-1.6592,-1.6576,-1.6397,-1.6316,-1.6276,-1.5934,-1.5788,-1.5748,-1.539,-1.5139,-1.496,-1.4797,-1.4732,-1.47,-1.4521,-1.4448,-1.4383,-1.4042,-1.392,-1.3855,-1.3506,-1.3392,-1.3324,-1.2903,-1.2559,-1.2214,-1.1793,-1.1179,-1.0556,-1.0209,-0.9793,-0.9406,-0.8944,-0.878,-0.8709,-0.8475,-0.8334,-0.8171,-0.7926,-0.7337,-0.6841,-0.6631,-0.6149,0.0,-0.579,-0.5863,-0.6039,-0.6342,-0.6714,-0.6938,-0.7018,-0.7285,-0.7415,-0.7226,-0.6931,-0.6801,-0.6801,-0.6567,-0.6382,-0.6322,-0.6154,-0.6089,-0.6083,0.0,0.0,0.0,0.0,0.0,0.0,0.0,0.0,0.0,0.0,0.0,0.0,0.0,0.0,0.0,0.0,0.0,0.0,0.0,0.0,0.0,0.0,-1.3677,-1.3677,-1.3985,-1.4464,-1.5139,-1.526,-1.548,-1.5967,-1.6129,-1.6308,-1.6544,-1.6674,-1.6763,-1.6812,-1.699,-1.7088,-1.7088,-1.7258,-1.7291,-1.7169,-1.7218,-1.7177,-1.7039,-1.7039,-1.7039,-1.7039,-1.699,-1.6893,-1.6779,-1.6722,-1.6552,-1.6292,-1.6194,-1.6081,-1.5934,-1.5577,-1.5407,-1.5358,-1.5309,-1.5212,-1.5082,-1.5033,-1.4846,-1.4619,-1.4521,-1.4399,-1.4245,-1.4026,-1.3961,-1.3857,-1.3295,-1.2902,-1.2548,-1.2201,-1.1491,-1.0779,-1.0488,-0.9995,-0.9496,-0.9111,-0.8965,-0.8856,-0.8704,-0.8644,-0.8453,-0.7869,-0.7623,-0.7292,-0.6732,-0.65,0.0,-0.5978,-0.5941,-0.6039,-0.6342,-0.6714,-0.6938,-0.7018,-0.7285,-0.7415,-0.7226,-0.6931,-0.6801,-0.6801,-0.6567,-0.6382,-0.6322,-0.6284,-0.6176,0.0,0.0,0.0,0.0,0.0,0.0,0.0,0.0,0.0,0.0,0.0,0.0,0.0,0.0,0.0,0.0,0.0,0.0,0.0,0.0,0.0,0.0,-1.3888,-1.4343,-1.4643,-1.4862,-1.5236,-1.5886,-1.6032,-1.6251,-1.6714,-1.6852,-1.699,-1.7169,-1.7274,-1.7331,-1.7331,-1.7437,-1.7494,-1.7494,-1.7591,-1.7591,-1.7494,-1.7421,-1.7331,-1.7226,-1.7145,-1.7112,-1.7112,-1.7112,-1.7055,-1.6958,-1.6798,-1.669,-1.6414,-1.6332,-1.6202,0.0,0.0,0.0,0.0,0.0,-1.5463,-1.5236,-1.5236,-1.5049,-1.4806,-1.4732,-1.4635,-1.4513,-1.4343,-1.4237,-1.4156,-1.3754,-1.3244,-1.2753,-1.2474,-1.1835,-1.1116,-1.0599,-1.0257,-0.9829,-0.9215,-0.9008,-0.8922,-0.8867,-0.8807,0.0,-0.8228,-0.7982,-0.7642,-0.7212,-0.6842,-0.6552,-0.6299,-0.6093,-0.6098,-0.6403,-0.6742,-0.6953,-0.7079,-0.7311,0.0,0.0,0.0,-0.6834,-0.673,-0.6489,0.0,0.0,0.0,-0.6301,-0.623,0.0,0.0,0.0,-0.6056,-0.598,0.0,0.0,0.0,0.0,0.0,0.0,0.0,0.0,0.0,0.0,0.0,0.0,0.0,0.0,0.0,0.0,-1.4464,-1.5074,-1.5764,-1.5902,-1.6105,-1.6584,-1.6803,-1.7055,-1.7413,-1.7445,-1.7518,-1.7689,-1.7697,-1.7697,-1.7697,0.0,0.0,0.0,0.0,-1.7689,-1.7672,-1.7526,-1.7429,-1.7388,-1.7218,-1.7128,-1.7112,-1.7112,-1.7112,-1.7104,-1.695,-1.6779,-1.66,-1.6414,-1.6219,-1.5966,-1.5966,-1.5966,-1.6024,-1.5861,-1.5577,-1.519,-1.519,0.0,0.0,-1.4789,-1.4741,-1.47,-1.4521,-1.4359,-1.4229,-1.4188,-1.3553,-1.2847,-1.2832,-1.2187,-1.1404,-1.0671,-1.0527,-1.0281,-0.9319,-0.9155,-0.9117,-0.8927,-0.8883,-0.8802,-0.8774,-0.8312,-0.7938,-0.777,-0.7172,-0.6781,-0.6717,-0.6315,-0.6126,-0.6491,0.0,0.0,-0.7165,-0.7407,-0.7464,-0.7288,-0.7116,-0.6877,-0.6627,-0.6462,-0.6398,-0.6387,-0.6387,-0.6387,-0.6387,-0.6387,-0.6387,-0.6381,-0.6208,-0.6105,0.0,0.0,0.0,0.0,0.0,0.0,0.0,0.0,0.0,0.0,0.0,0.0,0.0,0.0,0.0,-1.4464,-1.5122,-1.5772,-1.6341,-1.6674,-1.6893,-1.6998,-1.7169,-1.7421,-1.7778,-1.7819,-1.7884,-1.8062,-1.807,-1.807,-1.807,-1.807,-1.807,-1.807,-1.807,-1.8005,-1.7867,-1.7835,-1.7672,-1.7388,0.0,0.0,-1.7112,-1.7112,-1.7112,-1.7112,-1.708,-1.6958,-1.6787,-1.66,-1.6341,-1.5966,-1.5966,-1.5966,-1.5958,-1.6008,-1.5772,-1.5463,-1.5463,-1.5244,-1.496,-1.4927,-1.4919,-1.4887,-1.4708,-1.4635,0.0,-1.4261,-1.3566,-1.2924,-1.2862,-1.2187,-1.1404,-1.0671,-1.0527,-1.0305,-0.9419,-0.9269,-0.9237,-0.9122,-0.9079,-0.9003,-0.8802,-0.8582,-0.8347,-0.8061,-0.759,-0.7145,-0.6884,-0.6472,-0.6256,-0.6495,-0.6781,-0.7064,-0.717,-0.7407,-0.7464,-0.7288,-0.7116,-0.6877,-0.6627,-0.6594,-0.6489,-0.6387,-0.6387,-0.6387,-0.6387,-0.6387,-0.6387,-0.6381,-0.6295,-0.6284,0.0,0.0,0.0,0.0,0.0,0.0,0.0,0.0,0.0,0.0,0.0,-1.3108,0.0,0.0,-1.4513,-1.5139,-1.5618,-1.6129,-1.6755,-1.708,-1.7315,-1.7494,-1.7599,-1.7754,-1.8022,-1.8046,-1.8079,-1.8168,-1.8176,-1.8176,-1.8176,-1.8176,-1.8176,-1.8176,-1.8176,-1.8135,-1.8046,-1.7957,-1.7778,-1.751,-1.7429,-1.7291,-1.7112,-1.7112,-1.7112,-1.7112,-1.7112,-1.6958,-1.6698,-1.6422,-1.6211,-1.5966,-1.5966,-1.5966,-1.5966,-1.5966,-1.5821,-1.5512,-1.5512,-1.5277,-1.4968,-1.4968,-1.4968,-1.4952,-1.4862,-1.4773,-1.4651,-1.4383,-1.3652,-1.2969,-1.2798,-1.2187,-1.1404,-1.0671,-1.0527,-1.0311,-0.9446,-0.9302,-0.9285,-0.9231,-0.9171,-0.9095,-0.8976,-0.8802,-0.8593,-0.84,-0.801,-0.7644,-0.7252,-0.6963,-0.6795,-0.6823,-0.7147,-0.7361,-0.7554,-0.7504,-0.7464,-0.7288,-0.7116,-0.6931,-0.6806,-0.6741,-0.6681,-0.6622,-0.6622,-0.6589,-0.6478,-0.6478,-0.6446,-0.6387,-0.6377,-0.635,0.0,0.0,0.0,0.0,0.0,0.0,0.0,0.0,-1.2775,-1.2954,-1.3279,-1.3685,-1.4188,-1.4603,-1.5074,-1.5723,-1.604,-1.643,-1.7071,-1.7323,-1.7567,-1.7924,-1.7965,-1.8022,-1.816,-1.8176,-1.8176,-1.8176,-1.8176,-1.8176,-1.8176,-1.8176,-1.8176,-1.8176,-1.8176,-1.8176,-1.8176,-1.8038,-1.7859,-1.764,-1.7502,-1.7323,-1.7112,-1.7112,-1.7112,-1.7112,-1.7071,-1.6877,-1.6552,-1.6227,-1.6073,-1.5966,-1.5966,-1.5966,-1.5966,-1.5966,-1.5821,-1.5512,-1.5512,-1.5277,-1.4968,-1.4968,-1.4968,-1.4968,-1.4968,-1.4871,-1.4716,-1.4538,-1.3843,-1.3087,-1.2914,-1.228,-1.1548,-1.0671,-1.0527,-1.0311,-0.9446,-0.9302,-0.9302,-0.9302,-0.9231,-0.916,-0.9139,-0.897,-0.8791,-0.8644,-0.8339,-0.7994,-0.766,-0.7516,-0.742,-0.7315,-0.7526,-0.7713,-0.785,-0.7665,-0.7491,-0.7288,-0.716,-0.7035,-0.6986,-0.6893,-0.6828,-0.6801,-0.6801,-0.6752,-0.6654,-0.6654,-0.6605,-0.6457,-0.643,-0.6408,-1.1776,-1.189,-1.2004,-1.2028,-1.2272,-1.2556,0.0,0.0,-1.3336,-1.3445,-1.3839,-1.4205,-1.4578,-1.5074,-1.5553,-1.5951,-1.6354,-1.6901,-1.7299,-1.7502,-1.7746,-1.8103,-1.8144,-1.8152,-1.8176,-1.8176,-1.8176,-1.8176,-1.8176,-1.8176,-1.8176,-1.8176,-1.8176,-1.8176,-1.8176,-1.8176,-1.8176,-1.8152,-1.7973,-1.764,-1.7624,-1.7437,-1.7112,-1.7112,-1.7112,-1.7104,-1.695,-1.6771,-1.6568,-1.6357,-1.6186,-1.5966,-1.5966,-1.5966,-1.5966,-1.5966,-1.5821,-1.5512,-1.5512,-1.5277,-1.4968,-1.4968,-1.4968,-1.4968,-1.4968,-1.4952,-1.4903,-1.4724,-1.4247,-1.3695,-1.3094,-1.2583,-1.1835,-1.0743,-1.0527,-1.0311,-0.9446,-0.9302,-0.9302,-0.9302,-0.9296,-0.9253,-0.915,-0.9111,-0.9014,-0.8785,-0.8391,-0.8056,-0.8056,-0.7717,-0.7602,-0.7817,-0.777,-0.7707,-0.7747,-0.7698,-0.7584,-0.7293,-0.7255,-0.7203,-0.6991,-0.6975,-0.6915,-0.6806,-0.6801,-0.6796,-0.6779,-0.6779,-0.6774,-0.6757,-0.6649,-0.6489,-1.1898,-1.1971,0.0,0.0,-1.2613,-1.2824,-1.3146,-1.3498,-1.3734,-1.392,-1.4318,-1.4716,-1.4968,-1.5463,-1.5943,0.0,-1.6633,-1.6982,-1.7339,-1.7445,-1.7583,-1.7835,-1.7867,-1.7949,-1.8152,-1.8176,-1.8176,-1.8176,-1.8176,-1.8176,-1.8176,-1.8176,-1.8176,-1.8176,-1.8176,-1.8176,-1.8176,-1.8176,-1.7997,-1.764,-1.764,-1.7453,-1.7112,-1.7112,-1.7112,-1.7096,-1.6812,-1.6649,-1.656,-1.6267,-1.6113,-1.5966,-1.5966,-1.5966,-1.5966,-1.5966,-1.5821,-1.5512,-1.5512,-1.5277,-1.4968,-1.4968,-1.4968,-1.4968,-1.4968,-1.4968,-1.4927,-1.4757,-1.435,-1.3925,-1.344,-1.2881,-1.2156,-1.1338,-1.0815,-1.0311,-0.9807,-0.9446,-0.9302,-0.9302,-0.9302,-0.9291,-0.9242,-0.9177,-0.9101,-0.8997,-0.8681,-0.8402,-0.8133,-0.8123,-0.8122,-0.807,-0.8013,-0.7916,-0.7818,-0.7741,-0.7627,-0.7453,-0.732,-0.7258,-0.7144,-0.7139,-0.7117,-0.7008,-0.7008,-0.6975,-0.691,-0.691,-0.6872,-0.6801,-0.6752,-0.666,-1.1996,0.0,0.0,-1.28,-1.3019,-1.3246,-1.3693,-1.3961,-1.4164,-1.4294,-1.4667,-1.5041,-1.5268,-1.5675,-1.6105,-1.6511,-1.673,-1.6982,-1.7339,-1.7388,-1.7453,-1.7616,-1.764,-1.7746,-1.8005,-1.807,-1.8127,-1.8168,-1.8176,-1.8176,-1.8176,-1.8176,-1.8176,-1.8176,-1.8176,-1.8176,-1.8176,-1.8176,-1.7997,-1.764,-1.764,-1.7453,-1.7112,-1.7112,-1.7088,-1.7023,-1.6714,-1.6552,-1.6479,-1.617,-1.5966,-1.5966,-1.5966,-1.5966,-1.5966,-1.5966,-1.5821,-1.5512,-1.5512,-1.5277,-1.4968,-1.4968,-1.4968,-1.4968,-1.4968,-1.5045,-1.5097,-1.4814,-1.4589,-1.4342,-1.3866,-1.322,-1.2459,-1.1839,-1.1057,-1.0383,-0.9951,-0.959,-0.9302,-0.9302,-0.9302,-0.9302,-0.9302,-0.9237,-0.9171,-0.9139,-0.8954,-0.8706,-0.8319,-0.8478,-0.8508,-0.8307,-0.8176,-0.8057,-0.7993,-0.7812,-0.7698,-0.7578,-0.7453,-0.7334,-0.7209,-0.7226,-0.721,-0.721,-0.721,-0.7166,-0.7029,-0.7029,-0.6986,-0.6899,-0.6866,-0.6806,0.0,0.0,-1.2856,-1.3043,-1.3482,-1.392,-1.4115,-1.4432,-1.4684,-1.4692,-1.4838,-1.5074,-1.5439,-1.5658,-1.5959,-1.6495,-1.673,-1.6982,-1.7339,-1.7388,-1.7453,-1.7616,-1.764,-1.7648,0.0,-1.7819,-1.7997,-1.816,-1.8176,-1.8176,-1.8176,-1.8176,-1.8176,-1.8176,-1.8176,-1.8176,-1.8176,-1.8176,-1.7997,-1.764,-1.764,-1.7453,-1.7112,-1.7112,-1.7015,-1.6766,-1.6665,-1.6479,-1.63,-1.6121,-1.5966,-1.5966,-1.5966,-1.5966,-1.5966,-1.5966,-1.5821,-1.5512,-1.5512,-1.5277,-1.4968,-1.4968,-1.4968,-1.4968,-1.4968,-1.5275,-1.5505,-1.5113,-1.5134,-1.5069,-1.4315,-1.3542,-1.278,-1.2049,-1.1207,-1.0383,-0.9951,-0.959,-0.9302,-0.9302,-0.9302,-0.9302,-0.9302,-0.9302,-0.9264,-0.915,-0.896,-0.8836,-0.878,-0.866,-0.8541,-0.8426,-0.8301,-0.8182,-0.8119,-0.7999,-0.7818,-0.7703,-0.7578,-0.7459,-0.7277,-0.722,-0.721,-0.721,-0.721,-0.721,-0.7204,-0.7204,-0.7204,-0.7199,-0.7029,-0.698,0.0,0.0,-1.3108,-1.3522,-1.3855,-1.4164,-1.4464,-1.4627,-1.4741,-1.4854,-1.4927,-1.5041,-1.5285,-1.548,-1.574,-1.6154,-1.6479,-1.6755,-1.6998,-1.7128,-1.7226,-1.7283,-1.7291,0.0,0.0,0.0,0.0,-1.7989,-1.8005,-1.8054,-1.8168,-1.8176,-1.8176,-1.8176,-1.8176,-1.8176,-1.8176,-1.8176,-1.7997,-1.764,-1.7404,-1.7226,-1.7104,-1.699,-1.6822,-1.675,-1.6527,-1.6357,-1.6292,-1.6113,-1.5966,-1.5966,-1.5966,-1.5966,-1.5966,-1.5966,-1.5821,-1.5512,-1.5512,-1.5277,-1.4968,-1.4968,-1.4968,-1.5045,-1.5352,-1.5505,-1.5667,-1.5744,-1.5616,-1.5379,-1.5026,-1.4311,-1.3572,-1.2839,-1.2015,-1.122,-1.0474,-0.9951,-0.959,-0.9374,-0.9302,-0.9302,-0.9302,-0.9302,-0.9264,-0.915,-0.8965,-0.8785,-0.8666,-0.8611,-0.8546,-0.8432,-0.8307,-0.8187,-0.8125,-0.8004,-0.7823,-0.7709,-0.766,-0.7546,-0.7288,-0.7296,-0.7236,-0.721,-0.721,-0.721,-0.721,-0.721,-0.721,-0.721,-0.7172,-0.7111,0.0,-1.3149,-1.3498,-1.3969,-1.4229,-1.444,-1.4732,-1.4757,-1.4741,-1.4846,-1.4822,-1.483,-1.5017,-1.5195,-1.5439,-1.5796,-1.6154,-1.6479,-1.6722,-1.6909,-1.7039,-1.7104,-1.7112,-1.7161,0.0,0.0,0.0,-1.7892,-1.7916,-1.7989,-1.8168,-1.8176,-1.8176,-1.8176,-1.8176,-1.8176,-1.8176,-1.8176,-1.7997,-1.764,-1.7283,-1.7112,-1.7104,-1.6933,-1.6733,-1.6738,-1.6438,-1.6267,-1.6202,-1.6089,-1.5966,-1.5966,-1.5966,-1.5966,-1.5958,-1.5975,-1.5764,-1.5512,-1.5512,-1.5277,-1.4968,-1.4968,-1.4968,-1.5045,-1.5505,-1.5667,-1.5897,-1.6127,-1.6127,-1.5939,-1.5506,-1.4824,-1.4124,-1.3378,-1.25,-1.1657,-1.0765,-1.0203,-0.9807,-0.9374,-0.9302,-0.9302,-0.9302,-0.9302,-0.9264,-0.915,-0.8965,-0.8791,-0.8671,-0.8617,-0.8557,-0.8486,-0.8334,-0.8204,-0.8127,-0.7964,-0.7839,-0.7769,-0.7725,-0.7633,-0.7475,-0.7325,-0.7301,-0.722,-0.7232,-0.721,-0.721,-0.721,-0.721,-0.721,-0.721,-0.7172,-1.3084,-1.353,-1.4026,-1.4359,-1.4594,-1.4773,-1.4919,-1.4822,-1.4692,-1.4684,-1.4529,-1.4448,0.0,0.0,-1.511,-1.5415,-1.578,-1.6146,-1.6588,-1.6808,-1.6909,0.0,0.0,0.0,0.0,0.0,0.0,-1.7867,0.0,-1.7981,-1.8168,-1.8176,-1.8176,-1.8176,-1.8176,-1.8176,-1.8176,-1.8152,-1.7973,-1.7624,-1.7274,-1.7104,-1.7088,-1.6917,-1.6738,-1.656,-1.6373,-1.6194,-1.5966,-1.5966,-1.5966,-1.5966,-1.5966,-1.604,-1.6008,-1.5837,-1.5658,-1.5504,-1.5504,-1.5268,-1.4968,-1.4968,-1.5045,-1.5122,-1.5505,-1.5897,-1.6203,-1.628,-1.651,-1.6653,-1.5888,-1.5227,-1.4565,-1.3718,-1.2724,-1.177,-1.0957,-1.0335,-0.9807,-0.9374,-0.9302,-0.9302,-0.9302,-0.9302,-0.9269,-0.916,-0.8965,-0.8841,-0.8785,-0.866,-0.859,-0.859,-0.8313,-0.8172,-0.8172,-0.8013,-0.7872,-0.7872,-0.7769,-0.7709,-0.7703,-0.7475,-0.7293,-0.7277,-0.7225,-0.7215,-0.721,-0.721,-0.721,-0.721,-0.721,-0.721,-1.3612,-1.4091,-1.4521,-1.4611,-1.4871,-1.5049,-1.4822,-1.4635,-1.4464,-1.4343,-1.4066,-1.3896,0.0,0.0,0.0,-1.5278,-1.6024,0.0,-1.7039,-1.7578,0.0,-1.794,0.0,-1.7989,-1.7647,-1.7764,0.0,0.0,-1.7713,-1.7851,-1.816,-1.8176,-1.8176,-1.8176,-1.8176,-1.8176,-1.8176,-1.7908,-1.7664,-1.7445,-1.7218,-1.7047,-1.6917,-1.673,-1.6552,-1.6365,-1.6186,-1.6089,-1.5966,-1.5966,-1.5966,-1.5966,-1.5966,-1.5959,-1.5837,-1.5788,-1.5577,-1.5309,-1.5309,-1.5163,-1.4968,-1.4968,-1.5198,-1.5505,-1.5897,-1.6357,-1.673,-1.7044,-1.6968,-1.673,-1.6577,-1.593,-1.5176,-1.4589,-1.3641,-1.2712,-1.1784,-1.0916,-1.0239,-0.9807,-0.9518,-0.9302,-0.9302,-0.9302,-0.9296,-0.9264,-0.8867,-0.849,-0.8376,-0.8262,-0.8256,-0.8256,-0.7987,-0.7916,-0.8172,-0.8013,-0.7872,-0.7872,-0.7845,-0.779,-0.7703,-0.7644,-0.7524,-0.7282,-0.7307,-0.7247,-0.721,-0.721,-0.721,-0.721,-0.721,-0.721,-1.4156,-1.4594,-1.4944,-1.5174,-1.5264,-1.5256,-1.5127,-1.4767,-1.4466,-1.429,-1.3955,0.0,-1.383,0.0,0.0,0.0,0.0,0.0,-1.6958,-1.7601,-1.8022,0.0,-1.8391,0.0,-1.8285,-1.838,-1.8373,0.0,-1.7944,-1.7884,-1.816,-1.8176,-1.8176,-1.8176,-1.8176,-1.8135,-1.8062,-1.7778,-1.7559,-1.7388,-1.7201,-1.7023,-1.6758,-1.6665,-1.6479,-1.6292,0.0,-1.5966,-1.5966,-1.5966,-1.5966,-1.5958,-1.5959,-1.5861,-1.5756,-1.5593,-1.5494,-1.5462,-1.538,-1.5443,-1.5505,-1.5352,-1.5429,-1.5744,-1.628,-1.6653,-1.6883,-1.7273,-1.7273,-1.7035,-1.6883,-1.6348,-1.5718,-1.4999,-1.4026,-1.3081,-1.2174,-1.1179,-1.0311,-0.9735,-0.9446,-0.9302,-0.9302,-0.9302,-0.923,-0.909,-0.8671,-0.8228,-0.7824,-0.782,-0.7861,-0.7861,-0.7597,-0.7596,-0.798,-0.7827,-0.775,-0.7872,-0.7872,-0.7845,-0.778,-0.7731,-0.7611,-0.7421,-0.7304,-0.7274,-0.721,-0.721,-0.721,-0.721,-0.721,-0.721,-1.481,-1.5171,-1.5536,-1.5886,-1.582,-1.5582,-1.5537,-1.506,-1.4579,-1.4334,0.0,-1.3713,-1.3713,-1.4028,-1.4437,-1.4675,0.0,-1.6148,-1.6739,-1.7403,-1.7909,-1.8299,-1.853,-1.8734,-1.8867,-1.8902,-1.907,-1.934,-1.8576,-1.8198,-1.8354,-1.8363,-1.8363,-1.8363,-1.8338,-1.8147,-1.7975,-1.7697,-1.7518,-1.7348,-1.7161,-1.6982,-1.6812,-1.6625,-1.6446,-1.6259,-1.6105,0.0,-1.613,-1.613,-1.6213,-1.6188,-1.6008,-1.5917,-1.586,-1.5515,-1.5618,-1.5888,-1.5718,-1.5897,-1.6127,-1.582,-1.5735,-1.5888,-1.6577,-1.6806,-1.6959,-1.7273,-1.7426,-1.735,-1.6959,-1.6586,-1.6127,-1.5352,-1.4323,-1.326,-1.2433,-1.1311,-1.0239,-0.9446,-0.9302,-0.9302,-0.9302,-0.9302,-0.9157,-0.8729,-0.8464,-0.8109,-0.7418,-0.7383,-0.7459,-0.7459,-0.728,-0.7291,-0.7601,-0.7468,-0.7526,-0.7811,-0.7872,-0.7872,-0.7872,-0.7774,-0.7665,-0.7546,-0.7421,-0.7301,-0.7232,-0.7221,-0.721,-0.721,-0.721,-0.721,-1.5828,-1.632,-1.6729,-1.6485,-1.6381,-1.6171,-1.5471,-1.4868,0.0,0.0,-1.3381,-1.311,-1.311,-1.3679,-1.4313,-1.4837,0.0,0.0,0.0,0.0,-1.8633,0.0,0.0,0.0,0.0,0.0,0.0,0.0,0.0,-1.9352,-1.948,-1.948,-1.948,-1.948,-1.887,-1.8517,-1.834,-1.7698,-1.7339,-1.7161,-1.6982,-1.6803,-1.6625,-1.6438,-1.6259,-1.6089,-1.6468,0.0,-1.6616,-1.7026,-1.7199,-1.71,-1.6892,-1.6727,-1.6571,-1.6338,-1.6233,-1.6171,-1.6144,-1.6127,-1.6203,-1.6127,-1.6357,-1.6653,-1.673,-1.7035,-1.735,-1.735,-1.7426,-1.735,-1.735,-1.6968,-1.6577,-1.6127,-1.5152,-1.4069,-1.3252,-1.175,-1.0239,-0.9446,-0.9302,-0.9302,-0.9302,-0.9302,-0.9157,-0.8729,-0.8323,-0.7836,-0.7348,-0.7174,-0.7121,-0.7121,-0.6951,-0.6983,-0.7281,-0.7413,-0.7485,-0.7516,-0.775,-0.7872,-0.7872,-0.785,-0.7785,-0.7671,-0.7551,-0.7426,-0.7301,-0.7203,-0.721,-0.721,-0.721,-0.721,-1.6372,-1.6854,-1.7207,-1.7047,-1.6715,-1.6361,-1.5776,0.0,0.0,0.0,-1.3323,-1.304,-1.304,-1.349,0.0,-1.4558,0.0,0.0,0.0,0.0,0.0,0.0,0.0,0.0,0.0,0.0,0.0,0.0,0.0,-2.0232,-1.9767,-1.9674,-1.9674,-1.9674,-1.9306,-1.8932,-1.8733,-1.8365,-1.8,-1.7805,-1.7619,-1.7433,-1.7247,-1.7061,-1.6875,-1.6706,-1.6953,0.0,-1.7108,-1.7281,-1.7363,-1.7337,-1.7029,-1.6863,-1.6748,-1.645,-1.6436,-1.651,-1.651,-1.6662,-1.6815,-1.6815,-1.6806,-1.6806,-1.7035,-1.7273,-1.7426,-1.7426,-1.7426,-1.7426,-1.7426,-1.7111,-1.673,-1.628,-1.5002,-1.3675,-1.2772,-1.1471,-1.0311,-0.9735,-0.9446,-0.9302,-0.9302,-0.9302,-0.9085,-0.8512,-0.8159,-0.7687,-0.7078,-0.6881,-0.6774,-0.6723,-0.6638,-0.6692,-0.6974,-0.6955,-0.7094,-0.7418,-0.7541,-0.7689,-0.7872,-0.7872,-0.7818,-0.7703,-0.7578,-0.7459,-0.7277,-0.7214,-0.721,-0.721,-0.721,-0.721,-1.6861,-1.7297,-1.7548,-1.7381,-1.7014,-1.6462,-1.592,-1.5026,0.0,0.0,-1.3296,-1.306,-1.306,-1.3343,-1.3759,0.0,-1.495,-1.5763,0.0,0.0,0.0,0.0,0.0,0.0,0.0,0.0,0.0,0.0,0.0,0.0,-2.0046,-2.0046,-2.0028,-1.9983,-1.9612,-1.9417,-1.9213,-1.892,-1.8638,-1.8444,-1.8251,-1.8058,-1.7864,-1.7671,-1.7504,-1.7363,-1.7527,0.0,0.0,-1.7609,-1.7691,-1.7656,-1.7253,-1.7021,-1.6977,-1.6576,-1.6662,-1.6959,-1.6959,-1.7111,-1.7426,-1.7426,-1.7197,-1.6959,-1.7273,-1.7426,-1.7426,-1.7426,-1.7426,-1.7426,-1.7426,-1.7197,-1.6797,-1.6227,-1.47,-1.3103,-1.2164,-1.1233,-1.042,-0.9957,-0.959,-0.9302,-0.9302,-0.923,-0.8946,-0.8222,-0.7988,-0.761,-0.6832,-0.666,-0.6562,-0.656,-0.6402,-0.6469,-0.6653,-0.664,-0.6787,-0.7368,-0.7408,-0.7592,-0.7872,-0.7872,-0.7828,-0.7741,-0.7595,-0.747,-0.732,-0.7225,-0.721,-0.721,-0.721,-0.721,-1.7458,-1.777,-1.7845,-1.751,-1.7077,-1.654,-1.5782,0.0,0.0,-1.3542,-1.3088,-1.2851,-1.2851,-1.3136,-1.3551,-1.3967,0.0,-1.5489,0.0,0.0,0.0,0.0,0.0,0.0,0.0,0.0,0.0,0.0,0.0,0.0,-2.1075,-2.1075,-2.0981,-2.0692,-2.0124,-1.9653,-1.9462,-1.8814,-1.8444,-1.8242,-1.8049,-1.7855,-1.7653,-1.7469,-1.7381,-1.7445,-1.7764,0.0,0.0,-1.8428,-1.8592,-1.8554,-1.8051,-1.7892,-1.7835,-1.7423,-1.7273,-1.735,-1.735,-1.735,-1.7426,-1.7426,-1.735,-1.735,-1.7426,-1.7426,-1.7426,-1.7426,-1.7426,-1.7426,-1.7426,-1.735,-1.7074,-1.6126,-1.47,-1.3236,-1.2552,-1.1457,-1.0529,-0.9974,-0.959,-0.9302,-0.9302,-0.9018,-0.8584,-0.815,-0.7706,-0.7282,-0.6914,-0.6696,-0.6586,-0.6578,-0.6496,-0.6473,-0.6325,-0.6631,-0.6873,-0.706,-0.7353,-0.7619,-0.7877,-0.7872,-0.7867,-0.7856,-0.7633,-0.7513,-0.7502,-0.7269,-0.721,-0.721,-0.721,-0.721,-1.734,-1.7605,-1.7634,-1.7473,-1.6925,-1.6245,-1.5526,0.0,-1.3797,-1.3296,-1.2862,-1.2569,-1.2569,-1.2814,-1.3154,-1.357,0.0,0.0,-1.5706,0.0,0.0,0.0,0.0,0.0,0.0,0.0,0.0,0.0,0.0,0.0,-2.0979,-2.097,-2.0932,-2.0847,-2.0336,-2.0032,-1.9958,-1.9457,-1.9158,-1.9075,-1.8753,-1.8551,-1.8468,-1.8275,-1.8183,-1.8183,-1.8346,0.0,0.0,-1.8592,-1.8598,-1.8456,-1.8163,-1.7965,-1.7823,-1.753,-1.7426,-1.7426,-1.7426,-1.7426,-1.7426,-1.7426,-1.7426,-1.7426,-1.7426,-1.7426,-1.7426,-1.7426,-1.7426,-1.7426,-1.7426,-1.7044,-1.6568,-1.6183,-1.4781,-1.3453,-1.3102,-1.1878,-1.0743,-1.0462,-0.9849,-0.9389,-0.9318,-0.8946,-0.8584,-0.815,-0.7756,-0.7347,-0.6931,-0.6861,-0.6709,-0.6602,-0.6509,-0.6506,-0.6402,-0.6481,-0.6679,-0.7181,-0.7185,-0.7468,-0.7981,-0.7971,-0.7872,-0.7872,-0.7709,-0.7589,-0.7519,-0.7345,-0.7225,-0.721,-0.721,-0.721,-1.6972,-1.7105,-1.7057,-1.7057,-1.6471,-1.5734,0.0,0.0,-1.3485,-1.306,-1.2691,-1.2382,-1.2382,-1.2616,-1.288,-1.324,0.0,-1.4468,-1.5186,0.0,0.0,0.0,0.0,0.0,0.0,0.0,0.0,0.0,0.0,0.0,0.0,-2.0596,-2.0658,-2.0658,-2.0374,-2.0157,-2.0034,-1.9741,-1.9533,-1.941,-1.9117,-1.8947,-1.8881,-1.8739,-1.8673,-1.8673,-1.8673,0.0,0.0,-1.8607,-1.8494,-1.8404,-1.8059,-1.7782,-1.77,-1.7501,-1.7426,-1.7426,-1.7426,-1.7426,-1.7426,-1.7426,-1.7426,-1.7426,-1.7426,-1.7426,-1.7426,-1.7426,-1.7426,-1.7426,-1.7426,-1.6815,-1.6203,-1.6203,-1.4879,-1.355,-1.3498,-1.2196,-1.0889,-1.0823,-1.0098,-0.9459,-0.9372,-0.8967,-0.8584,-0.815,-0.7788,-0.7467,-0.6972,-0.6943,-0.6877,-0.6823,-0.6766,-0.6619,-0.6522,-0.6527,-0.674,-0.7238,-0.7262,-0.7461,-0.8057,-0.7999,-0.7872,-0.775,-0.7698,-0.76,-0.7391,-0.7352,-0.729,-0.7209,-0.7226,-0.721,-1.633,-1.6349,-1.6197,-1.6197,-1.5715,-1.5082,0.0,0.0,-1.3277,-1.2918,-1.2597,-1.2382,-1.2382,-1.2616,-1.2889,-1.3098,-1.3599,0.0,-1.4518,0.0,0.0,0.0,0.0,0.0,0.0,0.0,0.0,0.0,0.0,0.0,0.0,-2.0069,-2.0223,-2.0223,-2.0223,-2.0025,-1.9609,-1.9599,-1.9392,-1.8985,-1.8976,-1.8872,-1.8683,-1.8673,-1.8673,0.0,0.0,0.0,0.0,-1.8527,-1.8432,-1.8314,-1.7889,-1.7728,-1.77,-1.7501,-1.7426,-1.7426,-1.7426,-1.7426,-1.7426,-1.7426,-1.7426,-1.7426,-1.7426,-1.7426,-1.7426,-1.7426,-1.7426,-1.7426,-1.7426,-1.6815,-1.6203,-1.6203,-1.4899,-1.3692,-1.3528,-1.2208,-1.103,-1.0889,-1.0162,-0.9487,-0.9487,-0.9019,-0.8584,-0.815,-0.7788,-0.7421,-0.7059,-0.6909,-0.6998,-0.7353,-0.7178,-0.6957,-0.6527,-0.6786,-0.7075,-0.7309,-0.7528,-0.7801,-0.8057,-0.7999,-0.775,-0.7388,-0.7577,-0.7519,-0.721,-0.728,-0.7277,-0.7277,-0.7209,-0.721,-1.546,-1.5479,-1.5356,-1.5498,-1.5177,-1.4695,-1.4213,0.0,-1.3268,-1.2852,-1.2597,-1.2382,-1.2382,-1.2493,-1.2654,-1.307,-1.3187,0.0,0.0,0.0,0.0,0.0,0.0,0.0,0.0,0.0,0.0,0.0,0.0,0.0,0.0,-1.9591,-1.9655,-2.0015,-1.9873,-1.9666,-1.9392,-1.925,-1.9108,-1.8976,-1.8834,-1.8739,-1.8673,-1.8673,-1.8673,0.0,0.0,0.0,0.0,-1.8229,-1.8059,-1.7908,-1.7776,-1.7643,-1.7511,-1.7445,-1.7426,-1.7426,-1.7426,-1.7426,-1.7426,-1.7426,-1.7426,-1.7426,-1.7426,-1.7426,-1.7426,-1.7426,-1.7426,-1.7426,-1.7426,-1.6815,-1.6203,-1.6203,-1.4899,-1.3729,-1.3677,-1.2357,-1.1164,-1.103,-1.0288,-0.9677,-0.9514,-0.916,-0.8748,-0.8522,-0.8222,-0.786,-0.7788,-0.7761,-0.7715,-0.7789,-0.7724,-0.7613,-0.7369,-0.7363,-0.7507,-0.7806,-0.7832,-0.7915,-0.8182,-0.7874,-0.7588,-0.7388,-0.723,-0.7054,-0.6861,-0.7084,-0.7264,-0.7277,-0.7214,-0.721,0.0,-1.4742,-1.4565,-1.4707,-1.439,0.0,0.0,-1.3039,-1.2774,-1.2543,-1.2376,-1.2273,-1.2273,-1.2273,-1.2358,-1.2652,-1.2781,0.0,0.0,0.0,0.0,0.0,0.0,0.0,0.0,0.0,0.0,0.0,0.0,0.0,0.0,-1.8994,-1.9118,-1.9314,-1.9429,-1.9382,-1.9184,-1.9042,-1.8938,-1.8862,-1.8739,-1.8673,-1.8673,-1.8588,-1.855,0.0,0.0,0.0,0.0,-1.8012,-1.7851,-1.7719,-1.7643,-1.7539,-1.7426,-1.7426,-1.7426,-1.7426,-1.7426,-1.7426,-1.7426,-1.7426,-1.7426,-1.7426,-1.7426,-1.7426,-1.7426,-1.7426,-1.7426,-1.7426,-1.7426,-1.6815,-1.6203,-1.6203,-1.4899,-1.3667,-1.3667,-1.2424,-1.1315,-1.1158,-1.0409,-0.9791,-0.9644,-0.9324,-0.9024,-0.8805,-0.8542,-0.8295,-0.8155,-0.8078,-0.8126,-0.8274,-0.823,-0.8223,-0.8223,-0.7937,-0.7833,-0.8061,-0.8086,-0.8117,-0.8242,-0.7954,-0.7645,-0.7264,-0.7163,-0.6926,-0.6617,-0.6875,-0.7064,-0.7174,-0.711,-0.7113,0.0,-1.4071,-1.3864,0.0,0.0,0.0,0.0,-1.2051,0.0,-1.1937,-1.1946,-1.1946,-1.1946,-1.1964,-1.199,-1.2082,-1.241,0.0,0.0,0.0,0.0,0.0,0.0,0.0,0.0,0.0,0.0,0.0,0.0,0.0,0.0,-1.8275,-1.8618,-1.8329,-1.8894,-1.9146,-1.8957,-1.8957,-1.8853,-1.8654,-1.8654,-1.8645,-1.8626,-1.8418,-1.8333,0.0,0.0,0.0,0.0,-1.7794,-1.77,-1.7681,-1.7501,-1.7426,-1.7426,-1.7426,-1.7426,-1.7426,-1.7426,-1.7426,-1.7426,-1.7426,-1.7426,-1.7426,-1.7426,-1.7426,-1.7426,-1.7426,-1.7426,-1.7426,-1.7426,-1.6815,-1.6203,-1.6203,-1.4976,-1.3814,-1.3744,-1.2424,-1.134,-1.134,-1.0466,-0.9845,-0.984,-0.965,-0.935,-0.8976,-0.88,-0.8584,-0.8222,-0.815,-0.8295,-0.8729,-0.8632,-0.8708,-0.9062,-0.8564,-0.8183,-0.8143,-0.8299,-0.8426,-0.8416,-0.8198,-0.7754,-0.7113,-0.7254,-0.7016,-0.6403,-0.6547,-0.6748,-0.695,-0.6834,-0.6945,-1.3022,0.0,-1.2947,-1.2934,-1.2705,-1.2396,0.0,-1.1954,-1.1866,-1.1717,-1.1682,-1.1682,-1.1682,-1.1797,-1.1927,-1.2043,-1.2242,-1.2506,0.0,0.0,0.0,0.0,0.0,0.0,0.0,0.0,0.0,0.0,0.0,0.0,0.0,-1.7442,-1.7741,-1.832,-1.8147,-1.8309,-1.8749,-1.8749,-1.8636,-1.8428,-1.8428,-1.8343,-1.8191,-1.8144,-1.8116,0.0,0.0,0.0,-1.7785,-1.7577,-1.7492,-1.7492,-1.7445,-1.7426,-1.7426,-1.7426,-1.7426,-1.7426,-1.7426,-1.7426,-1.7426,-1.7426,-1.7426,-1.7426,-1.7426,-1.7426,-1.7426,-1.7426,-1.7426,-1.7426,-1.7426,-1.7044,-1.6577,-1.628,-1.5437,-1.4507,-1.3821,-1.2656,-1.165,-1.134,-1.054,-0.9949,-0.9851,-0.972,-0.9595,-0.9355,-0.9238,-0.9163,-0.9013,-0.9018,-0.909,-0.9163,-0.9136,-0.9082,-0.9068,-0.8841,-0.8622,-0.8663,-0.8617,-0.8508,-0.8421,-0.8102,-0.766,-0.7113,-0.6518,-0.6285,-0.6403,-0.6366,-0.6483,-0.6762,-0.6652,-0.6556,-1.2587,-1.2543,-1.2418,-1.2305,-1.2078,-1.1742,-1.1441,-1.1342,-1.1364,-1.1371,-1.1345,-1.138,-1.1466,-1.1569,-1.1702,-1.1946,-1.2012,0.0,0.0,0.0,0.0,0.0,0.0,0.0,0.0,0.0,0.0,0.0,0.0,0.0,0.0,-1.6617,-1.6901,-1.739,-1.7422,-1.7764,-1.8522,-1.8437,-1.8333,-1.821,-1.821,-1.8154,-1.7971,-1.7867,-1.782,0.0,0.0,0.0,-1.7577,-1.7473,-1.7426,-1.7426,-1.7426,-1.7426,-1.7426,-1.7426,-1.7426,-1.7426,-1.7426,-1.7426,-1.7426,-1.7426,-1.7426,-1.7426,-1.7426,-1.7426,-1.7426,-1.7426,-1.7426,-1.7426,-1.7426,-1.7111,-1.673,-1.628,-1.5582,-1.4737,-1.3898,-1.2733,-1.1805,-1.1417,-1.0563,-0.9998,-0.9932,-0.9824,-0.9709,-0.959,-0.9465,-0.9367,-0.9313,-0.9302,-0.9302,-0.9302,-0.9302,-0.928,-0.922,-0.9046,-0.8889,-0.878,-0.8655,-0.8557,-0.8497,-0.8246,-0.7781,-0.7113,-0.65,-0.6205,-0.6158,-0.6107,-0.6267,-0.6566,-0.64,-0.6445,-1.2382,-1.2303,-1.2153,-1.193,-1.1595,-1.1162,-1.0784,-1.0688,-1.0743,-1.0962,-1.1042,-1.1164,0.0,-1.1433,0.0,0.0,0.0,0.0,0.0,0.0,0.0,0.0,0.0,0.0,0.0,0.0,0.0,0.0,0.0,0.0,0.0,-1.5894,-1.6155,-1.6232,-1.6673,-1.7297,-1.8098,-1.7957,-1.7952,-1.7924,-1.7924,-1.7905,-1.7867,-1.7766,-1.7681,-1.7672,0.0,0.0,-1.7426,-1.7426,-1.7426,-1.7426,-1.7426,-1.7426,-1.7426,-1.7426,-1.7426,-1.7426,-1.7426,-1.7426,-1.7426,-1.7426,-1.7426,-1.7426,-1.7426,-1.7426,-1.7426,-1.7426,-1.7426,-1.7426,-1.7426,-1.7121,-1.6806,-1.628,-1.5667,-1.4891,-1.3891,-1.2888,-1.196,-1.1417,-1.0641,-1.0097,-1.0019,-0.9916,-0.9802,-0.9688,-0.9568,-0.9443,-0.9318,-0.9302,-0.9302,-0.9302,-0.9302,-0.9302,-0.9302,-0.9198,-0.9046,-0.884,-0.8693,-0.8606,-0.859,-0.841,-0.792,-0.7142,-0.6809,-0.638,-0.5916,-0.5916,-0.6039,-0.6342,-0.6198,-0.627,-1.2382,-1.2083,-1.1726,-1.1671,-1.1232,-1.0784,-1.0696,-1.0688,-1.0696,-1.0751,-1.0929,0.0,0.0,-1.1404,-1.1619,0.0,0.0,0.0,0.0,0.0,0.0,0.0,0.0,0.0,0.0,0.0,0.0,0.0,0.0,0.0,0.0,-1.5046,-1.5359,-1.5624,-1.596,-1.6346,-1.6807,-1.7256,-1.7562,-1.7776,-1.7776,-1.7681,-1.752,-1.7492,-1.7473,-1.7473,0.0,-1.7426,-1.7426,-1.7426,-1.7426,-1.7426,-1.7426,-1.7426,-1.7426,-1.7426,-1.7426,-1.7426,-1.7426,-1.7426,-1.7426,-1.7426,-1.7426,-1.7426,-1.7426,-1.7426,-1.7426,-1.7426,-1.7426,-1.7426,-1.7426,-1.735,-1.7121,-1.6357,-1.6127,-1.559,-1.4053,-1.3274,-1.2579,-1.1495,-1.0874,-1.0408,-1.0097,-0.9916,-0.9802,-0.9688,-0.9568,-0.9443,-0.9318,-0.9302,-0.9302,-0.9302,-0.9302,-0.9302,-0.9302,-0.9198,-0.9117,-0.9079,-0.8867,-0.8698,-0.859,-0.8212,-0.7762,-0.7252,-0.6846,-0.638,-0.5916,-0.5916,-0.5916,-0.5978,-0.5965,-0.5916,-1.2382,-1.2001,-1.1618,-1.1618,-1.1126,-1.072,-1.0818,-1.0842,-1.0867,-1.0956,-1.1045,0.0,0.0,0.0,-1.147,0.0,0.0,0.0,0.0,0.0,0.0,0.0,0.0,0.0,0.0,0.0,0.0,0.0,0.0,0.0,0.0,0.0,-1.4426,-1.4648,-1.5041,-1.5343,-1.5709,-1.6182,-1.6724,-1.7174,-1.7174,-1.7281,-1.7426,-1.7426,-1.7426,-1.7426,0.0,-1.7426,-1.7426,-1.7426,-1.7426,-1.7426,-1.7426,-1.7426,-1.7426,-1.7426,-1.7426,-1.7426,-1.7426,-1.7426,-1.7426,-1.7426,-1.7426,-1.7426,-1.7426,-1.7426,-1.7426,-1.7426,-1.7426,-1.7426,-1.7426,-1.7426,-1.7197,-1.6357,-1.6203,-1.5744,-1.4053,-1.3351,-1.2733,-1.1495,-1.0952,-1.0486,-1.0097,-0.9976,-0.9878,-0.9699,-0.9622,-0.9519,-0.9329,-0.9302,-0.9302,-0.9302,-0.9302,-0.9302,-0.9302,-0.9258,-0.9144,-0.8948,-0.8834,-0.8715,-0.8595,-0.8403,-0.7989,-0.7363,-0.7129,-0.6647,-0.5928,-0.5941,-0.5916,-0.5916,-0.5916,-0.5896,-1.2318,-1.1946,-1.1581,-1.157,-1.1139,-1.0794,-1.094,-1.1005,-1.1078,-1.1133,-1.1205,0.0,0.0,-1.1195,0.0,0.0,0.0,0.0,0.0,0.0,0.0,0.0,0.0,0.0,0.0,0.0,0.0,0.0,0.0,0.0,0.0,0.0,-1.3598,-1.3715,-1.4097,-1.4485,-1.477,-1.5075,-1.57,-1.6581,-1.6657,-1.6867,-1.7123,-1.7209,-1.7284,-1.7284,-1.7284,-1.7284,-1.7284,-1.7331,-1.735,-1.736,-1.7407,-1.7426,-1.7426,-1.7426,-1.7426,-1.7426,-1.7426,-1.7426,-1.7426,-1.7426,-1.7426,-1.7426,-1.7426,-1.7426,-1.7426,-1.7426,-1.7426,-1.7426,-1.7426,-1.7426,-1.7197,-1.6357,-1.6203,-1.5744,-1.4053,-1.3428,-1.2888,-1.1572,-1.1029,-1.0563,-1.0097,-0.9998,-0.9905,-0.9699,-0.9644,-0.9546,-0.9334,-0.9302,-0.9302,-0.9302,-0.9302,-0.9302,-0.9302,-0.9302,-0.9166,-0.8834,-0.8785,-0.8715,-0.8595,-0.859,-0.8199,-0.7435,-0.7353,-0.6864,-0.5992,-0.592,-0.5937,-0.5916,-0.5916,-0.5916,-1.2064,-1.1846,-1.1562,-1.1466,-1.1172,-1.0956,-1.102,-1.1094,-1.1141,-1.1032,-1.1137,0.0,0.0,-1.114,0.0,0.0,0.0,0.0,0.0,0.0,0.0,0.0,0.0,0.0,0.0,0.0,0.0,0.0,0.0,0.0,0.0,0.0,0.0,-1.3003,-1.3376,-1.3748,-1.3952,-1.4027,-1.4703,-1.6006,-1.6307,-1.6432,-1.6324,-1.6702,-1.6849,-1.6849,-1.6849,-1.6849,-1.6868,-1.7048,-1.7123,-1.7142,-1.735,-1.7426,-1.7426,-1.7426,-1.7426,-1.7426,-1.7426,-1.7426,-1.7426,-1.7426,-1.7426,-1.7426,-1.7426,-1.7426,-1.7426,-1.7426,-1.7426,-1.7426,-1.7426,-1.7426,-1.7197,-1.6357,-1.6203,-1.5744,-1.4053,-1.366,-1.3197,-1.1572,-1.1262,-1.0952,-1.0175,-0.9927,-0.9807,-0.9688,-0.9574,-0.9454,-0.9318,-0.9302,-0.9302,-0.9302,-0.9302,-0.9302,-0.9302,-0.9302,-0.9198,-0.8884,-0.8834,-0.8715,-0.8595,-0.859,-0.8199,-0.7435,-0.7425,-0.6937,-0.5992,-0.5984,-0.5936,-0.5916,-0.5916,-0.5916,-1.2,-1.1782,-1.1562,-1.1427,-1.1272,-1.1126,-1.1126,-1.1161,-1.1168,-1.1141,-1.1185,-1.1188,0.0,0.0,0.0,0.0,0.0,0.0,0.0,0.0,0.0,0.0,0.0,0.0,0.0,0.0,0.0,0.0,0.0,0.0,0.0,0.0,-1.2588,-1.2374,-1.2817,-1.3013,-1.3178,-1.3401,-1.3823,-1.4449,-1.5231,-1.5694,-1.591,-1.6278,-1.6425,-1.6434,-1.6655,-1.6802,-1.6812,-1.6887,-1.6916,-1.6925,-1.701,-1.7038,-1.7038,-1.7038,-1.7038,-1.7038,-1.7038,-1.7038,-1.7057,-1.719,-1.7227,-1.7246,-1.7388,-1.7426,-1.7426,-1.7426,-1.7426,-1.7426,-1.7426,-1.7426,-1.7197,-1.6357,-1.6203,-1.5744,-1.4053,-1.3667,-1.3197,-1.1572,-1.1262,-1.1029,-1.0175,-0.9916,-0.9802,-0.9688,-0.9568,-0.9443,-0.9318,-0.9302,-0.9302,-0.9302,-0.9302,-0.9302,-0.9302,-0.9302,-0.9204,-0.8895,-0.891,-0.8791,-0.8595,-0.859,-0.8368,-0.7862,-0.7529,-0.7103,-0.6455,-0.6143,-0.5944,-0.5916,-0.5916,-0.5916,-1.1892,-1.1673,-1.1414,-1.1327,-1.1233,-1.1126,-1.1172,-1.1264,-1.1356,-1.1246,-1.12,-1.1206,-1.122,0.0,0.0,0.0,0.0,0.0,0.0,0.0,0.0,0.0,0.0,0.0,0.0,0.0,0.0,0.0,0.0,0.0,0.0,0.0,-1.2149,-1.1993,-1.2289,-1.2462,-1.2509,-1.2729,-1.3012,-1.3348,-1.4099,-1.4796,-1.5357,-1.5658,-1.5876,-1.6013,-1.6313,-1.6458,-1.6613,-1.6679,-1.6745,-1.6802,-1.6802,-1.6802,-1.6802,-1.6802,-1.6802,-1.6802,-1.6802,-1.6802,-1.6831,-1.6963,-1.7048,-1.7133,-1.7284,-1.7369,-1.7426,-1.7426,-1.7426,-1.7426,-1.7426,-1.7426,-1.7197,-1.6357,-1.6203,-1.5744,-1.4053,-1.3667,-1.3197,-1.1572,-1.1262,-1.1017,-1.0125,-0.9862,-0.9748,-0.9628,-0.9508,-0.94,-0.9313,-0.9302,-0.9302,-0.9302,-0.9302,-0.9302,-0.9302,-0.9302,-0.9204,-0.8895,-0.8884,-0.884,-0.8595,-0.859,-0.8456,-0.8123,-0.7654,-0.7234,-0.6748,-0.6264,-0.6047,-0.5957,-0.5933,-0.5916,-1.1629,-1.1354,-1.1109,-1.1192,-1.1129,-1.1048,-1.118,-1.1482,-1.1581,-1.1256,-1.1233,-1.1234,-1.1234,-1.1287,0.0,0.0,0.0,0.0,0.0,0.0,0.0,0.0,0.0,0.0,0.0,0.0,0.0,0.0,0.0,0.0,0.0,-1.2135,-1.1986,-1.183,-1.1823,-1.1825,-1.1959,-1.2022,-1.2293,-1.2819,-1.2998,-1.3593,-1.4474,-1.4839,-1.5186,-1.5603,-1.5603,-1.5824,-1.6197,-1.6396,-1.6604,-1.6802,-1.6802,-1.6802,-1.6802,-1.6802,-1.6802,-1.6802,-1.6802,-1.6802,-1.6802,-1.6802,-1.6934,-1.7095,-1.7105,-1.7256,-1.7426,-1.7426,-1.7426,-1.7426,-1.7426,-1.7426,-1.7197,-1.6357,-1.6203,-1.5744,-1.4053,-1.3667,-1.3197,-1.1572,-1.1262,-1.0987,-0.9933,-0.9742,-0.9628,-0.9503,-0.9383,-0.9302,-0.9302,-0.9302,-0.9302,-0.9302,-0.9302,-0.9302,-0.9302,-0.9302,-0.9204,-0.89,-0.8884,-0.884,-0.8595,-0.859,-0.8456,-0.8123,-0.7727,-0.7275,-0.6915,-0.6421,-0.6137,-0.5988,-0.5961,-0.5916,-1.1629,-1.1449,-1.122,-1.0938,-1.0989,-1.1073,-1.0951,-1.1149,-1.1329,-1.124,-1.1047,-1.0901,-1.0901,0.0,0.0,0.0,0.0,0.0,0.0,0.0,0.0,0.0,0.0,0.0,0.0,0.0,0.0,0.0,0.0,0.0,0.0,-1.1748,-1.1633,-1.1369,-1.1362,-1.1391,-1.1441,-1.1441,-1.1621,-1.2054,-1.2382,-1.299,-1.3866,-1.4415,-1.4688,-1.483,-1.5044,-1.5399,-1.5824,-1.6174,-1.6311,-1.6367,-1.6367,-1.6367,-1.6367,-1.6367,-1.6367,-1.6367,-1.6367,-1.6367,-1.6386,-1.6528,-1.6623,-1.6717,-1.701,-1.7152,-1.7227,-1.7388,-1.7426,-1.7426,-1.7426,-1.7197,-1.6883,-1.6357,-1.5974,-1.5437,-1.3975,-1.3667,-1.3197,-1.1572,-1.1262,-1.0987,-0.9933,-0.9742,-0.9628,-0.9503,-0.9383,-0.9302,-0.9302,-0.9302,-0.9302,-0.9302,-0.9302,-0.9302,-0.9302,-0.9302,-0.9242,-0.9019,-0.8927,-0.884,-0.8595,-0.859,-0.8456,-0.8123,-0.7727,-0.7275,-0.6915,-0.6488,-0.6198,-0.5988,-0.5964,-0.5916,-1.1428,-1.1325,-1.1174,-1.0773,-1.0896,-1.1101,-1.0976,0.0,0.0,0.0,-1.0992,-1.0844,-1.0695,0.0,0.0,0.0,0.0,0.0,0.0,0.0,0.0,0.0,0.0,0.0,0.0,0.0,0.0,0.0,0.0,0.0,0.0,-1.1436,-1.1355,-1.1234,-1.1234,-1.1138,-1.1077,-1.1077,-1.1255,-1.1532,-1.1801,-1.2361,-1.3011,-1.3751,-1.4156,-1.4364,-1.4804,-1.5115,-1.5399,-1.5824,-1.5966,-1.5966,-1.6108,-1.6178,-1.6178,-1.6178,-1.6178,-1.6178,-1.6178,-1.6178,-1.6207,-1.632,-1.6415,-1.6528,-1.6783,-1.6916,-1.7029,-1.7237,-1.7294,-1.7294,-1.7294,-1.6839,-1.6402,-1.6262,-1.5897,-1.5259,-1.3885,-1.364,-1.3166,-1.1498,-1.1103,-1.0832,-0.9871,-0.9639,-0.9557,-0.9432,-0.9351,-0.9302,-0.9302,-0.9302,-0.9302,-0.9302,-0.9302,-0.9302,-0.9302,-0.9302,-0.9258,-0.9144,-0.8949,-0.8798,-0.8469,-0.8416,-0.8323,-0.8123,-0.7588,-0.716,-0.6969,-0.6534,-0.6243,-0.6104,-0.6005,-0.594,-1.1181,-1.1056,-1.0972,-1.0724,-1.0801,0.0,-1.1111,-1.1151,-1.1107,-1.1058,0.0,-1.0822,-1.0527,0.0,0.0,0.0,0.0,0.0,0.0,0.0,0.0,0.0,0.0,0.0,0.0,0.0,0.0,0.0,0.0,0.0,0.0,-1.1145,-1.1138,-1.1124,-1.1111,-1.1036,-1.084,-1.084,-1.0967,-1.116,-1.139,-1.1596,-1.1933,-1.2938,-1.3664,-1.4178,-1.4638,-1.4937,-1.4946,-1.5372,-1.5523,-1.5603,-1.5966,-1.6178,-1.6178,-1.6178,-1.6178,-1.6178,-1.6178,-1.6178,-1.6178,-1.6178,-1.6301,-1.6453,-1.6481,-1.6623,-1.6821,-1.702,-1.7076,-1.7076,-1.7076,-1.6478,-1.5931,-1.6107,-1.5845,-1.5108,-1.3809,-1.3468,-1.2971,-1.1264,-1.0865,-1.0598,-0.9656,-0.9487,-0.9443,-0.9323,-0.9302,-0.9302,-0.9302,-0.9302,-0.9302,-0.9302,-0.9302,-0.9302,-0.9302,-0.9302,-0.9258,-0.9155,-0.8954,-0.8692,-0.8245,-0.8122,-0.8056,-0.7989,-0.7321,-0.6982,-0.6987,-0.6502,-0.6284,-0.619,-0.6104,-0.5956,-1.1181,-1.1148,0.0,-1.0524,-1.0415,-1.0557,-1.088,-1.0809,-1.0759,-1.0986,-1.0534,0.0,0.0,0.0,0.0,0.0,0.0,0.0,0.0,0.0,0.0,0.0,0.0,0.0,0.0,0.0,0.0,0.0,0.0,0.0,-1.0581,-1.0574,-1.0657,-1.0819,-1.0697,-1.0622,-1.0588,-1.0588,-1.064,0.0,-1.1094,-1.1297,-1.1437,-1.2475,-1.3186,-1.3563,-1.3949,-1.4258,-1.4395,-1.4815,-1.5044,-1.5186,-1.5541,-1.5753,-1.5753,-1.6108,-1.6178,-1.6178,-1.6178,-1.6178,-1.6178,-1.6178,-1.6216,-1.6273,-1.6434,-1.6509,-1.6594,-1.6812,-1.6868,-1.6868,-1.6868,-1.6277,-1.5703,-1.5738,-1.5151,-1.4388,-1.3536,-1.3312,-1.2849,-1.1245,-1.0865,-1.0598,-0.9656,-0.9487,-0.9443,-0.9323,-0.9302,-0.9302,-0.9302,-0.9302,-0.9302,-0.9302,-0.9302,-0.9302,-0.9302,-0.9302,-0.9296,-0.9269,-0.8998,-0.8729,-0.8352,-0.8163,-0.7856,-0.7254,-0.7049,-0.6853,-0.6585,-0.6502,-0.6378,-0.6284,-0.6194,-0.6108,0.0,0.0,0.0,-1.071,0.0,-1.0378,-1.0485,-1.0406,-1.0222,-1.03,0.0,0.0,0.0,0.0,0.0,0.0,0.0,0.0,0.0,0.0,0.0,0.0,0.0,0.0,0.0,0.0,0.0,0.0,0.0,0.0,-0.9892,-1.0024,-1.0189,-1.0247,-1.0368,-1.0392,-1.0392,-1.0392,-1.0392,-1.0392,-1.0667,-1.0874,-1.1148,-1.2194,-1.283,-1.3034,-1.3472,-1.37,-1.3852,-1.4198,-1.4457,-1.4692,-1.5044,-1.5247,-1.5328,-1.5753,-1.5895,-1.5966,-1.6108,-1.6178,-1.6178,-1.6178,-1.6178,-1.6207,-1.6311,-1.6339,-1.6386,-1.6594,-1.6651,-1.6651,-1.6651,-1.6068,-1.5465,-1.5369,-1.4824,-1.4186,-1.3369,-1.314,-1.2669,-1.1049,-1.0743,-1.0425,-0.9557,-0.94,-0.9378,-0.9313,-0.9302,-0.9302,-0.9302,-0.9302,-0.9302,-0.9302,-0.9302,-0.9302,-0.9302,-0.9302,-0.9302,-0.9302,-0.9084,-0.874,-0.8387,-0.8038,-0.7588,-0.6987,-0.6853,-0.6652,-0.6522,-0.6522,-0.6406,-0.6313,-0.6223,-0.6133,0.0,-1.0892,-1.0996,-1.0943,-1.0565,0.0,-1.0156,-0.9923,-0.9721,-0.9515,0.0,0.0,0.0,0.0,0.0,0.0,0.0,0.0,0.0,0.0,0.0,0.0,0.0,0.0,0.0,0.0,0.0,0.0,0.0,0.0,-0.9188,-0.9506,-0.9634,-0.9697,-0.9996,-1.0179,-1.0179,-1.0243,-1.0243,-1.0243,-1.027,-1.0543,-1.0955,-1.1873,-1.2417,-1.259,-1.301,-1.3227,-1.3388,-1.3669,-1.3907,-1.4075,-1.4492,-1.4754,-1.4929,-1.5345,-1.5504,-1.5673,-1.5966,-1.6108,-1.6178,-1.6178,-1.6178,-1.6178,-1.6178,-1.6178,-1.6216,-1.6386,-1.6434,-1.6434,-1.6434,-1.5858,-1.5246,-1.5016,-1.4639,-1.4008,-1.3137,-1.2962,-1.2482,-1.0834,-1.0383,-1.0095,-0.9446,-0.9302,-0.9302,-0.9302,-0.9302,-0.9302,-0.9302,-0.9302,-0.9302,-0.9302,-0.9302,-0.9302,-0.9302,-0.9302,-0.9302,-0.9302,-0.9101,-0.8761,-0.8387,-0.7922,-0.7474,-0.7121,-0.6719,-0.6522,-0.6522,-0.6522,-0.6415,-0.6337,-0.6231,-0.6141,0.0,0.0,-1.0441,0.0,-1.0211,-1.0035,0.0,0.0,-0.9588,0.0,0.0,0.0,0.0,0.0,0.0,0.0,0.0,0.0,0.0,0.0,0.0,0.0,0.0,0.0,0.0,0.0,0.0,0.0,0.0,0.0,-0.8869,-0.8933,-0.906,-0.9379,-0.9582,-0.9712,-0.9712,-0.9893,-1.0017,-1.0017,-1.0215,-1.0422,-1.0558,-1.1055,-1.1607,-1.2344,-1.2433,-1.2728,-1.3133,-1.32,-1.3306,-1.3546,-1.389,-1.4138,-1.4369,-1.4789,-1.5176,-1.5603,-1.5673,-1.5895,-1.6178,-1.6178,-1.6178,-1.6178,-1.6178,-1.6178,-1.6188,-1.6216,-1.6226,-1.6226,-1.6226,-1.5657,-1.5007,-1.499,-1.4223,-1.3315,-1.2934,-1.2854,-1.2345,-1.0815,-0.9951,-0.9446,-0.9302,-0.9302,-0.9302,-0.9302,-0.9302,-0.9302,-0.9302,-0.9302,-0.9302,-0.9302,-0.9302,-0.9302,-0.9302,-0.9302,-0.9302,-0.9302,-0.9182,-0.8846,-0.8392,-0.8202,-0.7887,-0.7459,-0.679,-0.6522,-0.6522,-0.6522,-0.6514,-0.6498,-0.6259,-0.6174,-1.0762,-1.0344,-1.0133,0.0,-0.9869,-0.9546,-0.9437,0.0,0.0,0.0,0.0,0.0,0.0,0.0,0.0,0.0,0.0,0.0,0.0,0.0,0.0,0.0,0.0,0.0,0.0,0.0,0.0,0.0,0.0,-0.8092,-0.8279,-0.8471,-0.8658,-0.8783,-0.9038,-0.9192,-0.9192,-0.9309,-0.9432,-0.9617,-0.9955,-1.0181,-1.0243,-1.0458,-1.102,-1.171,-1.1909,-1.2285,-1.268,-1.268,-1.285,-1.3214,-1.3417,-1.3601,-1.3836,-1.4181,-1.4649,-1.5158,-1.5368,-1.5802,-1.6178,-1.6178,-1.6178,-1.6178,-1.6178,-1.6178,-1.6178,-1.6178,-1.6178,-1.6178,-1.5895,-1.5399,-1.4981,-1.4768,-1.3975,-1.3182,-1.2896,-1.2617,-1.2043,-1.0743,-0.9879,-0.9302,-0.9302,-0.9302,-0.9302,-0.9302,-0.9302,-0.9302,-0.9302,-0.9302,-0.9302,-0.9302,-0.9302,-0.9302,-0.9302,-0.9302,-0.9302,-0.9302,-0.9198,-0.9008,-0.8676,-0.8354,-0.8105,-0.7861,-0.7326,-0.7058,-0.7058,-0.6853,-0.6786,-0.6782,-0.6394,-0.6182,0.0,0.0,-0.9959,-0.9902,-0.9545,-0.915,0.0,0.0,0.0,0.0,0.0,0.0,0.0,0.0,0.0,0.0,0.0,0.0,0.0,0.0,0.0,0.0,0.0,0.0,0.0,0.0,0.0,0.0,0.0,-0.778,-0.778,-0.8027,-0.8153,-0.8153,-0.8509,-0.8708,-0.8745,-0.8836,-0.8976,-0.922,-0.963,-0.9826,-0.9928,-1.0105,-1.0493,-1.1002,-1.1439,-1.1805,-1.2173,-1.2246,-1.2515,-1.2893,-1.296,-1.3141,-1.3371,-1.3576,-1.4105,-1.4614,-1.4961,-1.5505,-1.5962,-1.6103,-1.6141,-1.6178,-1.6178,-1.6178,-1.6178,-1.6178,-1.6108,-1.5966,-1.5673,-1.5257,-1.4759,-1.4403,-1.3761,-1.3039,-1.261,-1.2115,-1.1469,-1.0527,-0.9807,-0.9302,-0.9302,-0.9302,-0.9302,-0.9302,-0.9302,-0.9302,-0.9302,-0.9302,-0.9302,-0.9302,-0.9302,-0.9302,-0.9302,-0.9302,-0.9302,-0.9302,-0.9226,-0.9111,-0.889,-0.8591,-0.834,-0.8261,-0.7922,-0.766,-0.7526,-0.7187,-0.6982,-0.6978,-0.6459,-0.6182,0.0,-0.9887,0.0,-0.9398,-0.9063,0.0,0.0,0.0,0.0,0.0,0.0,0.0,0.0,0.0,0.0,0.0,0.0,0.0,0.0,0.0,0.0,0.0,0.0,0.0,0.0,0.0,0.0,0.0,0.0,-0.7535,-0.7535,-0.7535,-0.7535,-0.7535,-0.7886,-0.8119,-0.8241,-0.8672,-0.8915,-0.8915,-0.9226,-0.9419,-0.9617,-0.9873,-1.0148,-1.0374,-1.0834,-1.1366,-1.1843,-1.218,-1.2312,-1.2386,-1.2716,-1.2954,-1.3108,-1.3108,-1.3501,-1.4002,-1.4404,-1.488,-1.5399,-1.5807,-1.6018,-1.6178,-1.6178,-1.6178,-1.6178,-1.6178,-1.5895,-1.5603,-1.5603,-1.5044,-1.4403,-1.4047,-1.3396,-1.261,-1.1814,-1.1103,-1.0455,-1.0023,-0.959,-0.9302,-0.9302,-0.9302,-0.9302,-0.9302,-0.9302,-0.9302,-0.9302,-0.9302,-0.9302,-0.9302,-0.9302,-0.9302,-0.9302,-0.9302,-0.9302,-0.9302,-0.9296,-0.9193,-0.889,-0.8874,-0.876,-0.8595,-0.8523,-0.8189,-0.7526,-0.7187,-0.6982,-0.6978,-0.6459,-0.6182,0.0,0.0,0.0,-0.9099,-0.8734,-0.8475,0.0,0.0,0.0,0.0,0.0,0.0,0.0,0.0,0.0,0.0,0.0,0.0,0.0,0.0,0.0,0.0,0.0,0.0,0.0,0.0,0.0,0.0,0.0,-0.7519,-0.7519,-0.7519,-0.7519,-0.7519,-0.7635,-0.7716,-0.776,-0.8241,-0.8425,-0.8425,-0.8872,-0.9184,-0.9413,-0.9536,-0.9738,-1.0134,-1.0307,-1.0728,-1.1301,-1.1534,-1.1776,-1.1982,-1.2371,-1.2542,-1.2598,-1.2797,-1.3244,-1.3806,-1.3942,-1.4334,-1.4862,-1.5126,-1.5356,-1.5658,-1.5787,-1.5966,-1.6178,-1.5895,-1.5673,-1.5461,-1.5044,-1.4688,-1.4261,-1.3396,-1.2832,-1.2115,-1.1103,-1.0671,-1.0383,-0.9951,-0.959,-0.9302,-0.9302,-0.9302,-0.9302,-0.9302,-0.9302,-0.9302,-0.9302,-0.9302,-0.9302,-0.9302,-0.9302,-0.9302,-0.9302,-0.9302,-0.9302,-0.9302,-0.9237,-0.9122,-0.889,-0.8878,-0.8758,-0.859,-0.859,-0.8456,-0.8189,-0.7856,-0.7588,-0.7316,-0.6788,-0.6374,-0.9542,0.0,0.0,0.0,0.0,-0.8077,0.0,0.0,0.0,0.0,0.0,0.0,0.0,0.0,0.0,0.0,0.0,0.0,0.0,0.0,0.0,0.0,0.0,0.0,0.0,0.0,0.0,0.0,0.0,0.0,-0.7399,-0.7399,-0.7399,-0.7399,-0.7437,-0.7459,-0.7459,-0.7814,-0.8016,-0.8056,-0.8443,-0.8812,-0.8976,-0.9092,-0.9387,-0.9793,-0.9839,-1.0215,-1.0825,-1.1061,-1.1329,-1.1644,-1.1975,-1.2107,-1.218,-1.251,-1.2913,-1.3278,-1.3478,-1.3864,-1.4249,-1.4516,-1.4856,-1.5129,-1.5255,-1.5557,-1.5753,-1.547,-1.5328,-1.5115,-1.4617,-1.4189,-1.369,-1.2832,-1.2187,-1.1548,-1.0671,-1.0527,-1.0311,-0.9807,-0.9446,-0.9302,-0.9302,-0.9302,-0.9302,-0.9302,-0.9302,-0.9302,-0.9302,-0.9302,-0.9302,-0.9302,-0.9302,-0.9302,-0.9302,-0.9302,-0.9302,-0.9302,-0.9198,-0.9008,-0.889,-0.8834,-0.8715,-0.859,-0.859,-0.859,-0.859,-0.8256,-0.7974,-0.7602,-0.6969,-0.6473,0.0,0.0,0.0,0.0,0.0,0.0,0.0,0.0,0.0,0.0,0.0,0.0,0.0,0.0,0.0,0.0,0.0,0.0,0.0,0.0,0.0,0.0,0.0,0.0,0.0,0.0,0.0,0.0,0.0,-0.721,-0.721,-0.721,-0.721,-0.721,-0.7269,-0.7271,-0.7271,-0.7453,-0.7573,-0.7698,-0.8056,-0.8245,-0.8433,-0.8732,-0.9037,-0.9281,-0.949,-0.9899,-1.048,-1.0811,-1.1033,-1.124,-1.1644,-1.1776,-1.1843,-1.218,-1.2305,-1.2371,-1.3104,-1.3485,-1.3696,-1.404,-1.4437,-1.4745,-1.4754,-1.4894,-1.4981,-1.4981,-1.4768,-1.4474,-1.4474,-1.3619,-1.2681,-1.2266,-1.1548,-1.0894,-1.0527,-1.0455,-1.0239,-0.9446,-0.9302,-0.9302,-0.9302,-0.9302,-0.9302,-0.9302,-0.9302,-0.9302,-0.9302,-0.9302,-0.9302,-0.9302,-0.9302,-0.9302,-0.9302,-0.9302,-0.9302,-0.9302,-0.9193,-0.9003,-0.8884,-0.8834,-0.8709,-0.859,-0.859,-0.859,-0.859,-0.8256,-0.8066,-0.7883,-0.7062,-0.6404,-0.9376,0.0,0.0,0.0,0.0,0.0,0.0,0.0,0.0,0.0,0.0,0.0,0.0,0.0,0.0,0.0,0.0,0.0,0.0,0.0,0.0,0.0,0.0,0.0,0.0,0.0,0.0,0.0,-0.7232,-0.721,-0.721,-0.721,-0.721,-0.721,-0.7243,-0.7203,-0.7203,-0.7323,-0.7448,-0.7573,-0.7779,-0.8064,-0.8433,-0.8488,-0.8732,-0.9037,-0.9081,-0.9255,-0.9564,-1.0341,-1.0644,-1.0764,-1.1205,-1.138,-1.138,-1.1776,-1.1909,-1.1975,-1.2444,-1.2666,-1.2797,-1.326,-1.373,-1.4156,-1.4292,-1.4683,-1.4981,-1.4697,-1.4554,-1.4403,-1.3761,-1.2975,-1.2259,-1.1893,-1.1397,-1.0822,-1.0167,-1.0095,-0.9879,-0.9374,-0.9302,-0.9302,-0.9302,-0.9302,-0.9302,-0.9302,-0.9302,-0.9302,-0.9302,-0.9302,-0.9302,-0.9302,-0.9302,-0.9302,-0.9302,-0.9302,-0.9302,-0.9302,-0.9111,-0.8917,-0.8884,-0.8747,-0.8622,-0.859,-0.859,-0.859,-0.859,-0.8523,-0.826,-0.7883,-0.6987,-0.646,0.0,0.0,0.0,0.0,0.0,0.0,-0.7368,-0.7083,0.0,0.0,0.0,0.0,0.0,0.0,0.0,0.0,0.0,0.0,0.0,0.0,0.0,0.0,0.0,0.0,0.0,0.0,0.0,-0.7008,-0.7008,-0.7084,-0.7139,-0.7139,-0.7161,-0.721,-0.721,-0.721,-0.721,-0.7225,-0.7323,-0.7442,-0.7568,-0.7806,-0.811,-0.816,-0.8366,-0.8671,-0.8671,-0.8842,-0.9051,-0.964,-1.0057,-1.0305,-1.0719,-1.0927,-1.1049,-1.138,-1.1578,-1.1578,-1.1975,-1.2107,-1.2122,-1.2488,-1.2839,-1.315,-1.3535,-1.3862,-1.424,-1.4236,-1.4118,-1.3833,-1.3047,-1.2402,-1.1828,-1.1469,-1.0966,-1.0389,-1.0023,-0.9735,-0.959,-0.9374,-0.9302,-0.9302,-0.9302,-0.9302,-0.9302,-0.9302,-0.9302,-0.9302,-0.9302,-0.9302,-0.9302,-0.9302,-0.9302,-0.9302,-0.9302,-0.9302,-0.9302,-0.9302,-0.9084,-0.8884,-0.8884,-0.872,-0.859,-0.859,-0.859,-0.859,-0.859,-0.859,-0.8299,-0.7811,-0.7147,-0.677,0.0,0.0,0.0,0.0,0.0,0.0,-0.7113,-0.6854,-0.6763,0.0,0.0,0.0,0.0,0.0,0.0,0.0,0.0,0.0,0.0,0.0,0.0,0.0,0.0,0.0,0.0,-0.6426,-0.6532,-0.6801,-0.6801,-0.685,-0.6959,-0.6964,-0.7018,-0.7188,-0.7193,-0.7199,-0.721,-0.721,-0.7214,-0.7282,-0.7459,-0.7584,-0.7703,-0.7818,-0.8055,-0.8366,-0.8366,-0.8488,-0.8799,-0.8977,-0.9368,-0.9929,-1.0285,-1.0509,-1.0631,-1.0975,-1.1115,-1.1181,-1.1578,-1.171,-1.171,-1.1776,-1.1888,-1.2112,-1.2559,-1.2874,-1.3115,-1.3642,-1.3468,-1.3039,-1.2338,-1.19,-1.1462,-1.1038,-1.0389,-0.9879,-0.9807,-0.9518,-0.9302,-0.9302,-0.9302,-0.9302,-0.9302,-0.9302,-0.9302,-0.9302,-0.923,-0.923,-0.923,-0.9157,-0.9157,-0.9157,-0.9157,-0.9157,-0.923,-0.923,-0.923,-0.9302,-0.9084,-0.8884,-0.8884,-0.872,-0.859,-0.859,-0.859,-0.859,-0.859,-0.8562,-0.8306,-0.7773,-0.749,-0.7266,0.0,0.0,0.0,0.0,0.0,0.0,-0.7095,-0.672,-0.6457,0.0,0.0,0.0,0.0,0.0,0.0,0.0,0.0,0.0,0.0,0.0,0.0,0.0,0.0,0.0,0.0,-0.659,-0.6748,-0.6801,-0.6801,-0.6812,-0.6834,-0.6839,-0.6893,-0.7013,-0.7018,-0.7117,-0.721,-0.721,-0.7214,-0.7282,-0.7459,-0.7584,-0.7703,-0.7818,-0.7933,-0.7994,-0.7994,-0.8055,-0.8116,-0.8389,-0.8803,-0.9286,-0.9567,-0.9863,-1.0163,-1.0346,-1.0591,-1.085,-1.1181,-1.1314,-1.138,-1.171,-1.1888,-1.2045,-1.2353,-1.2527,-1.2692,-1.2922,-1.2689,-1.2409,-1.2266,-1.1691,-1.1038,-1.0671,-1.0239,-0.9807,-0.9518,-0.9374,-0.9302,-0.9302,-0.9302,-0.9302,-0.9302,-0.9302,-0.9302,-0.9302,-0.9018,-0.8801,-0.8801,-0.8512,-0.8367,-0.8367,-0.8367,-0.844,-0.8801,-0.8801,-0.8946,-0.9302,-0.9084,-0.8884,-0.8884,-0.872,-0.859,-0.859,-0.859,-0.859,-0.859,-0.8399,-0.8215,-0.8098,-0.7614,-0.7388,0.0,0.0,0.0,-0.81,0.0,0.0,0.0,-0.6624,-0.6462,0.0,0.0,0.0,0.0,0.0,0.0,0.0,0.0,0.0,0.0,0.0,0.0,0.0,0.0,0.0,0.0,-0.6313,-0.6467,-0.657,-0.6622,-0.6643,-0.6709,-0.6709,-0.6768,-0.6888,-0.6953,-0.7013,-0.7122,-0.7182,-0.7243,-0.7247,-0.7372,-0.7491,-0.7616,-0.7731,-0.7818,-0.7872,-0.7872,-0.7872,-0.7933,-0.8055,-0.8278,-0.8544,-0.9188,-0.9528,-0.9798,-0.9877,-1.006,-1.0259,-1.0585,-1.0717,-1.0784,-1.1115,-1.1297,-1.139,-1.1757,-1.2182,-1.2481,-1.2501,-1.2338,-1.2122,-1.1691,-1.1181,-1.0678,-1.0311,-0.9879,-0.9518,-0.9374,-0.9302,-0.9302,-0.9302,-0.9302,-0.9302,-0.9302,-0.9302,-0.923,-0.9013,-0.8801,-0.8657,-0.844,-0.8222,-0.8078,-0.8078,-0.8078,-0.815,-0.8367,-0.8584,-0.8776,-0.8857,-0.8911,-0.8857,-0.8861,-0.8687,-0.859,-0.859,-0.859,-0.859,-0.859,-0.841,-0.8296,-0.8167,-0.7859,-0.7685,0.0,0.0,0.0,0.0,0.0,-0.7618,0.0,0.0,0.0,0.0,0.0,0.0,0.0,0.0,0.0,0.0,0.0,0.0,0.0,0.0,0.0,0.0,0.0,0.0,0.0,-0.6046,-0.6161,-0.6354,-0.6376,-0.643,-0.6578,-0.6584,-0.6638,-0.6763,-0.6888,-0.6959,-0.6986,-0.7155,-0.721,-0.721,-0.7279,-0.7342,-0.7524,-0.7644,-0.7763,-0.7872,-0.7872,-0.7872,-0.7872,-0.7872,-0.7872,-0.7955,-0.874,-0.9166,-0.937,-0.951,-0.9643,-0.9728,-0.9994,-1.0127,-1.0127,-1.0392,-1.0538,-1.0718,-1.1244,-1.1779,-1.2262,-1.2116,-1.2029,-1.1835,-1.1188,-1.0678,-1.0311,-0.9951,-0.959,-0.9302,-0.9302,-0.9302,-0.9302,-0.9302,-0.9302,-0.9302,-0.9302,-0.923,-0.909,-0.8729,-0.8584,-0.8367,-0.8078,-0.7933,-0.786,-0.786,-0.786,-0.7933,-0.8005,-0.8295,-0.8462,-0.8495,-0.8664,-0.883,-0.8774,-0.8649,-0.859,-0.859,-0.859,-0.859,-0.859,-0.8497,-0.8378,-0.8167,-0.8111,-0.8048,0.0,0.0,0.0,0.0,-0.7713,0.0,0.0,0.0,0.0,0.0,0.0,0.0,0.0,0.0,0.0,0.0,0.0,0.0,0.0,0.0,0.0,0.0,0.0,0.0,0.0,0.0,-0.629,-0.629,-0.6382,-0.6392,-0.6403,-0.6408,-0.6462,-0.6638,-0.6757,-0.6877,-0.6986,-0.7155,-0.721,-0.721,-0.7279,-0.7342,-0.7524,-0.7644,-0.7763,-0.7872,-0.7872,-0.7872,-0.7872,-0.7872,-0.7872,-0.7944,-0.8143,-0.8529,-0.891,-0.8974,-0.9294,-0.9728,-0.9728,-0.9728,-0.9794,-0.9794,-1.0069,-1.0509,-1.0873,-1.1227,-1.1537,-1.1487,-1.1304,-1.1116,-1.1044,-1.0462,-0.9951,-0.9879,-0.959,-0.9302,-0.9302,-0.9302,-0.9302,-0.9302,-0.9302,-0.9302,-0.9302,-0.9018,-0.8729,-0.8729,-0.8145,-0.7711,-0.7638,-0.7349,-0.7135,-0.7135,-0.7135,-0.728,-0.7638,-0.7711,-0.7958,-0.8495,-0.8459,-0.8554,-0.8774,-0.8649,-0.859,-0.859,-0.859,-0.859,-0.859,-0.8573,-0.8454,-0.8167,-0.8111,-0.8048,0.0,0.0,0.0,0.0,0.0,0.0,-0.6991,0.0,-0.6692,0.0,0.0,0.0,0.0,0.0,0.0,0.0,0.0,0.0,0.0,0.0,0.0,0.0,0.0,0.0,0.0,0.0,0.0,0.0,-0.6312,-0.6366,-0.6381,-0.6387,-0.6408,-0.6462,-0.6703,-0.6828,-0.6877,-0.7117,-0.721,-0.721,-0.7203,-0.7296,-0.7358,-0.754,-0.766,-0.7774,-0.7845,-0.7872,-0.7872,-0.7872,-0.7872,-0.7877,-0.7988,-0.8149,-0.8408,-0.8539,-0.8776,-0.8964,-0.9232,-0.9322,-0.9389,-0.9594,-0.9831,-1.0021,-1.0238,-1.0472,-1.0652,-1.0735,-1.0714,-1.0678,-1.0389,-1.0095,-0.9807,-0.959,-0.9446,-0.9302,-0.9302,-0.9302,-0.9302,-0.9302,-0.9302,-0.923,-0.9018,-0.8801,-0.8657,-0.8367,-0.7928,-0.7494,-0.7276,-0.7135,-0.699,-0.699,-0.699,-0.7063,-0.7204,-0.7373,-0.7585,-0.7767,-0.8089,-0.8382,-0.8666,-0.8617,-0.859,-0.859,-0.859,-0.859,-0.859,-0.859,-0.8503,-0.8339,-0.8214,-0.8095,-0.9218,0.0,0.0,0.0,0.0,0.0,0.0,0.0,0.0,0.0,0.0,0.0,0.0,0.0,0.0,0.0,0.0,0.0,0.0,0.0,0.0,0.0,0.0,0.0,0.0,0.0,0.0,-0.6159,-0.6279,-0.6306,-0.6388,-0.6371,-0.6387,-0.6387,-0.6643,-0.6768,-0.6801,-0.7008,-0.7177,-0.721,-0.721,-0.722,-0.7282,-0.7464,-0.7584,-0.7709,-0.7823,-0.7872,-0.7872,-0.7872,-0.7872,-0.7872,-0.7872,-0.7988,-0.8092,-0.8242,-0.8361,-0.8432,-0.8772,-0.8955,-0.905,-0.9389,-0.9528,-0.954,-0.9771,-0.9961,-1.0103,-1.0238,-1.0232,-1.0197,-0.9945,-0.9807,-0.9663,-0.9374,-0.9302,-0.9302,-0.9302,-0.9302,-0.9302,-0.9302,-0.9302,-0.9157,-0.8801,-0.8584,-0.844,-0.8005,-0.7643,-0.7349,-0.7063,-0.699,-0.699,-0.699,-0.699,-0.6978,-0.6954,-0.7178,-0.723,-0.7248,-0.7694,-0.8123,-0.8456,-0.8456,-0.8523,-0.859,-0.859,-0.859,-0.859,-0.859,-0.8546,-0.8459,-0.8339,-0.8204,0.0,0.0,0.0,-0.784,0.0,0.0,0.0,0.0,-0.691,0.0,0.0,0.0,0.0,0.0,0.0,0.0,0.0,0.0,0.0,0.0,0.0,0.0,0.0,0.0,0.0,0.0,0.0,-0.5915,-0.6132,-0.6317,-0.6322,-0.6377,-0.6387,-0.6387,-0.6556,-0.6681,-0.6801,-0.6926,-0.7046,-0.721,-0.721,-0.722,-0.7282,-0.7464,-0.7584,-0.7709,-0.7823,-0.7872,-0.7872,-0.7872,-0.7872,-0.7872,-0.7872,-0.7872,-0.7955,-0.8081,-0.8214,-0.8416,-0.8421,-0.8497,-0.8656,-0.8984,-0.9117,-0.9183,-0.9601,-0.9826,-0.9955,-1.0097,-0.9952,-0.9735,-0.985,-0.959,-0.9302,-0.9302,-0.9302,-0.9302,-0.9302,-0.9302,-0.9302,-0.9302,-0.9302,-0.9157,-0.8801,-0.8367,-0.8005,-0.7638,-0.728,-0.699,-0.699,-0.699,-0.699,-0.699,-0.699,-0.6954,-0.6935,-0.6927,-0.6989,-0.7082,-0.7381,-0.7727,-0.8123,-0.8123,-0.8256,-0.859,-0.859,-0.859,-0.859,-0.859,-0.8584,-0.8579,-0.8465,-0.8285,0.0,0.0,-0.8002,-0.7829,0.0,0.0,0.0,0.0,0.0,0.0,0.0,0.0,0.0,0.0,0.0,0.0,0.0,0.0,0.0,0.0,0.0,0.0,0.0,0.0,0.0,0.0,0.0,-0.5899,-0.6056,-0.6181,-0.6311,-0.6377,-0.6387,-0.6387,-0.6632,-0.6757,-0.6801,-0.6997,-0.7172,-0.721,-0.721,-0.7232,-0.7225,-0.7426,-0.754,-0.7589,-0.7785,-0.7872,-0.7872,-0.7872,-0.7872,-0.7872,-0.7872,-0.7872,-0.7888,-0.807,-0.8155,-0.8318,-0.8475,-0.8557,-0.859,-0.8717,-0.8784,-0.879,-0.8923,-0.9075,-0.9183,-0.9228,-0.9254,-0.9286,-0.9396,-0.9319,-0.9302,-0.9302,-0.9302,-0.9302,-0.9302,-0.9302,-0.9302,-0.9302,-0.9302,-0.909,-0.844,-0.8222,-0.8005,-0.7638,-0.7276,-0.699,-0.699,-0.699,-0.699,-0.699,-0.6933,-0.696,-0.6927,-0.6745,-0.6764,-0.7044,-0.7139,-0.7321,-0.766,-0.7727,-0.7856,-0.8256,-0.8256,-0.8256,-0.8256,-0.8256,-0.8123,-0.7856,-0.7821,-0.7817,-0.8564,-0.827,0.0,-0.7737,-0.7481,0.0,-0.7237,0.0,0.0,0.0,0.0,0.0,0.0,0.0,0.0,0.0,0.0,0.0,0.0,0.0,0.0,0.0,0.0,0.0,0.0,0.0,-0.5718,-0.5839,-0.5953,-0.6072,0.0,0.0,-0.6393,-0.6387,-0.6632,-0.6757,-0.6801,-0.6997,-0.7172,-0.721,-0.721,-0.721,-0.7221,-0.741,-0.7519,-0.7529,-0.7769,-0.7872,-0.7872,-0.7872,-0.7872,-0.7872,-0.7872,-0.7872,-0.7883,-0.8021,-0.8095,-0.8269,-0.8508,-0.859,-0.859,-0.859,-0.859,-0.859,-0.859,-0.8644,-0.8715,-0.8758,-0.8883,-0.9014,-0.8987,-0.9155,-0.9242,-0.9242,-0.9275,-0.9302,-0.9302,-0.9302,-0.9302,-0.9302,-0.9269,-0.8955,-0.817,-0.7993,-0.7849,-0.7412,-0.7131,-0.699,-0.699,-0.699,-0.6978,-0.6945,-0.696,-0.6898,-0.6766,-0.6627,-0.6652,-0.679,-0.6853,-0.6987,-0.7321,-0.7321,-0.7522,-0.7861,-0.7861,-0.7861,-0.7861,-0.7861,-0.7727,-0.7526,-0.7393,-0.7365]}]]